Wetterdaten: Donnerstag, 12.01.2023
Datum Zeit Temp. A. Pool Temp. Temp. 5cm Feuchte A. Luftdruck Regen Wind Richtung Richtung Sonnenschein ET UV Solar Taupunkt Windchill Windben Empfang
12.01.2023 00:00 7,1 C 5,0 C 6,1 C 93 % 1020,8 hPa 0,0 l/m 10,6 km/h (2 Bft) SW 222 0 min 0,000 mm 0,0 UV-I 0 W/m 6,0 C 4,0 C 17,7 km/h (3 Bft) 93,18 %
12.01.2023 00:02 7,0 C 5,0 C 6,1 C 93 % 1020,8 hPa 0,0 l/m 14,0 km/h (3 Bft) SW 236 0 min 0,000 mm 0,0 UV-I 0 W/m 5,9 C 2,0 C 22,5 km/h (4 Bft) 93,10 %
12.01.2023 00:04 7,0 C 5,0 C 6,1 C 93 % 1020,7 hPa 0,0 l/m 13,8 km/h (3 Bft) W-SW 237 0 min 0,000 mm 0,0 UV-I 0 W/m 5,9 C 2,1 C 24,1 km/h (4 Bft) 93,62 %
12.01.2023 00:06 7,0 C 5,0 C 6,1 C 93 % 1020,7 hPa 0,0 l/m 15,2 km/h (3 Bft) SW 223 0 min 0,000 mm 0,0 UV-I 0 W/m 5,9 C 1,4 C 20,9 km/h (4 Bft) 92,11 %
12.01.2023 00:08 6,9 C 5,0 C 6,1 C 93 % 1020,6 hPa 0,0 l/m 11,3 km/h (2 Bft) W-SW 243 0 min 0,000 mm 0,0 UV-I 0 W/m 5,8 C 3,4 C 17,7 km/h (3 Bft) 94,64 %
12.01.2023 00:10 6,9 C 5,0 C 6,1 C 93 % 1020,6 hPa 0,0 l/m 12,6 km/h (3 Bft) SW 235 0 min 0,000 mm 0,0 UV-I 0 W/m 5,8 C 2,6 C 20,9 km/h (4 Bft) 92,86 %
12.01.2023 00:12 6,9 C 5,0 C 6,1 C 93 % 1020,6 hPa 0,0 l/m 13,8 km/h (3 Bft) W 261 0 min 0,000 mm 0,0 UV-I 0 W/m 5,8 C 2,0 C 19,3 km/h (3 Bft) 95,12 %
12.01.2023 00:14 6,9 C 5,0 C 6,1 C 93 % 1020,7 hPa 0,0 l/m 14,1 km/h (3 Bft) W-SW 240 0 min 0,000 mm 0,0 UV-I 0 W/m 5,8 C 1,8 C 22,5 km/h (4 Bft) 92,11 %
12.01.2023 00:16 6,9 C 5,0 C 6,1 C 93 % 1020,6 hPa 0,0 l/m 13,5 km/h (3 Bft) SW 227 0 min 0,000 mm 0,0 UV-I 0 W/m 5,8 C 2,1 C 17,7 km/h (3 Bft) 91,94 %
12.01.2023 00:18 6,9 C 5,0 C 5,6 C 93 % 1020,6 hPa 0,0 l/m 14,1 km/h (3 Bft) W-SW 248 0 min 0,000 mm 0,0 UV-I 0 W/m 5,8 C 1,8 C 20,9 km/h (4 Bft) 89,47 %
12.01.2023 00:20 6,9 C 5,0 C 5,6 C 93 % 1020,6 hPa 0,0 l/m 14,0 km/h (3 Bft) W 261 0 min 0,000 mm 0,0 UV-I 0 W/m 5,8 C 1,9 C 20,9 km/h (4 Bft) 94,74 %
12.01.2023 00:22 6,9 C 5,0 C 5,6 C 93 % 1020,6 hPa 0,0 l/m 14,4 km/h (3 Bft) S-SW 208 0 min 0,000 mm 0,0 UV-I 0 W/m 5,8 C 1,7 C 20,9 km/h (4 Bft) 90,32 %
12.01.2023 00:24 6,9 C 5,0 C 5,6 C 92 % 1020,6 hPa 0,0 l/m 13,4 km/h (3 Bft) W 259 0 min 0,000 mm 0,0 UV-I 0 W/m 5,7 C 2,2 C 22,5 km/h (4 Bft) 95,74 %
12.01.2023 00:26 6,9 C 5,0 C 5,6 C 92 % 1020,7 hPa 0,0 l/m 14,2 km/h (3 Bft) W-SW 253 0 min 0,000 mm 0,0 UV-I 0 W/m 5,7 C 1,8 C 20,9 km/h (4 Bft) 92,11 %
12.01.2023 00:28 6,9 C 5,0 C 5,6 C 93 % 1020,7 hPa 0,0 l/m 11,4 km/h (2 Bft) SW 220 0 min 0,000 mm 0,0 UV-I 0 W/m 5,8 C 3,3 C 17,7 km/h (3 Bft) 94,00 %
12.01.2023 00:30 6,8 C 5,0 C 5,6 C 93 % 1020,8 hPa 0,0 l/m 13,7 km/h (3 Bft) SW 221 0 min 0,000 mm 0,0 UV-I 0 W/m 5,7 C 1,9 C 22,5 km/h (4 Bft) 96,23 %
12.01.2023 00:32 6,8 C 5,0 C 5,6 C 93 % 1020,8 hPa 0,0 l/m 12,1 km/h (2 Bft) SW 227 0 min 0,000 mm 0,0 UV-I 0 W/m 5,7 C 2,8 C 17,7 km/h (3 Bft) 94,74 %
12.01.2023 00:34 6,8 C 5,0 C 5,6 C 93 % 1020,8 hPa 0,0 l/m 10,6 km/h (2 Bft) W-SW 238 0 min 0,000 mm 0,0 UV-I 0 W/m 5,7 C 3,7 C 17,7 km/h (3 Bft) 91,07 %
12.01.2023 00:36 6,8 C 5,0 C 5,6 C 93 % 1020,8 hPa 0,0 l/m 11,4 km/h (2 Bft) SW 227 0 min 0,000 mm 0,0 UV-I 0 W/m 5,7 C 3,2 C 16,1 km/h (3 Bft) 97,87 %
12.01.2023 00:38 6,7 C 5,0 C 5,6 C 93 % 1020,8 hPa 0,0 l/m 12,4 km/h (3 Bft) W-SW 241 0 min 0,000 mm 0,0 UV-I 0 W/m 5,6 C 2,5 C 19,3 km/h (3 Bft) 100,00 %
12.01.2023 00:40 6,7 C 5,0 C 5,6 C 93 % 1020,8 hPa 0,0 l/m 12,7 km/h (3 Bft) W-SW 238 0 min 0,000 mm 0,0 UV-I 0 W/m 5,6 C 2,3 C 22,5 km/h (4 Bft) 100,00 %
12.01.2023 00:42 6,8 C 5,0 C 5,6 C 93 % 1020,7 hPa 0,0 l/m 13,3 km/h (3 Bft) W-SW 244 0 min 0,000 mm 0,0 UV-I 0 W/m 5,7 C 2,1 C 20,9 km/h (4 Bft) 98,00 %
12.01.2023 00:44 6,8 C 5,0 C 5,6 C 93 % 1020,8 hPa 0,0 l/m 12,4 km/h (3 Bft) W-SW 239 0 min 0,000 mm 0,0 UV-I 0 W/m 5,7 C 2,6 C 20,9 km/h (4 Bft) 100,00 %
12.01.2023 00:46 6,8 C 5,0 C 5,6 C 92 % 1020,8 hPa 0,0 l/m 11,9 km/h (2 Bft) SW 222 0 min 0,000 mm 0,0 UV-I 0 W/m 5,6 C 2,9 C 19,3 km/h (3 Bft) 100,00 %
12.01.2023 00:48 6,8 C 5,0 C 5,6 C 92 % 1020,8 hPa 0,0 l/m 9,4 km/h (2 Bft) W-SW 251 0 min 0,000 mm 0,0 UV-I 0 W/m 5,6 C 4,5 C 16,1 km/h (3 Bft) 100,00 %
12.01.2023 00:50 6,7 C 5,0 C 5,6 C 92 % 1020,7 hPa 0,0 l/m 9,6 km/h (2 Bft) W 272 0 min 0,000 mm 0,0 UV-I 0 W/m 5,5 C 4,2 C 12,9 km/h (3 Bft) 100,00 %
12.01.2023 00:52 6,7 C 5,0 C 5,6 C 92 % 1020,7 hPa 0,0 l/m 10,9 km/h (2 Bft) SW 228 0 min 0,000 mm 0,0 UV-I 0 W/m 5,5 C 3,4 C 19,3 km/h (3 Bft) 98,08 %
12.01.2023 00:54 6,7 C 5,0 C 5,6 C 92 % 1020,7 hPa 0,0 l/m 10,3 km/h (2 Bft) W-SW 242 0 min 0,000 mm 0,0 UV-I 0 W/m 5,5 C 3,8 C 17,7 km/h (3 Bft) 100,00 %
12.01.2023 00:56 6,7 C 5,0 C 5,6 C 92 % 1020,7 hPa 0,0 l/m 13,8 km/h (3 Bft) W-SW 250 0 min 0,000 mm 0,0 UV-I 0 W/m 5,5 C 1,7 C 19,3 km/h (3 Bft) 95,83 %
12.01.2023 00:58 6,7 C 5,0 C 5,6 C 92 % 1020,7 hPa 0,0 l/m 12,4 km/h (3 Bft) SW 229 0 min 0,000 mm 0,0 UV-I 0 W/m 5,5 C 2,5 C 19,3 km/h (3 Bft) 100,00 %
12.01.2023 01:00 6,7 C 5,0 C 5,6 C 92 % 1020,7 hPa 0,0 l/m 11,7 km/h (2 Bft) W-SW 250 0 min 0,000 mm 0,0 UV-I 0 W/m 5,5 C 2,9 C 19,3 km/h (3 Bft) 100,00 %
12.01.2023 01:02 6,7 C 5,0 C 5,6 C 92 % 1020,7 hPa 0,0 l/m 13,3 km/h (3 Bft) W-SW 239 0 min 0,000 mm 0,0 UV-I 0 W/m 5,5 C 2,0 C 19,3 km/h (3 Bft) 98,11 %
12.01.2023 01:04 6,7 C 5,0 C 5,6 C 92 % 1020,8 hPa 0,0 l/m 12,2 km/h (2 Bft) W-SW 246 0 min 0,000 mm 0,0 UV-I 0 W/m 5,5 C 2,6 C 17,7 km/h (3 Bft) 100,00 %
12.01.2023 01:06 6,7 C 5,0 C 5,6 C 92 % 1020,8 hPa 0,0 l/m 14,2 km/h (3 Bft) W-SW 246 0 min 0,000 mm 0,0 UV-I 0 W/m 5,5 C 1,5 C 22,5 km/h (4 Bft) 100,00 %
12.01.2023 01:08 6,8 C 5,0 C 5,6 C 91 % 1020,8 hPa 0,0 l/m 14,9 km/h (3 Bft) W 261 0 min 0,000 mm 0,0 UV-I 0 W/m 5,4 C 1,3 C 20,9 km/h (4 Bft) 98,00 %
12.01.2023 01:10 6,8 C 5,0 C 5,6 C 91 % 1020,8 hPa 0,0 l/m 13,5 km/h (3 Bft) W-SW 253 0 min 0,000 mm 0,0 UV-I 0 W/m 5,4 C 2,0 C 20,9 km/h (4 Bft) 100,00 %
12.01.2023 01:12 6,8 C 5,0 C 5,6 C 91 % 1020,7 hPa 0,0 l/m 14,8 km/h (3 Bft) W-SW 246 0 min 0,000 mm 0,0 UV-I 0 W/m 5,4 C 1,4 C 25,7 km/h (4 Bft) 100,00 %
12.01.2023 01:14 6,8 C 5,0 C 5,6 C 91 % 1020,7 hPa 0,0 l/m 14,1 km/h (3 Bft) SW 226 0 min 0,000 mm 0,0 UV-I 0 W/m 5,4 C 1,7 C 20,9 km/h (4 Bft) 100,00 %
12.01.2023 01:16 6,8 C 5,0 C 5,6 C 91 % 1020,7 hPa 0,0 l/m 12,7 km/h (3 Bft) SW 223 0 min 0,000 mm 0,0 UV-I 0 W/m 5,4 C 2,4 C 20,9 km/h (4 Bft) 97,87 %
12.01.2023 01:18 6,8 C 5,0 C 5,6 C 91 % 1020,7 hPa 0,0 l/m 16,3 km/h (3 Bft) W-SW 252 0 min 0,000 mm 0,0 UV-I 0 W/m 5,4 C 0,7 C 24,1 km/h (4 Bft) 100,00 %
12.01.2023 01:20 6,8 C 5,0 C 5,6 C 91 % 1020,7 hPa 0,0 l/m 16,6 km/h (3 Bft) W-SW 238 0 min 0,000 mm 0,0 UV-I 0 W/m 5,4 C 0,5 C 22,5 km/h (4 Bft) 100,00 %
12.01.2023 01:22 6,8 C 5,0 C 5,6 C 91 % 1020,7 hPa 0,0 l/m 16,1 km/h (3 Bft) W-SW 246 0 min 0,000 mm 0,0 UV-I 0 W/m 5,4 C 0,7 C 24,1 km/h (4 Bft) 100,00 %
12.01.2023 01:24 6,8 C 5,0 C 5,6 C 91 % 1020,8 hPa 0,0 l/m 14,6 km/h (3 Bft) W-SW 249 0 min 0,000 mm 0,0 UV-I 0 W/m 5,4 C 1,5 C 20,9 km/h (4 Bft) 100,00 %
12.01.2023 01:26 6,8 C 5,0 C 5,6 C 91 % 1020,8 hPa 0,0 l/m 13,5 km/h (3 Bft) SW 221 0 min 0,000 mm 0,0 UV-I 0 W/m 5,4 C 2,0 C 22,5 km/h (4 Bft) 100,00 %
12.01.2023 01:28 6,8 C 5,0 C 5,6 C 91 % 1020,8 hPa 0,0 l/m 11,0 km/h (2 Bft) S-SW 205 0 min 0,000 mm 0,0 UV-I 0 W/m 5,4 C 3,4 C 17,7 km/h (3 Bft) 100,00 %
12.01.2023 01:30 6,8 C 5,0 C 5,6 C 91 % 1020,8 hPa 0,0 l/m 12,8 km/h (3 Bft) W-SW 238 0 min 0,000 mm 0,0 UV-I 0 W/m 5,4 C 2,4 C 17,7 km/h (3 Bft) 100,00 %
12.01.2023 01:32 6,8 C 5,0 C 5,6 C 91 % 1020,8 hPa 0,0 l/m 11,2 km/h (2 Bft) W-SW 244 0 min 0,000 mm 0,0 UV-I 0 W/m 5,4 C 3,3 C 16,1 km/h (3 Bft) 98,31 %
12.01.2023 01:34 6,8 C 5,0 C 5,6 C 91 % 1020,8 hPa 0,0 l/m 11,4 km/h (2 Bft) W 265 0 min 0,000 mm 0,0 UV-I 0 W/m 5,4 C 3,2 C 17,7 km/h (3 Bft) 96,15 %
12.01.2023 01:36 6,7 C 5,0 C 5,6 C 91 % 1020,9 hPa 0,0 l/m 14,6 km/h (3 Bft) W 259 0 min 0,000 mm 0,0 UV-I 0 W/m 5,3 C 1,3 C 20,9 km/h (4 Bft) 93,55 %
12.01.2023 01:38 6,7 C 5,0 C 5,6 C 91 % 1020,8 hPa 0,0 l/m 14,8 km/h (3 Bft) SW 234 0 min 0,000 mm 0,0 UV-I 0 W/m 5,3 C 1,2 C 24,1 km/h (4 Bft) 100,00 %
12.01.2023 01:40 6,7 C 5,0 C 5,6 C 91 % 1020,8 hPa 0,0 l/m 13,9 km/h (3 Bft) S-SW 211 0 min 0,000 mm 0,0 UV-I 0 W/m 5,3 C 1,7 C 20,9 km/h (4 Bft) 96,61 %
12.01.2023 01:42 6,8 C 5,0 C 5,6 C 91 % 1020,8 hPa 0,0 l/m 13,2 km/h (3 Bft) SW 219 0 min 0,000 mm 0,0 UV-I 0 W/m 5,4 C 2,2 C 19,3 km/h (3 Bft) 95,45 %
12.01.2023 01:44 6,7 C 5,0 C 5,6 C 91 % 1020,9 hPa 0,0 l/m 13,7 km/h (3 Bft) W-SW 239 0 min 0,000 mm 0,0 UV-I 0 W/m 5,3 C 1,8 C 22,5 km/h (4 Bft) 97,56 %
12.01.2023 01:46 6,7 C 5,0 C 5,6 C 91 % 1020,9 hPa 0,0 l/m 13,5 km/h (3 Bft) W-SW 254 0 min 0,000 mm 0,0 UV-I 0 W/m 5,3 C 1,9 C 20,9 km/h (4 Bft) 98,00 %
12.01.2023 01:48 6,7 C 5,0 C 5,6 C 92 % 1021,0 hPa 0,0 l/m 15,0 km/h (3 Bft) SW 236 0 min 0,000 mm 0,0 UV-I 0 W/m 5,5 C 1,1 C 22,5 km/h (4 Bft) 98,11 %
12.01.2023 01:50 6,7 C 5,0 C 5,6 C 92 % 1020,9 hPa 0,0 l/m 15,1 km/h (3 Bft) W-SW 240 0 min 0,000 mm 0,0 UV-I 0 W/m 5,5 C 1,1 C 22,5 km/h (4 Bft) 97,37 %
12.01.2023 01:52 6,7 C 5,0 C 5,6 C 92 % 1021,0 hPa 0,0 l/m 12,6 km/h (3 Bft) W-SW 248 0 min 0,000 mm 0,0 UV-I 0 W/m 5,5 C 2,4 C 20,9 km/h (4 Bft) 97,87 %
12.01.2023 01:54 6,7 C 5,0 C 5,6 C 92 % 1021,0 hPa 0,0 l/m 15,3 km/h (3 Bft) W-SW 257 0 min 0,000 mm 0,0 UV-I 0 W/m 5,5 C 1,0 C 24,1 km/h (4 Bft) 98,00 %
12.01.2023 01:56 6,7 C 5,0 C 5,6 C 92 % 1021,1 hPa 0,0 l/m 15,8 km/h (3 Bft) SW 235 0 min 0,000 mm 0,0 UV-I 0 W/m 5,5 C 0,8 C 24,1 km/h (4 Bft) 97,56 %
12.01.2023 01:58 6,7 C 5,0 C 5,6 C 92 % 1021,1 hPa 0,0 l/m 15,5 km/h (3 Bft) SW 228 0 min 0,000 mm 0,0 UV-I 0 W/m 5,5 C 0,9 C 19,3 km/h (3 Bft) 96,43 %
12.01.2023 02:00 6,7 C 5,0 C 5,6 C 92 % 1021,2 hPa 0,0 l/m 14,2 km/h (3 Bft) W 262 0 min 0,000 mm 0,0 UV-I 0 W/m 5,5 C 1,5 C 20,9 km/h (4 Bft) 100,00 %
12.01.2023 02:02 6,6 C 5,0 C 5,6 C 92 % 1021,3 hPa 0,0 l/m 17,8 km/h (3 Bft) W-NW 300 0 min 0,025 mm 0,0 UV-I 0 W/m 5,4 C -0,2 C 22,5 km/h (4 Bft) 97,56 %
12.01.2023 02:04 6,6 C 5,0 C 5,6 C 93 % 1021,4 hPa 0,0 l/m 17,4 km/h (3 Bft) W 281 0 min 0,000 mm 0,0 UV-I 0 W/m 5,6 C -0,1 C 25,7 km/h (4 Bft) 98,18 %
12.01.2023 02:06 6,6 C 5,0 C 5,6 C 93 % 1021,3 hPa 0,0 l/m 17,2 km/h (3 Bft) W-NW 282 0 min 0,000 mm 0,0 UV-I 0 W/m 5,6 C 0,0 C 25,7 km/h (4 Bft) 96,00 %
12.01.2023 02:08 6,6 C 5,0 C 5,6 C 93 % 1021,4 hPa 0,0 l/m 17,1 km/h (3 Bft) W-NW 284 0 min 0,000 mm 0,0 UV-I 0 W/m 5,6 C 0,1 C 29,0 km/h (5 Bft) 97,56 %
12.01.2023 02:10 6,5 C 5,0 C 5,6 C 93 % 1021,4 hPa 0,0 l/m 16,3 km/h (3 Bft) W 273 0 min 0,000 mm 0,0 UV-I 0 W/m 5,5 C 0,3 C 22,5 km/h (4 Bft) 97,56 %
12.01.2023 02:12 6,4 C 5,0 C 5,6 C 93 % 1021,3 hPa 0,0 l/m 16,0 km/h (3 Bft) W 264 0 min 0,000 mm 0,0 UV-I 0 W/m 5,4 C 0,3 C 22,5 km/h (4 Bft) 97,73 %
12.01.2023 02:14 6,4 C 5,0 C 5,6 C 93 % 1021,3 hPa 0,0 l/m 12,9 km/h (3 Bft) W 277 0 min 0,000 mm 0,0 UV-I 0 W/m 5,4 C 1,9 C 19,3 km/h (3 Bft) 94,00 %
12.01.2023 02:16 6,3 C 5,0 C 5,0 C 93 % 1021,4 hPa 0,0 l/m 14,7 km/h (3 Bft) W-NW 283 0 min 0,000 mm 0,0 UV-I 0 W/m 5,3 C 0,8 C 20,9 km/h (4 Bft) 95,24 %
12.01.2023 02:18 6,3 C 5,0 C 5,0 C 93 % 1021,4 hPa 0,0 l/m 14,6 km/h (3 Bft) SW 234 0 min 0,000 mm 0,0 UV-I 0 W/m 5,3 C 0,8 C 25,7 km/h (4 Bft) 96,36 %
12.01.2023 02:20 6,3 C 5,0 C 5,6 C 93 % 1021,4 hPa 0,0 l/m 16,6 km/h (3 Bft) W 260 0 min 0,000 mm 0,0 UV-I 0 W/m 5,3 C -0,1 C 24,1 km/h (4 Bft) 95,74 %
12.01.2023 02:22 6,4 C 5,0 C 5,6 C 93 % 1021,4 hPa 0,0 l/m 16,0 km/h (3 Bft) S-SW 211 0 min 0,000 mm 0,0 UV-I 0 W/m 5,4 C 0,3 C 25,7 km/h (4 Bft) 95,74 %
12.01.2023 02:24 6,3 C 5,0 C 5,6 C 93 % 1021,4 hPa 0,2 l/m 16,6 km/h (3 Bft) W-SW 246 0 min 0,000 mm 0,0 UV-I 0 W/m 5,3 C -0,1 C 22,5 km/h (4 Bft) 96,00 %
12.01.2023 02:26 6,3 C 5,0 C 5,6 C 93 % 1021,3 hPa 0,0 l/m 16,0 km/h (3 Bft) W-NW 285 0 min 0,000 mm 0,0 UV-I 0 W/m 5,3 C 0,2 C 24,1 km/h (4 Bft) 97,87 %
12.01.2023 02:28 6,3 C 5,0 C 5,0 C 93 % 1021,3 hPa 0,0 l/m 17,5 km/h (3 Bft) W 267 0 min 0,000 mm 0,0 UV-I 0 W/m 5,3 C -0,5 C 25,7 km/h (4 Bft) 97,62 %
12.01.2023 02:30 6,3 C 5,0 C 5,0 C 93 % 1021,4 hPa 0,0 l/m 18,4 km/h (3 Bft) W-SW 242 0 min 0,000 mm 0,0 UV-I 0 W/m 5,3 C -0,9 C 27,4 km/h (4 Bft) 97,96 %
12.01.2023 02:32 6,3 C 5,0 C 5,0 C 92 % 1021,4 hPa 0,0 l/m 15,6 km/h (3 Bft) W-SW 254 0 min 0,000 mm 0,0 UV-I 0 W/m 5,1 C 0,4 C 22,5 km/h (4 Bft) 97,87 %
12.01.2023 02:34 6,3 C 5,0 C 5,0 C 92 % 1021,4 hPa 0,0 l/m 13,5 km/h (3 Bft) SW 221 0 min 0,000 mm 0,0 UV-I 0 W/m 5,1 C 1,4 C 17,7 km/h (3 Bft) 97,92 %
12.01.2023 02:36 6,3 C 5,0 C 5,0 C 92 % 1021,4 hPa 0,0 l/m 13,5 km/h (3 Bft) SW 234 0 min 0,000 mm 0,0 UV-I 0 W/m 5,1 C 1,4 C 20,9 km/h (4 Bft) 95,92 %
12.01.2023 02:38 6,3 C 5,0 C 5,0 C 92 % 1021,4 hPa 0,0 l/m 17,8 km/h (3 Bft) W-SW 246 0 min 0,000 mm 0,0 UV-I 0 W/m 5,1 C -0,6 C 22,5 km/h (4 Bft) 97,87 %
12.01.2023 02:40 6,3 C 5,0 C 5,0 C 92 % 1021,5 hPa 0,0 l/m 14,9 km/h (3 Bft) W 262 0 min 0,000 mm 0,0 UV-I 0 W/m 5,1 C 0,7 C 22,5 km/h (4 Bft) 97,62 %
12.01.2023 02:42 6,3 C 5,0 C 5,0 C 92 % 1021,5 hPa 0,0 l/m 11,9 km/h (2 Bft) SW 220 0 min 0,000 mm 0,0 UV-I 0 W/m 5,1 C 2,3 C 20,9 km/h (4 Bft) 100,00 %
12.01.2023 02:44 6,3 C 5,0 C 5,0 C 92 % 1021,5 hPa 0,0 l/m 11,6 km/h (2 Bft) W-NW 282 0 min 0,000 mm 0,0 UV-I 0 W/m 5,1 C 2,5 C 19,3 km/h (3 Bft) 97,96 %
12.01.2023 02:46 6,2 C 5,0 C 5,0 C 92 % 1021,5 hPa 0,0 l/m 14,0 km/h (3 Bft) W-SW 250 0 min 0,000 mm 0,0 UV-I 0 W/m 5,0 C 1,0 C 20,9 km/h (4 Bft) 100,00 %
12.01.2023 02:48 6,3 C 5,0 C 5,0 C 92 % 1021,6 hPa 0,0 l/m 12,7 km/h (3 Bft) W-SW 253 0 min 0,000 mm 0,0 UV-I 0 W/m 5,1 C 1,9 C 19,3 km/h (3 Bft) 97,92 %
12.01.2023 02:50 6,3 C 5,0 C 5,0 C 92 % 1021,6 hPa 0,0 l/m 13,1 km/h (3 Bft) W-SW 237 0 min 0,000 mm 0,0 UV-I 0 W/m 5,1 C 1,6 C 19,3 km/h (3 Bft) 97,87 %
12.01.2023 02:52 6,3 C 5,0 C 5,0 C 92 % 1021,6 hPa 0,0 l/m 11,6 km/h (2 Bft) W-SW 238 0 min 0,000 mm 0,0 UV-I 0 W/m 5,1 C 2,5 C 20,9 km/h (4 Bft) 97,44 %
12.01.2023 02:54 6,3 C 5,0 C 5,0 C 92 % 1021,6 hPa 0,0 l/m 12,6 km/h (3 Bft) W-SW 245 0 min 0,000 mm 0,0 UV-I 0 W/m 5,1 C 1,9 C 19,3 km/h (3 Bft) 100,00 %
12.01.2023 02:56 6,3 C 5,0 C 5,0 C 92 % 1021,7 hPa 0,0 l/m 12,0 km/h (2 Bft) SW 219 0 min 0,000 mm 0,0 UV-I 0 W/m 5,1 C 2,3 C 16,1 km/h (3 Bft) 96,55 %
12.01.2023 02:58 6,3 C 5,0 C 5,0 C 92 % 1021,6 hPa 0,0 l/m 10,8 km/h (2 Bft) S-SW 209 0 min 0,000 mm 0,0 UV-I 0 W/m 5,1 C 3,0 C 17,7 km/h (3 Bft) 96,43 %
12.01.2023 03:00 6,2 C 5,0 C 5,0 C 92 % 1021,6 hPa 0,0 l/m 13,5 km/h (3 Bft) W-SW 247 0 min 0,000 mm 0,0 UV-I 0 W/m 5,0 C 1,3 C 19,3 km/h (3 Bft) 94,34 %
12.01.2023 03:02 6,2 C 5,0 C 5,0 C 92 % 1021,7 hPa 0,0 l/m 15,0 km/h (3 Bft) W-SW 248 0 min 0,000 mm 0,0 UV-I 0 W/m 5,0 C 0,5 C 19,3 km/h (3 Bft) 98,00 %
12.01.2023 03:04 6,2 C 5,0 C 5,0 C 92 % 1021,8 hPa 0,0 l/m 17,7 km/h (3 Bft) W 269 0 min 0,000 mm 0,0 UV-I 0 W/m 5,0 C -0,7 C 27,4 km/h (4 Bft) 97,96 %
12.01.2023 03:06 6,2 C 5,0 C 5,0 C 92 % 1021,7 hPa 0,0 l/m 16,3 km/h (3 Bft) SW 234 0 min 0,000 mm 0,0 UV-I 0 W/m 5,0 C -0,1 C 27,4 km/h (4 Bft) 97,56 %
12.01.2023 03:08 6,3 C 5,0 C 5,0 C 92 % 1021,7 hPa 0,0 l/m 19,0 km/h (3 Bft) SW 227 0 min 0,000 mm 0,0 UV-I 0 W/m 5,1 C -1,1 C 25,7 km/h (4 Bft) 96,00 %
12.01.2023 03:10 6,3 C 5,0 C 5,0 C 92 % 1021,8 hPa 0,0 l/m 18,8 km/h (3 Bft) SW 225 0 min 0,000 mm 0,0 UV-I 0 W/m 5,1 C -1,0 C 24,1 km/h (4 Bft) 92,68 %
12.01.2023 03:12 6,3 C 5,0 C 5,0 C 92 % 1021,7 hPa 0,0 l/m 18,4 km/h (3 Bft) SW 225 0 min 0,000 mm 0,0 UV-I 0 W/m 5,1 C -0,9 C 30,6 km/h (5 Bft) 98,21 %
12.01.2023 03:14 6,3 C 5,0 C 5,0 C 92 % 1021,6 hPa 0,0 l/m 20,8 km/h (4 Bft) W-SW 239 0 min 0,000 mm 0,0 UV-I 0 W/m 5,1 C -1,8 C 25,7 km/h (4 Bft) 92,11 %
12.01.2023 03:16 6,3 C 5,0 C 5,0 C 92 % 1021,6 hPa 0,2 l/m 18,4 km/h (3 Bft) W 275 0 min 0,000 mm 0,0 UV-I 0 W/m 5,1 C -0,9 C 29,0 km/h (5 Bft) 98,21 %
12.01.2023 03:18 6,3 C 5,0 C 5,0 C 92 % 1021,7 hPa 0,0 l/m 21,3 km/h (4 Bft) S-SW 209 0 min 0,000 mm 0,0 UV-I 0 W/m 5,1 C -2,0 C 32,2 km/h (5 Bft) 100,00 %
12.01.2023 03:20 6,3 C 5,0 C 5,0 C 91 % 1021,7 hPa 0,0 l/m 21,4 km/h (4 Bft) W-SW 249 0 min 0,000 mm 0,0 UV-I 0 W/m 4,9 C -2,0 C 33,8 km/h (5 Bft) 100,00 %
12.01.2023 03:22 6,3 C 5,0 C 5,0 C 91 % 1021,6 hPa 0,0 l/m 19,0 km/h (3 Bft) W-SW 244 0 min 0,000 mm 0,0 UV-I 0 W/m 4,9 C -1,1 C 27,4 km/h (4 Bft) 100,00 %
12.01.2023 03:24 6,3 C 5,0 C 5,0 C 91 % 1021,7 hPa 0,0 l/m 20,2 km/h (4 Bft) SW 222 0 min 0,000 mm 0,0 UV-I 0 W/m 4,9 C -1,6 C 30,6 km/h (5 Bft) 100,00 %
12.01.2023 03:26 6,3 C 5,0 C 5,0 C 91 % 1021,7 hPa 0,0 l/m 19,7 km/h (3 Bft) SW 220 0 min 0,000 mm 0,0 UV-I 0 W/m 4,9 C -1,4 C 29,0 km/h (5 Bft) 100,00 %
12.01.2023 03:28 6,3 C 5,0 C 5,0 C 91 % 1021,7 hPa 0,0 l/m 17,1 km/h (3 Bft) W 273 0 min 0,000 mm 0,0 UV-I 0 W/m 4,9 C -0,3 C 29,0 km/h (5 Bft) 95,74 %
12.01.2023 03:30 6,2 C 5,0 C 5,0 C 90 % 1021,7 hPa 0,0 l/m 15,6 km/h (3 Bft) W-SW 250 0 min 0,000 mm 0,0 UV-I 0 W/m 4,7 C 0,2 C 25,7 km/h (4 Bft) 98,00 %
12.01.2023 03:32 6,2 C 5,0 C 5,0 C 91 % 1021,8 hPa 0,0 l/m 21,0 km/h (4 Bft) W-SW 240 0 min 0,000 mm 0,0 UV-I 0 W/m 4,8 C -2,0 C 35,4 km/h (5 Bft) 98,00 %
12.01.2023 03:34 6,2 C 5,0 C 5,0 C 91 % 1021,7 hPa 0,0 l/m 19,6 km/h (3 Bft) W 259 0 min 0,000 mm 0,0 UV-I 0 W/m 4,8 C -1,5 C 30,6 km/h (5 Bft) 96,00 %
12.01.2023 03:36 6,2 C 5,0 C 5,0 C 90 % 1021,7 hPa 0,0 l/m 20,7 km/h (4 Bft) W-SW 257 0 min 0,000 mm 0,0 UV-I 0 W/m 4,7 C -1,9 C 30,6 km/h (5 Bft) 96,15 %
12.01.2023 03:38 6,2 C 5,0 C 5,0 C 90 % 1021,8 hPa 0,0 l/m 17,3 km/h (3 Bft) W 259 0 min 0,000 mm 0,0 UV-I 0 W/m 4,7 C -0,5 C 25,7 km/h (4 Bft) 98,46 %
12.01.2023 03:40 6,2 C 5,0 C 5,0 C 90 % 1021,7 hPa 0,0 l/m 20,4 km/h (4 Bft) W-SW 247 0 min 0,000 mm 0,0 UV-I 0 W/m 4,7 C -1,8 C 32,2 km/h (5 Bft) 97,56 %
12.01.2023 03:42 6,2 C 5,0 C 5,0 C 90 % 1021,8 hPa 0,0 l/m 18,7 km/h (3 Bft) SW 234 0 min 0,000 mm 0,0 UV-I 0 W/m 4,7 C -1,1 C 27,4 km/h (4 Bft) 98,11 %
12.01.2023 03:44 6,2 C 5,0 C 5,0 C 90 % 1021,8 hPa 0,0 l/m 15,5 km/h (3 Bft) W 272 0 min 0,000 mm 0,0 UV-I 0 W/m 4,7 C 0,3 C 20,9 km/h (4 Bft) 96,00 %
12.01.2023 03:46 6,2 C 5,0 C 5,0 C 90 % 1021,8 hPa 0,0 l/m 14,4 km/h (3 Bft) W 261 0 min 0,000 mm 0,0 UV-I 0 W/m 4,7 C 0,8 C 22,5 km/h (4 Bft) 95,12 %
12.01.2023 03:48 6,2 C 5,0 C 5,0 C 90 % 1021,9 hPa 0,0 l/m 14,6 km/h (3 Bft) W-SW 246 0 min 0,000 mm 0,0 UV-I 0 W/m 4,7 C 0,7 C 24,1 km/h (4 Bft) 97,56 %
12.01.2023 03:50 6,1 C 5,0 C 4,4 C 90 % 1021,9 hPa 0,0 l/m 14,5 km/h (3 Bft) W-SW 243 0 min 0,000 mm 0,0 UV-I 0 W/m 4,6 C 0,7 C 24,1 km/h (4 Bft) 98,00 %
12.01.2023 03:52 6,1 C 5,0 C 4,4 C 90 % 1021,9 hPa 0,0 l/m 12,3 km/h (3 Bft) W 279 0 min 0,000 mm 0,0 UV-I 0 W/m 4,6 C 1,8 C 17,7 km/h (3 Bft) 98,11 %
12.01.2023 03:54 5,9 C 5,0 C 4,4 C 90 % 1021,8 hPa 0,0 l/m 14,4 km/h (3 Bft) W 271 0 min 0,000 mm 0,0 UV-I 0 W/m 4,4 C 0,5 C 19,3 km/h (3 Bft) 97,37 %
12.01.2023 03:56 5,9 C 5,0 C 3,9 C 90 % 1021,9 hPa 0,0 l/m 14,4 km/h (3 Bft) W-SW 255 0 min 0,000 mm 0,0 UV-I 0 W/m 4,4 C 0,5 C 19,3 km/h (3 Bft) 98,00 %
12.01.2023 03:58 5,8 C 5,0 C 3,9 C 90 % 1021,9 hPa 0,0 l/m 12,2 km/h (2 Bft) W-SW 246 0 min 0,000 mm 0,0 UV-I 0 W/m 4,3 C 1,6 C 17,7 km/h (3 Bft) 98,00 %
12.01.2023 04:00 5,7 C 5,0 C 3,9 C 91 % 1021,9 hPa 0,0 l/m 11,3 km/h (2 Bft) W-SW 248 0 min 0,000 mm 0,0 UV-I 0 W/m 4,3 C 2,0 C 16,1 km/h (3 Bft) 97,73 %
12.01.2023 04:02 5,7 C 5,0 C 3,9 C 91 % 1021,9 hPa 0,0 l/m 12,4 km/h (3 Bft) W-SW 256 0 min 0,000 mm 0,0 UV-I 0 W/m 4,3 C 1,3 C 16,1 km/h (3 Bft) 100,00 %
12.01.2023 04:04 5,6 C 5,0 C 3,9 C 91 % 1021,9 hPa 0,0 l/m 12,0 km/h (2 Bft) W-SW 242 0 min 0,000 mm 0,0 UV-I 0 W/m 4,2 C 1,4 C 17,7 km/h (3 Bft) 97,96 %
12.01.2023 04:06 5,6 C 5,0 C 3,9 C 91 % 1021,8 hPa 0,0 l/m 13,4 km/h (3 Bft) W 259 0 min 0,000 mm 0,0 UV-I 0 W/m 4,2 C 0,6 C 19,3 km/h (3 Bft) 97,73 %
12.01.2023 04:08 5,5 C 5,0 C 3,9 C 92 % 1021,8 hPa 0,0 l/m 14,1 km/h (3 Bft) W-SW 249 0 min 0,000 mm 0,0 UV-I 0 W/m 4,3 C 0,1 C 19,3 km/h (3 Bft) 95,45 %
12.01.2023 04:10 5,4 C 5,0 C 3,9 C 92 % 1021,8 hPa 0,0 l/m 15,0 km/h (3 Bft) SW 236 0 min 0,000 mm 0,0 UV-I 0 W/m 4,2 C -0,4 C 20,9 km/h (4 Bft) 98,00 %
12.01.2023 04:12 5,4 C 5,0 C 3,3 C 92 % 1021,8 hPa 0,0 l/m 13,7 km/h (3 Bft) SW 235 0 min 0,000 mm 0,0 UV-I 0 W/m 4,2 C 0,2 C 19,3 km/h (3 Bft) 95,74 %
12.01.2023 04:14 5,3 C 5,0 C 3,3 C 92 % 1021,8 hPa 0,0 l/m 14,6 km/h (3 Bft) W-SW 249 0 min 0,000 mm 0,0 UV-I 0 W/m 4,1 C -0,4 C 19,3 km/h (3 Bft) 96,00 %
12.01.2023 04:16 5,2 C 5,0 C 3,3 C 92 % 1021,8 hPa 0,0 l/m 14,2 km/h (3 Bft) W-SW 252 0 min 0,000 mm 0,0 UV-I 0 W/m 4,0 C -0,3 C 19,3 km/h (3 Bft) 95,74 %
12.01.2023 04:18 5,2 C 5,0 C 3,3 C 92 % 1021,7 hPa 0,0 l/m 14,7 km/h (3 Bft) W-SW 239 0 min 0,000 mm 0,0 UV-I 0 W/m 4,0 C -0,5 C 20,9 km/h (4 Bft) 92,11 %
12.01.2023 04:20 5,2 C 5,0 C 3,3 C 93 % 1021,8 hPa 0,0 l/m 17,1 km/h (3 Bft) SW 236 0 min 0,000 mm 0,0 UV-I 0 W/m 4,2 C -1,7 C 22,5 km/h (4 Bft) 89,83 %
12.01.2023 04:22 5,2 C 5,0 C 3,3 C 93 % 1021,7 hPa 0,0 l/m 17,0 km/h (3 Bft) W 259 0 min 0,000 mm 0,0 UV-I 0 W/m 4,2 C -1,6 C 25,7 km/h (4 Bft) 91,49 %
12.01.2023 04:24 5,2 C 5,0 C 3,3 C 93 % 1021,7 hPa 0,0 l/m 15,3 km/h (3 Bft) SW 229 0 min 0,000 mm 0,0 UV-I 0 W/m 4,2 C -0,8 C 24,1 km/h (4 Bft) 93,62 %
12.01.2023 04:26 5,2 C 5,0 C 3,9 C 93 % 1021,7 hPa 0,0 l/m 20,4 km/h (4 Bft) W-SW 257 0 min 0,000 mm 0,0 UV-I 0 W/m 4,2 C -3,1 C 27,4 km/h (4 Bft) 92,68 %
12.01.2023 04:28 5,3 C 5,0 C 3,9 C 93 % 1021,7 hPa 0,0 l/m 16,7 km/h (3 Bft) W 261 0 min 0,000 mm 0,0 UV-I 0 W/m 4,3 C -1,4 C 25,7 km/h (4 Bft) 89,36 %
12.01.2023 04:30 5,3 C 5,0 C 3,9 C 93 % 1021,7 hPa 0,0 l/m 19,7 km/h (3 Bft) W-SW 246 0 min 0,000 mm 0,0 UV-I 0 W/m 4,3 C -2,7 C 24,1 km/h (4 Bft) 92,45 %
12.01.2023 04:32 5,3 C 5,0 C 3,9 C 93 % 1021,7 hPa 0,0 l/m 19,8 km/h (3 Bft) W-SW 257 0 min 0,000 mm 0,0 UV-I 0 W/m 4,3 C -2,7 C 24,1 km/h (4 Bft) 95,12 %
12.01.2023 04:34 5,3 C 5,0 C 3,9 C 93 % 1021,7 hPa 0,0 l/m 17,0 km/h (3 Bft) W-SW 238 0 min 0,000 mm 0,0 UV-I 0 W/m 4,3 C -1,5 C 25,7 km/h (4 Bft) 88,10 %
12.01.2023 04:36 5,3 C 5,0 C 3,9 C 93 % 1021,7 hPa 0,0 l/m 18,9 km/h (3 Bft) W 264 0 min 0,000 mm 0,0 UV-I 0 W/m 4,3 C -2,3 C 30,6 km/h (5 Bft) 90,38 %
12.01.2023 04:38 5,4 C 5,0 C 3,9 C 93 % 1021,7 hPa 0,0 l/m 18,2 km/h (3 Bft) W-SW 242 0 min 0,000 mm 0,0 UV-I 0 W/m 4,4 C -1,9 C 24,1 km/h (4 Bft) 98,00 %
12.01.2023 04:40 5,4 C 5,0 C 3,9 C 92 % 1021,7 hPa 0,0 l/m 13,8 km/h (3 Bft) W-SW 240 0 min 0,000 mm 0,0 UV-I 0 W/m 4,2 C 0,2 C 20,9 km/h (4 Bft) 94,87 %
12.01.2023 04:42 5,4 C 5,0 C 3,9 C 92 % 1021,7 hPa 0,0 l/m 15,6 km/h (3 Bft) W 261 0 min 0,000 mm 0,0 UV-I 0 W/m 4,2 C -0,7 C 22,5 km/h (4 Bft) 98,00 %
12.01.2023 04:44 5,4 C 5,0 C 3,9 C 92 % 1021,7 hPa 0,0 l/m 16,8 km/h (3 Bft) SW 223 0 min 0,000 mm 0,0 UV-I 0 W/m 4,2 C -1,3 C 25,7 km/h (4 Bft) 98,08 %
12.01.2023 04:46 5,4 C 5,0 C 3,9 C 92 % 1021,7 hPa 0,0 l/m 18,4 km/h (3 Bft) SW 231 0 min 0,000 mm 0,0 UV-I 0 W/m 4,2 C -2,0 C 24,1 km/h (4 Bft) 97,62 %
12.01.2023 04:48 5,5 C 5,0 C 3,9 C 92 % 1021,7 hPa 0,0 l/m 20,6 km/h (4 Bft) W-SW 238 0 min 0,000 mm 0,0 UV-I 0 W/m 4,3 C -2,8 C 30,6 km/h (5 Bft) 95,45 %
12.01.2023 04:50 5,5 C 5,0 C 3,9 C 92 % 1021,8 hPa 0,0 l/m 19,6 km/h (3 Bft) W-SW 243 0 min 0,000 mm 0,0 UV-I 0 W/m 4,3 C -2,4 C 25,7 km/h (4 Bft) 98,11 %
12.01.2023 04:52 5,4 C 5,0 C 3,9 C 92 % 1021,8 hPa 0,0 l/m 15,7 km/h (3 Bft) W 263 0 min 0,000 mm 0,0 UV-I 0 W/m 4,2 C -0,8 C 24,1 km/h (4 Bft) 100,00 %
12.01.2023 04:54 5,5 C 5,0 C 3,9 C 92 % 1021,7 hPa 0,0 l/m 17,0 km/h (3 Bft) W-SW 238 0 min 0,000 mm 0,0 UV-I 0 W/m 4,3 C -1,3 C 24,1 km/h (4 Bft) 100,00 %
12.01.2023 04:56 5,4 C 5,0 C 3,9 C 92 % 1021,7 hPa 0,0 l/m 14,2 km/h (3 Bft) W 265 0 min 0,000 mm 0,0 UV-I 0 W/m 4,2 C -0,0 C 19,3 km/h (3 Bft) 100,00 %
12.01.2023 04:58 5,3 C 5,0 C 3,9 C 91 % 1021,8 hPa 0,0 l/m 15,4 km/h (3 Bft) W-SW 237 0 min 0,000 mm 0,0 UV-I 0 W/m 4,0 C -0,8 C 22,5 km/h (4 Bft) 97,87 %
12.01.2023 05:00 5,3 C 5,0 C 3,9 C 91 % 1021,8 hPa 0,0 l/m 13,1 km/h (3 Bft) W-SW 252 0 min 0,026 mm 0,0 UV-I 0 W/m 4,0 C 0,5 C 17,7 km/h (3 Bft) 97,87 %
12.01.2023 05:02 5,2 C 5,0 C 3,3 C 91 % 1021,8 hPa 0,0 l/m 12,3 km/h (3 Bft) W 261 0 min 0,000 mm 0,0 UV-I 0 W/m 3,9 C 0,8 C 19,3 km/h (3 Bft) 100,00 %
12.01.2023 05:04 5,2 C 5,0 C 3,3 C 92 % 1021,9 hPa 0,0 l/m 17,0 km/h (3 Bft) W-SW 248 0 min 0,000 mm 0,0 UV-I 0 W/m 4,0 C -1,6 C 25,7 km/h (4 Bft) 100,00 %
12.01.2023 05:06 5,3 C 5,0 C 3,9 C 92 % 1021,9 hPa 0,0 l/m 17,2 km/h (3 Bft) W 266 0 min 0,000 mm 0,0 UV-I 0 W/m 4,1 C -1,6 C 24,1 km/h (4 Bft) 100,00 %
12.01.2023 05:08 5,3 C 5,0 C 3,9 C 91 % 1021,9 hPa 0,0 l/m 16,8 km/h (3 Bft) W 264 0 min 0,000 mm 0,0 UV-I 0 W/m 4,0 C -1,4 C 22,5 km/h (4 Bft) 100,00 %
12.01.2023 05:10 5,4 C 5,0 C 3,9 C 91 % 1021,9 hPa 0,0 l/m 16,3 km/h (3 Bft) W-SW 241 0 min 0,000 mm 0,0 UV-I 0 W/m 4,1 C -1,1 C 22,5 km/h (4 Bft) 100,00 %
12.01.2023 05:12 5,4 C 5,0 C 3,3 C 91 % 1021,9 hPa 0,0 l/m 16,1 km/h (3 Bft) W-SW 240 0 min 0,000 mm 0,0 UV-I 0 W/m 4,1 C -1,0 C 22,5 km/h (4 Bft) 97,87 %
12.01.2023 05:14 5,3 C 5,0 C 3,3 C 90 % 1021,9 hPa 0,0 l/m 16,4 km/h (3 Bft) SW 236 0 min 0,000 mm 0,0 UV-I 0 W/m 3,8 C -1,2 C 24,1 km/h (4 Bft) 100,00 %
12.01.2023 05:16 5,3 C 5,0 C 3,3 C 90 % 1021,8 hPa 0,0 l/m 15,5 km/h (3 Bft) W 273 0 min 0,000 mm 0,0 UV-I 0 W/m 3,8 C -0,8 C 20,9 km/h (4 Bft) 100,00 %
12.01.2023 05:18 5,2 C 5,0 C 3,3 C 90 % 1021,8 hPa 0,0 l/m 14,1 km/h (3 Bft) W-SW 250 0 min 0,000 mm 0,0 UV-I 0 W/m 3,7 C -0,2 C 20,9 km/h (4 Bft) 100,00 %
12.01.2023 05:20 5,2 C 5,0 C 3,3 C 91 % 1021,8 hPa 0,0 l/m 12,2 km/h (2 Bft) SW 232 0 min 0,000 mm 0,0 UV-I 0 W/m 3,9 C 0,9 C 20,9 km/h (4 Bft) 100,00 %
12.01.2023 05:22 5,1 C 5,0 C 3,3 C 91 % 1021,8 hPa 0,0 l/m 13,6 km/h (3 Bft) W-SW 258 0 min 0,000 mm 0,0 UV-I 0 W/m 3,8 C -0,1 C 17,7 km/h (3 Bft) 100,00 %
12.01.2023 05:24 5,1 C 5,0 C 3,3 C 91 % 1021,8 hPa 0,0 l/m 14,3 km/h (3 Bft) SW 225 0 min 0,000 mm 0,0 UV-I 0 W/m 3,8 C -0,4 C 19,3 km/h (3 Bft) 100,00 %
12.01.2023 05:26 5,0 C 5,0 C 3,3 C 91 % 1021,8 hPa 0,0 l/m 12,8 km/h (3 Bft) SW 227 0 min 0,000 mm 0,0 UV-I 0 W/m 3,7 C 0,3 C 17,7 km/h (3 Bft) 97,87 %
12.01.2023 05:28 5,0 C 5,0 C 3,3 C 91 % 1021,8 hPa 0,0 l/m 9,8 km/h (2 Bft) W-SW 258 0 min 0,000 mm 0,0 UV-I 0 W/m 3,7 C 2,2 C 16,1 km/h (3 Bft) 100,00 %
12.01.2023 05:30 4,9 C 5,0 C 3,3 C 91 % 1021,8 hPa 0,0 l/m 11,1 km/h (2 Bft) W 275 0 min 0,000 mm 0,0 UV-I 0 W/m 3,6 C 1,2 C 14,5 km/h (3 Bft) 100,00 %
12.01.2023 05:32 4,9 C 5,0 C 2,8 C 91 % 1021,8 hPa 0,0 l/m 11,6 km/h (2 Bft) W-SW 241 0 min 0,000 mm 0,0 UV-I 0 W/m 3,6 C 0,9 C 17,7 km/h (3 Bft) 97,96 %
12.01.2023 05:34 4,9 C 5,0 C 2,8 C 91 % 1021,8 hPa 0,0 l/m 8,5 km/h (2 Bft) W-SW 246 0 min 0,000 mm 0,0 UV-I 0 W/m 3,6 C 3,1 C 14,5 km/h (3 Bft) 97,87 %
12.01.2023 05:36 4,8 C 5,0 C 2,8 C 91 % 1021,8 hPa 0,0 l/m 10,1 km/h (2 Bft) SW 231 0 min 0,000 mm 0,0 UV-I 0 W/m 3,5 C 1,8 C 16,1 km/h (3 Bft) 97,44 %
12.01.2023 05:38 4,8 C 5,0 C 2,8 C 91 % 1021,8 hPa 0,0 l/m 11,1 km/h (2 Bft) S-SW 192 0 min 0,000 mm 0,0 UV-I 0 W/m 3,5 C 1,1 C 17,7 km/h (3 Bft) 97,87 %
12.01.2023 05:40 4,8 C 5,0 C 2,8 C 91 % 1021,8 hPa 0,0 l/m 9,2 km/h (2 Bft) SW 231 0 min 0,000 mm 0,0 UV-I 0 W/m 3,5 C 2,4 C 16,1 km/h (3 Bft) 95,74 %
12.01.2023 05:42 4,8 C 5,0 C 2,8 C 91 % 1021,8 hPa 0,0 l/m 9,7 km/h (2 Bft) SW 234 0 min 0,000 mm 0,0 UV-I 0 W/m 3,5 C 2,1 C 16,1 km/h (3 Bft) 96,23 %
12.01.2023 05:44 4,8 C 5,0 C 2,2 C 91 % 1021,7 hPa 0,0 l/m 11,3 km/h (2 Bft) SW 233 0 min 0,000 mm 0,0 UV-I 0 W/m 3,5 C 1,0 C 16,1 km/h (3 Bft) 97,87 %
12.01.2023 05:46 4,8 C 5,0 C 2,8 C 91 % 1021,7 hPa 0,0 l/m 11,6 km/h (2 Bft) S-SW 212 0 min 0,000 mm 0,0 UV-I 0 W/m 3,5 C 0,8 C 16,1 km/h (3 Bft) 100,00 %
12.01.2023 05:48 4,9 C 5,0 C 2,8 C 91 % 1021,7 hPa 0,0 l/m 10,8 km/h (2 Bft) S 186 0 min 0,000 mm 0,0 UV-I 0 W/m 3,6 C 1,4 C 19,3 km/h (3 Bft) 93,18 %
12.01.2023 05:50 5,0 C 5,0 C 2,8 C 91 % 1021,7 hPa 0,0 l/m 11,0 km/h (2 Bft) SW 219 0 min 0,000 mm 0,0 UV-I 0 W/m 3,7 C 1,4 C 17,7 km/h (3 Bft) 96,61 %
12.01.2023 05:52 5,0 C 5,0 C 2,8 C 90 % 1021,7 hPa 0,0 l/m 8,8 km/h (2 Bft) SW 231 0 min 0,000 mm 0,0 UV-I 0 W/m 3,5 C 3,0 C 16,1 km/h (3 Bft) 97,14 %
12.01.2023 05:54 5,0 C 5,0 C 2,8 C 90 % 1021,7 hPa 0,0 l/m 9,2 km/h (2 Bft) SW 227 0 min 0,000 mm 0,0 UV-I 0 W/m 3,5 C 2,7 C 16,1 km/h (3 Bft) 96,23 %
12.01.2023 05:56 5,0 C 5,0 C 2,8 C 90 % 1021,8 hPa 0,0 l/m 10,4 km/h (2 Bft) SW 229 0 min 0,000 mm 0,0 UV-I 0 W/m 3,5 C 1,8 C 16,1 km/h (3 Bft) 98,00 %
12.01.2023 05:58 5,0 C 5,0 C 2,8 C 90 % 1021,8 hPa 0,0 l/m 10,7 km/h (2 Bft) W-SW 240 0 min 0,000 mm 0,0 UV-I 0 W/m 3,5 C 1,6 C 16,1 km/h (3 Bft) 100,00 %
12.01.2023 06:00 5,0 C 5,0 C 2,8 C 90 % 1021,7 hPa 0,0 l/m 13,1 km/h (3 Bft) W 260 0 min 0,000 mm 0,0 UV-I 0 W/m 3,5 C 0,1 C 19,3 km/h (3 Bft) 100,00 %
12.01.2023 06:02 5,0 C 5,0 C 2,8 C 90 % 1021,7 hPa 0,0 l/m 10,8 km/h (2 Bft) W-SW 237 0 min 0,000 mm 0,0 UV-I 0 W/m 3,5 C 1,5 C 16,1 km/h (3 Bft) 96,23 %
12.01.2023 06:04 4,9 C 5,0 C 2,8 C 90 % 1021,7 hPa 0,0 l/m 8,5 km/h (2 Bft) SW 234 0 min 0,000 mm 0,0 UV-I 0 W/m 3,4 C 3,1 C 12,9 km/h (3 Bft) 100,00 %
12.01.2023 06:06 4,8 C 5,0 C 2,8 C 90 % 1021,7 hPa 0,0 l/m 10,1 km/h (2 Bft) SW 231 0 min 0,000 mm 0,0 UV-I 0 W/m 3,3 C 1,8 C 16,1 km/h (3 Bft) 97,37 %
12.01.2023 06:08 4,8 C 5,0 C 2,2 C 90 % 1021,7 hPa 0,0 l/m 9,2 km/h (2 Bft) S-SW 213 0 min 0,000 mm 0,0 UV-I 0 W/m 3,3 C 2,4 C 14,5 km/h (3 Bft) 100,00 %
12.01.2023 06:10 4,8 C 5,0 C 2,2 C 90 % 1021,6 hPa 0,0 l/m 10,6 km/h (2 Bft) SW 234 0 min 0,000 mm 0,0 UV-I 0 W/m 3,3 C 1,4 C 17,7 km/h (3 Bft) 97,56 %
12.01.2023 06:12 4,7 C 5,0 C 2,8 C 90 % 1021,6 hPa 0,0 l/m 11,8 km/h (2 Bft) SW 236 0 min 0,000 mm 0,0 UV-I 0 W/m 3,2 C 0,5 C 17,7 km/h (3 Bft) 100,00 %
12.01.2023 06:14 4,7 C 5,0 C 2,8 C 90 % 1021,6 hPa 0,0 l/m 11,9 km/h (2 Bft) SW 219 0 min 0,000 mm 0,0 UV-I 0 W/m 3,2 C 0,5 C 17,7 km/h (3 Bft) 98,00 %
12.01.2023 06:16 4,7 C 5,0 C 2,8 C 90 % 1021,5 hPa 0,0 l/m 11,5 km/h (2 Bft) SW 236 0 min 0,000 mm 0,0 UV-I 0 W/m 3,2 C 0,7 C 19,3 km/h (3 Bft) 100,00 %
12.01.2023 06:18 4,7 C 5,0 C 2,8 C 90 % 1021,6 hPa 0,0 l/m 10,1 km/h (2 Bft) SW 229 0 min 0,000 mm 0,0 UV-I 0 W/m 3,2 C 1,7 C 16,1 km/h (3 Bft) 100,00 %
12.01.2023 06:20 4,7 C 5,0 C 2,8 C 90 % 1021,6 hPa 0,0 l/m 11,2 km/h (2 Bft) S 190 0 min 0,000 mm 0,0 UV-I 0 W/m 3,2 C 0,9 C 17,7 km/h (3 Bft) 100,00 %
12.01.2023 06:22 4,6 C 5,0 C 2,8 C 90 % 1021,6 hPa 0,0 l/m 8,4 km/h (2 Bft) W-SW 242 0 min 0,000 mm 0,0 UV-I 0 W/m 3,1 C 2,9 C 12,9 km/h (3 Bft) 97,37 %
12.01.2023 06:24 4,6 C 5,0 C 2,8 C 90 % 1021,6 hPa 0,0 l/m 11,3 km/h (2 Bft) S-SW 207 0 min 0,000 mm 0,0 UV-I 0 W/m 3,1 C 0,7 C 17,7 km/h (3 Bft) 98,00 %
12.01.2023 06:26 4,5 C 5,0 C 2,8 C 90 % 1021,7 hPa 0,0 l/m 9,8 km/h (2 Bft) W-SW 243 0 min 0,000 mm 0,0 UV-I 0 W/m 3,0 C 1,7 C 14,5 km/h (3 Bft) 100,00 %
12.01.2023 06:28 4,5 C 5,0 C 2,2 C 90 % 1021,7 hPa 0,0 l/m 10,5 km/h (2 Bft) SW 219 0 min 0,000 mm 0,0 UV-I 0 W/m 3,0 C 1,2 C 16,1 km/h (3 Bft) 96,00 %
12.01.2023 06:30 4,5 C 5,0 C 2,2 C 90 % 1021,7 hPa 0,0 l/m 9,4 km/h (2 Bft) SW 235 0 min 0,000 mm 0,0 UV-I 0 W/m 3,0 C 2,0 C 14,5 km/h (3 Bft) 94,74 %
12.01.2023 06:32 4,6 C 5,0 C 2,8 C 90 % 1021,7 hPa 0,0 l/m 9,4 km/h (2 Bft) SW 222 0 min 0,000 mm 0,0 UV-I 0 W/m 3,1 C 2,1 C 14,5 km/h (3 Bft) 97,87 %
12.01.2023 06:34 4,6 C 5,0 C 2,2 C 90 % 1021,7 hPa 0,0 l/m 8,8 km/h (2 Bft) SW 232 0 min 0,000 mm 0,0 UV-I 0 W/m 3,1 C 2,5 C 14,5 km/h (3 Bft) 98,00 %
12.01.2023 06:36 4,5 C 5,0 C 2,2 C 89 % 1021,8 hPa 0,0 l/m 8,8 km/h (2 Bft) SW 229 0 min 0,000 mm 0,0 UV-I 0 W/m 2,8 C 2,4 C 16,1 km/h (3 Bft) 96,00 %
12.01.2023 06:38 4,5 C 5,0 C 2,2 C 89 % 1021,8 hPa 0,0 l/m 10,7 km/h (2 Bft) SW 225 0 min 0,000 mm 0,0 UV-I 0 W/m 2,8 C 1,0 C 16,1 km/h (3 Bft) 97,56 %
12.01.2023 06:40 4,6 C 5,0 C 2,2 C 89 % 1021,8 hPa 0,0 l/m 9,9 km/h (2 Bft) SW 220 0 min 0,000 mm 0,0 UV-I 0 W/m 2,9 C 1,7 C 20,9 km/h (4 Bft) 95,74 %
12.01.2023 06:42 4,6 C 5,0 C 2,8 C 89 % 1021,8 hPa 0,0 l/m 10,4 km/h (2 Bft) SW 225 0 min 0,000 mm 0,0 UV-I 0 W/m 2,9 C 1,3 C 14,5 km/h (3 Bft) 98,00 %
12.01.2023 06:44 4,7 C 5,0 C 2,8 C 89 % 1021,8 hPa 0,0 l/m 9,9 km/h (2 Bft) S-SW 205 0 min 0,000 mm 0,0 UV-I 0 W/m 3,0 C 1,8 C 16,1 km/h (3 Bft) 97,87 %
12.01.2023 06:46 4,7 C 5,0 C 2,8 C 89 % 1021,8 hPa 0,0 l/m 10,0 km/h (2 Bft) S-SW 193 0 min 0,000 mm 0,0 UV-I 0 W/m 3,0 C 1,7 C 14,5 km/h (3 Bft) 96,00 %
12.01.2023 06:48 4,8 C 5,0 C 2,8 C 88 % 1021,8 hPa 0,0 l/m 8,1 km/h (2 Bft) SW 236 0 min 0,000 mm 0,0 UV-I 0 W/m 3,0 C 3,3 C 11,3 km/h (2 Bft) 97,87 %
12.01.2023 06:50 4,8 C 5,0 C 3,3 C 88 % 1021,8 hPa 0,0 l/m 9,1 km/h (2 Bft) S 188 0 min 0,000 mm 0,0 UV-I 0 W/m 3,0 C 2,5 C 17,7 km/h (3 Bft) 98,00 %
12.01.2023 06:52 4,9 C 5,0 C 3,3 C 88 % 1021,9 hPa 0,0 l/m 14,4 km/h (3 Bft) SW 236 0 min 0,000 mm 0,0 UV-I 0 W/m 3,1 C -0,7 C 20,9 km/h (4 Bft) 95,45 %
12.01.2023 06:54 5,0 C 5,0 C 3,3 C 88 % 1021,9 hPa 0,0 l/m 10,7 km/h (2 Bft) S-SW 209 0 min 0,000 mm 0,0 UV-I 0 W/m 3,2 C 1,6 C 14,5 km/h (3 Bft) 94,00 %
12.01.2023 06:56 5,0 C 5,0 C 3,3 C 87 % 1021,9 hPa 0,0 l/m 10,6 km/h (2 Bft) SW 227 0 min 0,000 mm 0,0 UV-I 0 W/m 3,0 C 1,7 C 17,7 km/h (3 Bft) 95,12 %
12.01.2023 06:58 5,0 C 5,0 C 3,3 C 87 % 1021,9 hPa 0,0 l/m 9,9 km/h (2 Bft) S-SW 192 0 min 0,000 mm 0,0 UV-I 0 W/m 3,0 C 2,1 C 17,7 km/h (3 Bft) 93,62 %
12.01.2023 07:00 5,1 C 5,0 C 3,3 C 87 % 1021,8 hPa 0,0 l/m 9,9 km/h (2 Bft) SW 234 0 min 0,000 mm 0,0 UV-I 0 W/m 3,1 C 2,3 C 19,3 km/h (3 Bft) 96,00 %
12.01.2023 07:02 5,1 C 5,0 C 3,3 C 87 % 1021,9 hPa 0,0 l/m 12,5 km/h (3 Bft) SW 236 0 min 0,000 mm 0,0 UV-I 0 W/m 3,1 C 0,6 C 19,3 km/h (3 Bft) 95,74 %
12.01.2023 07:04 5,2 C 5,0 C 3,3 C 87 % 1021,9 hPa 0,0 l/m 10,1 km/h (2 Bft) SW 236 0 min 0,000 mm 0,0 UV-I 0 W/m 3,2 C 2,2 C 16,1 km/h (3 Bft) 93,75 %
12.01.2023 07:06 5,2 C 5,0 C 3,9 C 87 % 1021,9 hPa 0,0 l/m 10,7 km/h (2 Bft) W-SW 251 0 min 0,000 mm 0,0 UV-I 0 W/m 3,2 C 1,8 C 19,3 km/h (3 Bft) 97,37 %
12.01.2023 07:08 5,2 C 5,0 C 3,9 C 87 % 1021,9 hPa 0,0 l/m 9,6 km/h (2 Bft) SW 221 0 min 0,000 mm 0,0 UV-I 0 W/m 3,2 C 2,6 C 16,1 km/h (3 Bft) 94,34 %
12.01.2023 07:10 5,2 C 5,0 C 3,9 C 87 % 1021,9 hPa 0,0 l/m 9,0 km/h (2 Bft) S-SW 199 0 min 0,000 mm 0,0 UV-I 0 W/m 3,2 C 3,0 C 14,5 km/h (3 Bft) 96,67 %
12.01.2023 07:12 5,3 C 5,0 C 3,9 C 87 % 1021,8 hPa 0,0 l/m 10,1 km/h (2 Bft) W-SW 248 0 min 0,000 mm 0,0 UV-I 0 W/m 3,3 C 2,3 C 17,7 km/h (3 Bft) 95,08 %
12.01.2023 07:14 5,3 C 5,0 C 3,9 C 87 % 1021,8 hPa 0,0 l/m 9,9 km/h (2 Bft) SW 232 0 min 0,000 mm 0,0 UV-I 0 W/m 3,3 C 2,5 C 14,5 km/h (3 Bft) 100,00 %
12.01.2023 07:16 5,3 C 5,0 C 3,9 C 86 % 1021,8 hPa 0,0 l/m 10,1 km/h (2 Bft) W-SW 243 0 min 0,000 mm 0,0 UV-I 0 W/m 3,2 C 2,3 C 14,5 km/h (3 Bft) 97,87 %
12.01.2023 07:18 5,3 C 5,0 C 3,9 C 86 % 1021,9 hPa 0,0 l/m 9,9 km/h (2 Bft) SW 231 0 min 0,000 mm 0,0 UV-I 0 W/m 3,2 C 2,5 C 14,5 km/h (3 Bft) 97,56 %
12.01.2023 07:20 5,3 C 5,0 C 3,3 C 86 % 1021,9 hPa 0,0 l/m 7,3 km/h (2 Bft) SW 219 0 min 0,000 mm 0,0 UV-I 0 W/m 3,2 C 4,5 C 12,9 km/h (3 Bft) 98,00 %
12.01.2023 07:22 5,3 C 5,0 C 3,3 C 86 % 1021,8 hPa 0,0 l/m 9,1 km/h (2 Bft) SW 218 0 min 0,000 mm 0,0 UV-I 0 W/m 3,2 C 3,1 C 16,1 km/h (3 Bft) 97,37 %
12.01.2023 07:24 5,3 C 5,0 C 3,3 C 85 % 1021,8 hPa 0,0 l/m 8,6 km/h (2 Bft) S-SW 202 0 min 0,000 mm 0,0 UV-I 0 W/m 3,0 C 3,4 C 12,9 km/h (3 Bft) 93,62 %
12.01.2023 07:26 5,3 C 5,0 C 3,3 C 85 % 1021,8 hPa 0,0 l/m 9,3 km/h (2 Bft) S-SW 212 0 min 0,000 mm 0,0 UV-I 0 W/m 3,0 C 2,9 C 12,9 km/h (3 Bft) 96,00 %
12.01.2023 07:28 5,3 C 5,0 C 2,8 C 85 % 1021,8 hPa 0,0 l/m 10,0 km/h (2 Bft) SW 220 0 min 0,000 mm 0,0 UV-I 0 W/m 3,0 C 2,4 C 12,9 km/h (3 Bft) 100,00 %
12.01.2023 07:30 5,2 C 5,0 C 2,8 C 85 % 1021,8 hPa 0,0 l/m 9,9 km/h (2 Bft) S-SW 213 0 min 0,000 mm 0,0 UV-I 0 W/m 2,9 C 2,4 C 16,1 km/h (3 Bft) 95,71 %
12.01.2023 07:32 5,3 C 5,0 C 2,8 C 85 % 1021,8 hPa 0,0 l/m 10,2 km/h (2 Bft) SW 224 0 min 0,000 mm 0,0 UV-I 0 W/m 3,0 C 2,3 C 14,5 km/h (3 Bft) 97,87 %
12.01.2023 07:34 5,2 C 5,0 C 2,8 C 85 % 1021,8 hPa 0,0 l/m 9,6 km/h (2 Bft) SW 217 0 min 0,000 mm 0,0 UV-I 0 W/m 2,9 C 2,6 C 16,1 km/h (3 Bft) 97,37 %
12.01.2023 07:36 5,2 C 5,0 C 2,8 C 85 % 1021,8 hPa 0,0 l/m 9,3 km/h (2 Bft) SW 218 0 min 0,000 mm 0,0 UV-I 0 W/m 2,9 C 2,8 C 14,5 km/h (3 Bft) 98,11 %
12.01.2023 07:38 5,2 C 5,0 C 2,8 C 85 % 1021,8 hPa 0,0 l/m 11,7 km/h (2 Bft) S-SW 211 0 min 0,000 mm 0,0 UV-I 0 W/m 2,9 C 1,2 C 17,7 km/h (3 Bft) 95,74 %
12.01.2023 07:40 5,3 C 5,0 C 2,8 C 84 % 1021,8 hPa 0,0 l/m 10,0 km/h (2 Bft) S-SW 202 0 min 0,000 mm 0,0 UV-I 5 W/m 2,8 C 2,4 C 12,9 km/h (3 Bft) 97,73 %
12.01.2023 07:42 5,2 C 5,0 C 2,8 C 84 % 1021,8 hPa 0,0 l/m 11,9 km/h (2 Bft) SW 219 0 min 0,000 mm 0,0 UV-I 5 W/m 2,7 C 1,0 C 17,7 km/h (3 Bft) 97,92 %
12.01.2023 07:44 5,2 C 5,0 C 2,8 C 84 % 1021,9 hPa 0,0 l/m 10,5 km/h (2 Bft) SW 227 0 min 0,000 mm 0,0 UV-I 5 W/m 2,7 C 1,9 C 14,5 km/h (3 Bft) 95,92 %
12.01.2023 07:46 5,2 C 5,0 C 2,8 C 84 % 1022,0 hPa 0,0 l/m 11,3 km/h (2 Bft) S-SW 209 0 min 0,000 mm 0,0 UV-I 5 W/m 2,7 C 1,4 C 16,1 km/h (3 Bft) 97,44 %
12.01.2023 07:48 5,2 C 5,0 C 2,8 C 84 % 1022,0 hPa 0,0 l/m 9,4 km/h (2 Bft) SW 222 0 min 0,000 mm 0,0 UV-I 7 W/m 2,7 C 2,7 C 12,9 km/h (3 Bft) 96,36 %
12.01.2023 07:50 5,2 C 5,0 C 2,8 C 84 % 1021,9 hPa 0,0 l/m 12,1 km/h (2 Bft) SW 219 0 min 0,000 mm 0,0 UV-I 7 W/m 2,7 C 0,9 C 16,1 km/h (3 Bft) 97,44 %
12.01.2023 07:52 5,2 C 5,0 C 2,8 C 84 % 1022,0 hPa 0,0 l/m 8,7 km/h (2 Bft) W-SW 241 0 min 0,000 mm 0,0 UV-I 7 W/m 2,7 C 3,3 C 12,9 km/h (3 Bft) 98,21 %
12.01.2023 07:54 5,1 C 5,0 C 2,8 C 84 % 1022,0 hPa 0,0 l/m 8,9 km/h (2 Bft) W-SW 240 0 min 0,000 mm 0,0 UV-I 9 W/m 2,6 C 3,0 C 14,5 km/h (3 Bft) 91,30 %
12.01.2023 07:56 5,1 C 5,0 C 2,8 C 84 % 1022,0 hPa 0,0 l/m 9,5 km/h (2 Bft) S-SW 209 0 min 0,000 mm 0,0 UV-I 9 W/m 2,6 C 2,5 C 14,5 km/h (3 Bft) 98,53 %
12.01.2023 07:58 5,2 C 5,0 C 2,8 C 84 % 1022,0 hPa 0,0 l/m 10,4 km/h (2 Bft) SW 229 0 min 0,000 mm 0,0 UV-I 11 W/m 2,7 C 2,0 C 14,5 km/h (3 Bft) 95,12 %
12.01.2023 08:00 5,2 C 5,0 C 2,8 C 84 % 1022,0 hPa 0,0 l/m 7,9 km/h (2 Bft) SW 214 0 min 0,025 mm 0,0 UV-I 12 W/m 2,7 C 3,9 C 12,9 km/h (3 Bft) 98,21 %
12.01.2023 08:02 5,2 C 5,0 C 2,8 C 84 % 1022,0 hPa 0,0 l/m 7,6 km/h (2 Bft) SW 225 0 min 0,000 mm 0,0 UV-I 15 W/m 2,7 C 4,1 C 11,3 km/h (2 Bft) 97,73 %
12.01.2023 08:04 5,1 C 5,0 C 2,8 C 84 % 1022,0 hPa 0,0 l/m 7,6 km/h (2 Bft) SW 234 2 min 0,000 mm 0,0 UV-I 16 W/m 2,6 C 4,0 C 11,3 km/h (2 Bft) 97,67 %
12.01.2023 08:06 5,0 C 5,0 C 2,8 C 84 % 1022,0 hPa 0,0 l/m 10,3 km/h (2 Bft) SW 217 2 min 0,000 mm 0,0 UV-I 16 W/m 2,5 C 1,9 C 12,9 km/h (3 Bft) 96,00 %
12.01.2023 08:08 4,9 C 5,0 C 2,8 C 84 % 1022,0 hPa 0,0 l/m 8,7 km/h (2 Bft) SW 217 2 min 0,000 mm 0,0 UV-I 15 W/m 2,4 C 2,9 C 11,3 km/h (2 Bft) 94,00 %
12.01.2023 08:10 4,8 C 5,0 C 2,8 C 84 % 1022,0 hPa 0,0 l/m 7,4 km/h (2 Bft) SW 218 0 min 0,000 mm 0,0 UV-I 16 W/m 2,3 C 3,9 C 9,7 km/h (2 Bft) 92,11 %
12.01.2023 08:12 4,8 C 5,0 C 2,8 C 85 % 1021,9 hPa 0,0 l/m 8,9 km/h (2 Bft) S-SW 209 0 min 0,000 mm 0,0 UV-I 16 W/m 2,5 C 2,7 C 12,9 km/h (3 Bft) 96,00 %
12.01.2023 08:14 4,8 C 5,0 C 2,8 C 85 % 1021,9 hPa 0,0 l/m 10,0 km/h (2 Bft) SW 223 0 min 0,000 mm 0,0 UV-I 16 W/m 2,5 C 1,9 C 16,1 km/h (3 Bft) 96,00 %
12.01.2023 08:16 4,8 C 5,0 C 2,8 C 85 % 1022,0 hPa 0,0 l/m 9,9 km/h (2 Bft) S-SW 193 0 min 0,000 mm 0,0 UV-I 17 W/m 2,5 C 1,9 C 14,5 km/h (3 Bft) 94,74 %
12.01.2023 08:18 4,8 C 5,0 C 2,8 C 85 % 1021,9 hPa 0,0 l/m 10,0 km/h (2 Bft) S-SW 206 0 min 0,000 mm 0,0 UV-I 20 W/m 2,5 C 1,9 C 14,5 km/h (3 Bft) 96,43 %
12.01.2023 08:20 4,9 C 5,0 C 2,8 C 84 % 1021,9 hPa 0,0 l/m 8,6 km/h (2 Bft) SW 229 0 min 0,000 mm 0,0 UV-I 21 W/m 2,4 C 3,0 C 12,9 km/h (3 Bft) 95,74 %
12.01.2023 08:22 4,9 C 5,0 C 2,8 C 84 % 1021,9 hPa 0,0 l/m 10,2 km/h (2 Bft) SW 215 0 min 0,000 mm 0,0 UV-I 22 W/m 2,4 C 1,8 C 16,1 km/h (3 Bft) 94,00 %
12.01.2023 08:24 4,9 C 5,0 C 2,8 C 84 % 1021,9 hPa 0,0 l/m 10,2 km/h (2 Bft) SW 224 0 min 0,000 mm 0,0 UV-I 25 W/m 2,4 C 1,8 C 14,5 km/h (3 Bft) 95,74 %
12.01.2023 08:26 5,1 C 5,0 C 3,3 C 84 % 1021,8 hPa 0,0 l/m 9,3 km/h (2 Bft) SW 220 0 min 0,000 mm 0,0 UV-I 27 W/m 2,6 C 2,7 C 14,5 km/h (3 Bft) 97,73 %
12.01.2023 08:28 5,2 C 5,0 C 3,3 C 84 % 1021,9 hPa 0,0 l/m 9,3 km/h (2 Bft) SW 233 0 min 0,000 mm 0,0 UV-I 28 W/m 2,7 C 2,8 C 16,1 km/h (3 Bft) 94,00 %
12.01.2023 08:30 5,3 C 5,0 C 3,3 C 83 % 1021,8 hPa 0,0 l/m 8,9 km/h (2 Bft) S-SW 209 0 min 0,000 mm 0,0 UV-I 30 W/m 2,7 C 3,2 C 14,5 km/h (3 Bft) 94,74 %
12.01.2023 08:32 5,3 C 5,0 C 3,3 C 82 % 1021,8 hPa 0,0 l/m 11,0 km/h (2 Bft) S-SW 213 0 min 0,000 mm 0,0 UV-I 29 W/m 2,5 C 1,7 C 16,1 km/h (3 Bft) 100,00 %
12.01.2023 08:34 5,4 C 5,0 C 3,3 C 82 % 1021,8 hPa 0,0 l/m 10,0 km/h (2 Bft) S-SW 210 0 min 0,000 mm 0,0 UV-I 33 W/m 2,6 C 2,5 C 14,5 km/h (3 Bft) 100,00 %
12.01.2023 08:36 5,4 C 5,0 C 3,3 C 82 % 1021,8 hPa 0,0 l/m 7,9 km/h (2 Bft) S-SW 209 0 min 0,000 mm 0,0 UV-I 34 W/m 2,6 C 4,1 C 12,9 km/h (3 Bft) 95,65 %
12.01.2023 08:38 5,3 C 5,0 C 3,3 C 82 % 1021,8 hPa 0,0 l/m 6,6 km/h (2 Bft) SW 215 0 min 0,000 mm 0,0 UV-I 32 W/m 2,5 C 5,1 C 9,7 km/h (2 Bft) 100,00 %
12.01.2023 08:40 5,3 C 5,0 C 3,3 C 82 % 1021,8 hPa 0,0 l/m 8,7 km/h (2 Bft) S-SW 203 0 min 0,000 mm 0,0 UV-I 33 W/m 2,5 C 3,4 C 14,5 km/h (3 Bft) 100,00 %
12.01.2023 08:42 5,3 C 5,0 C 3,3 C 82 % 1021,8 hPa 0,0 l/m 7,1 km/h (2 Bft) S-SW 198 0 min 0,000 mm 0,0 UV-I 37 W/m 2,5 C 4,7 C 14,5 km/h (3 Bft) 100,00 %
12.01.2023 08:44 5,3 C 5,0 C 3,3 C 82 % 1021,8 hPa 0,0 l/m 8,5 km/h (2 Bft) S 190 0 min 0,000 mm 0,0 UV-I 41 W/m 2,5 C 3,5 C 12,9 km/h (3 Bft) 100,00 %
12.01.2023 08:46 5,3 C 5,0 C 3,3 C 82 % 1021,8 hPa 0,0 l/m 7,6 km/h (2 Bft) S-SW 209 0 min 0,000 mm 0,0 UV-I 60 W/m 2,5 C 4,3 C 12,9 km/h (3 Bft) 100,00 %
12.01.2023 08:48 5,4 C 5,0 C 3,9 C 82 % 1021,8 hPa 0,0 l/m 7,9 km/h (2 Bft) S-SW 208 2 min 0,000 mm 0,0 UV-I 107 W/m 2,6 C 4,1 C 11,3 km/h (2 Bft) 97,56 %
12.01.2023 08:50 5,6 C 5,0 C 4,4 C 81 % 1021,7 hPa 0,0 l/m 9,3 km/h (2 Bft) S 186 2 min 0,000 mm 0,0 UV-I 113 W/m 2,6 C 3,2 C 12,9 km/h (3 Bft) 100,00 %
12.01.2023 08:52 5,7 C 5,0 C 4,4 C 81 % 1021,7 hPa 0,0 l/m 8,2 km/h (2 Bft) S-SW 205 2 min 0,000 mm 0,0 UV-I 122 W/m 2,7 C 4,2 C 12,9 km/h (3 Bft) 100,00 %
12.01.2023 08:54 5,8 C 5,0 C 4,4 C 81 % 1021,8 hPa 0,0 l/m 7,8 km/h (2 Bft) S-SW 193 2 min 0,000 mm 0,0 UV-I 128 W/m 2,8 C 4,6 C 12,9 km/h (3 Bft) 100,00 %
12.01.2023 08:56 5,9 C 5,0 C 5,0 C 80 % 1021,8 hPa 0,0 l/m 8,7 km/h (2 Bft) S 185 2 min 0,000 mm 0,0 UV-I 136 W/m 2,7 C 4,0 C 12,9 km/h (3 Bft) 100,00 %
12.01.2023 08:58 6,0 C 5,0 C 5,0 C 80 % 1021,9 hPa 0,0 l/m 9,1 km/h (2 Bft) S 189 2 min 0,000 mm 0,0 UV-I 142 W/m 2,8 C 3,8 C 14,5 km/h (3 Bft) 98,36 %
12.01.2023 09:00 6,1 C 5,0 C 5,0 C 79 % 1021,8 hPa 0,0 l/m 8,4 km/h (2 Bft) S 190 2 min 0,026 mm 0,0 UV-I 148 W/m 2,7 C 4,4 C 12,9 km/h (3 Bft) 96,61 %
12.01.2023 09:02 6,1 C 5,0 C 5,0 C 79 % 1021,8 hPa 0,0 l/m 9,1 km/h (2 Bft) S 180 2 min 0,000 mm 0,0 UV-I 151 W/m 2,7 C 3,9 C 14,5 km/h (3 Bft) 97,67 %
12.01.2023 09:04 6,1 C 5,0 C 5,0 C 79 % 1021,8 hPa 0,0 l/m 10,1 km/h (2 Bft) S 178 2 min 0,000 mm 0,0 UV-I 98 W/m 2,7 C 3,2 C 14,5 km/h (3 Bft) 100,00 %
12.01.2023 09:06 6,1 C 5,0 C 5,0 C 79 % 1021,7 hPa 0,0 l/m 10,8 km/h (2 Bft) S 191 2 min 0,000 mm 0,0 UV-I 104 W/m 2,7 C 2,8 C 16,1 km/h (3 Bft) 96,00 %
12.01.2023 09:08 6,2 C 5,0 C 5,0 C 79 % 1021,8 hPa 0,0 l/m 9,3 km/h (2 Bft) S-SW 209 2 min 0,000 mm 0,0 UV-I 120 W/m 2,8 C 3,9 C 14,5 km/h (3 Bft) 97,56 %
12.01.2023 09:10 6,2 C 5,0 C 5,0 C 79 % 1021,7 hPa 0,0 l/m 8,4 km/h (2 Bft) S-SW 204 2 min 0,000 mm 0,0 UV-I 135 W/m 2,8 C 4,6 C 11,3 km/h (2 Bft) 95,74 %
12.01.2023 09:12 6,2 C 5,0 C 5,6 C 79 % 1021,8 hPa 0,0 l/m 9,7 km/h (2 Bft) S-SW 207 2 min 0,000 mm 0,0 UV-I 174 W/m 2,8 C 3,6 C 12,9 km/h (3 Bft) 96,23 %
12.01.2023 09:14 6,3 C 5,0 C 5,6 C 79 % 1021,8 hPa 0,0 l/m 8,8 km/h (2 Bft) S-SW 199 2 min 0,000 mm 0,0 UV-I 182 W/m 2,9 C 4,4 C 12,9 km/h (3 Bft) 100,00 %
12.01.2023 09:16 6,3 C 5,0 C 5,6 C 79 % 1021,8 hPa 0,0 l/m 8,0 km/h (2 Bft) S-SW 192 2 min 0,000 mm 0,0 UV-I 172 W/m 2,9 C 5,0 C 12,9 km/h (3 Bft) 100,00 %
12.01.2023 09:18 6,3 C 5,0 C 5,6 C 79 % 1021,8 hPa 0,0 l/m 8,3 km/h (2 Bft) SW 234 2 min 0,000 mm 0,0 UV-I 179 W/m 2,9 C 4,7 C 12,9 km/h (3 Bft) 96,36 %
12.01.2023 09:20 6,4 C 5,0 C 5,6 C 79 % 1021,9 hPa 0,0 l/m 8,6 km/h (2 Bft) SW 223 2 min 0,000 mm 0,0 UV-I 161 W/m 3,0 C 4,6 C 11,3 km/h (2 Bft) 94,87 %
12.01.2023 09:22 6,4 C 5,0 C 5,6 C 79 % 1021,8 hPa 0,0 l/m 8,1 km/h (2 Bft) S-SW 213 2 min 0,000 mm 0,0 UV-I 141 W/m 3,0 C 5,0 C 11,3 km/h (2 Bft) 94,83 %
12.01.2023 09:24 6,4 C 5,0 C 5,6 C 80 % 1021,8 hPa 0,0 l/m 8,3 km/h (2 Bft) S-SW 200 2 min 0,000 mm 0,0 UV-I 139 W/m 3,2 C 4,8 C 12,9 km/h (3 Bft) 95,24 %
12.01.2023 09:26 6,3 C 5,0 C 5,6 C 80 % 1021,7 hPa 0,0 l/m 8,7 km/h (2 Bft) S-SW 202 2 min 0,000 mm 0,0 UV-I 146 W/m 3,1 C 4,4 C 12,9 km/h (3 Bft) 94,23 %
12.01.2023 09:28 6,3 C 5,0 C 5,6 C 80 % 1021,8 hPa 0,0 l/m 8,2 km/h (2 Bft) SW 217 2 min 0,000 mm 0,0 UV-I 148 W/m 3,1 C 4,8 C 11,3 km/h (2 Bft) 97,44 %
12.01.2023 09:30 6,3 C 5,0 C 5,6 C 80 % 1021,8 hPa 0,0 l/m 9,2 km/h (2 Bft) S-SW 200 2 min 0,000 mm 0,0 UV-I 170 W/m 3,1 C 4,1 C 12,9 km/h (3 Bft) 97,87 %
12.01.2023 09:32 6,3 C 5,0 C 5,6 C 80 % 1021,8 hPa 0,0 l/m 6,8 km/h (2 Bft) S-SW 196 2 min 0,000 mm 0,0 UV-I 210 W/m 3,1 C 6,0 C 12,9 km/h (3 Bft) 96,23 %
12.01.2023 09:34 6,4 C 5,0 C 5,6 C 80 % 1021,8 hPa 0,0 l/m 7,7 km/h (2 Bft) S-SW 201 2 min 0,000 mm 0,0 UV-I 189 W/m 3,2 C 5,3 C 11,3 km/h (2 Bft) 98,00 %
12.01.2023 09:36 6,4 C 5,0 C 5,6 C 80 % 1021,8 hPa 0,0 l/m 8,3 km/h (2 Bft) SW 220 2 min 0,000 mm 0,0 UV-I 170 W/m 3,2 C 4,8 C 11,3 km/h (2 Bft) 100,00 %
12.01.2023 09:38 6,4 C 5,0 C 5,6 C 80 % 1021,8 hPa 0,0 l/m 7,7 km/h (2 Bft) S-SW 205 2 min 0,000 mm 0,0 UV-I 151 W/m 3,2 C 5,3 C 11,3 km/h (2 Bft) 100,00 %
12.01.2023 09:40 6,4 C 5,0 C 5,6 C 80 % 1021,7 hPa 0,0 l/m 6,4 km/h (2 Bft) S 184 2 min 0,000 mm 0,0 UV-I 149 W/m 3,2 C 6,4 C 11,3 km/h (2 Bft) 97,56 %
12.01.2023 09:42 6,4 C 5,0 C 5,6 C 79 % 1021,8 hPa 0,0 l/m 6,8 km/h (2 Bft) S-SW 204 2 min 0,000 mm 0,0 UV-I 148 W/m 3,0 C 6,1 C 11,3 km/h (2 Bft) 98,00 %
12.01.2023 09:44 6,4 C 5,0 C 5,6 C 80 % 1021,8 hPa 0,0 l/m 8,6 km/h (2 Bft) S-SW 203 2 min 0,000 mm 0,0 UV-I 144 W/m 3,2 C 4,6 C 11,3 km/h (2 Bft) 97,73 %
12.01.2023 09:46 6,4 C 5,0 C 5,6 C 80 % 1021,7 hPa 0,0 l/m 7,3 km/h (2 Bft) S 186 2 min 0,000 mm 0,0 UV-I 143 W/m 3,2 C 5,6 C 12,9 km/h (3 Bft) 100,00 %
12.01.2023 09:48 6,4 C 5,0 C 5,6 C 79 % 1021,8 hPa 0,0 l/m 9,5 km/h (2 Bft) S-SW 198 2 min 0,000 mm 0,0 UV-I 137 W/m 3,0 C 4,0 C 14,5 km/h (3 Bft) 100,00 %
12.01.2023 09:50 6,4 C 5,0 C 5,6 C 79 % 1021,8 hPa 0,0 l/m 6,1 km/h (2 Bft) S-SW 195 2 min 0,000 mm 0,0 UV-I 135 W/m 3,0 C 6,4 C 9,7 km/h (2 Bft) 100,00 %
12.01.2023 09:52 6,4 C 5,0 C 6,1 C 79 % 1021,8 hPa 0,0 l/m 7,2 km/h (2 Bft) S-SW 210 2 min 0,000 mm 0,0 UV-I 136 W/m 3,0 C 5,7 C 9,7 km/h (2 Bft) 100,00 %
12.01.2023 09:54 6,5 C 5,0 C 6,1 C 79 % 1021,8 hPa 0,0 l/m 9,4 km/h (2 Bft) SW 218 2 min 0,000 mm 0,0 UV-I 136 W/m 3,1 C 4,1 C 14,5 km/h (3 Bft) 100,00 %
12.01.2023 09:56 6,6 C 5,0 C 6,1 C 79 % 1021,8 hPa 0,0 l/m 10,1 km/h (2 Bft) S-SW 194 0 min 0,000 mm 0,0 UV-I 133 W/m 3,2 C 3,8 C 14,5 km/h (3 Bft) 96,43 %
12.01.2023 09:58 6,6 C 5,0 C 6,1 C 79 % 1021,8 hPa 0,0 l/m 10,9 km/h (2 Bft) S-SW 212 0 min 0,000 mm 0,0 UV-I 132 W/m 3,2 C 3,3 C 14,5 km/h (3 Bft) 94,74 %
12.01.2023 10:00 6,6 C 5,0 C 6,1 C 79 % 1021,8 hPa 0,0 l/m 7,8 km/h (2 Bft) S-SW 207 0 min 0,076 mm 0,0 UV-I 133 W/m 3,2 C 5,4 C 11,3 km/h (2 Bft) 100,00 %
12.01.2023 10:02 6,6 C 5,0 C 6,1 C 79 % 1021,7 hPa 0,0 l/m 8,9 km/h (2 Bft) SW 227 0 min 0,000 mm 0,0 UV-I 137 W/m 3,2 C 4,6 C 16,1 km/h (3 Bft) 100,00 %
12.01.2023 10:04 6,7 C 5,0 C 6,1 C 78 % 1021,7 hPa 0,0 l/m 7,5 km/h (2 Bft) SW 230 0 min 0,000 mm 0,0 UV-I 138 W/m 3,1 C 5,8 C 12,9 km/h (3 Bft) 100,00 %
12.01.2023 10:06 6,7 C 5,0 C 6,1 C 78 % 1021,8 hPa 0,0 l/m 9,4 km/h (2 Bft) SW 234 0 min 0,000 mm 0,0 UV-I 139 W/m 3,1 C 4,4 C 17,7 km/h (3 Bft) 100,00 %
12.01.2023 10:08 6,8 C 5,0 C 6,1 C 77 % 1021,8 hPa 0,0 l/m 10,3 km/h (2 Bft) W-SW 252 0 min 0,000 mm 0,0 UV-I 139 W/m 3,1 C 3,9 C 14,5 km/h (3 Bft) 97,37 %
12.01.2023 10:10 6,8 C 5,0 C 6,1 C 77 % 1021,8 hPa 0,0 l/m 9,3 km/h (2 Bft) SW 221 0 min 0,000 mm 0,0 UV-I 138 W/m 3,1 C 4,5 C 14,5 km/h (3 Bft) 100,00 %
12.01.2023 10:12 6,8 C 5,0 C 6,1 C 77 % 1021,8 hPa 0,0 l/m 10,6 km/h (2 Bft) S-SW 211 0 min 0,000 mm 0,0 UV-I 137 W/m 3,1 C 3,7 C 16,1 km/h (3 Bft) 100,00 %
12.01.2023 10:14 6,8 C 5,0 C 6,1 C 77 % 1021,7 hPa 0,0 l/m 8,8 km/h (2 Bft) SW 225 0 min 0,000 mm 0,0 UV-I 139 W/m 3,1 C 4,9 C 16,1 km/h (3 Bft) 98,11 %
12.01.2023 10:16 6,8 C 5,0 C 6,1 C 77 % 1021,8 hPa 0,0 l/m 10,6 km/h (2 Bft) S-SW 210 0 min 0,000 mm 0,0 UV-I 136 W/m 3,1 C 3,7 C 16,1 km/h (3 Bft) 100,00 %
12.01.2023 10:18 6,8 C 5,0 C 6,1 C 77 % 1021,8 hPa 0,0 l/m 11,0 km/h (2 Bft) S-SW 202 0 min 0,000 mm 0,0 UV-I 131 W/m 3,1 C 3,4 C 16,1 km/h (3 Bft) 100,00 %
12.01.2023 10:20 6,8 C 5,0 C 6,1 C 77 % 1021,8 hPa 0,0 l/m 7,3 km/h (2 Bft) SW 231 0 min 0,000 mm 0,0 UV-I 126 W/m 3,1 C 6,1 C 12,9 km/h (3 Bft) 97,56 %
12.01.2023 10:22 6,8 C 5,0 C 6,1 C 77 % 1021,8 hPa 0,0 l/m 8,6 km/h (2 Bft) W-SW 242 0 min 0,000 mm 0,0 UV-I 124 W/m 3,1 C 5,0 C 12,9 km/h (3 Bft) 97,87 %
12.01.2023 10:24 6,8 C 5,0 C 6,1 C 77 % 1021,7 hPa 0,0 l/m 6,5 km/h (2 Bft) S-SW 209 0 min 0,000 mm 0,0 UV-I 125 W/m 3,1 C 6,7 C 12,9 km/h (3 Bft) 98,00 %
12.01.2023 10:26 6,8 C 5,0 C 6,1 C 77 % 1021,7 hPa 0,0 l/m 11,7 km/h (2 Bft) SW 229 0 min 0,000 mm 0,0 UV-I 139 W/m 3,1 C 3,0 C 19,3 km/h (3 Bft) 98,00 %
12.01.2023 10:28 6,9 C 5,0 C 6,1 C 77 % 1021,7 hPa 0,0 l/m 11,9 km/h (2 Bft) SW 219 0 min 0,000 mm 0,0 UV-I 147 W/m 3,2 C 3,0 C 20,9 km/h (4 Bft) 94,74 %
12.01.2023 10:30 6,9 C 5,0 C 6,1 C 76 % 1021,7 hPa 0,0 l/m 11,0 km/h (2 Bft) W-SW 238 0 min 0,000 mm 0,0 UV-I 152 W/m 3,0 C 3,5 C 17,7 km/h (3 Bft) 97,87 %
12.01.2023 10:32 7,0 C 5,0 C 6,1 C 76 % 1021,7 hPa 0,0 l/m 9,7 km/h (2 Bft) SW 217 2 min 0,000 mm 0,0 UV-I 176 W/m 3,1 C 4,5 C 16,1 km/h (3 Bft) 97,87 %
12.01.2023 10:34 7,1 C 5,0 C 6,7 C 76 % 1021,7 hPa 0,0 l/m 12,2 km/h (2 Bft) SW 225 2 min 0,000 mm 0,0 UV-I 209 W/m 3,2 C 3,1 C 19,3 km/h (3 Bft) 97,87 %
12.01.2023 10:36 7,2 C 5,0 C 6,7 C 76 % 1021,7 hPa 0,0 l/m 12,4 km/h (3 Bft) W-SW 246 2 min 0,000 mm 0,0 UV-I 178 W/m 3,3 C 3,1 C 19,3 km/h (3 Bft) 100,00 %
12.01.2023 10:38 7,3 C 5,0 C 6,7 C 76 % 1021,6 hPa 0,0 l/m 10,6 km/h (2 Bft) W-SW 255 2 min 0,000 mm 0,2 UV-I 219 W/m 3,4 C 4,2 C 14,5 km/h (3 Bft) 98,00 %
12.01.2023 10:40 7,4 C 5,0 C 7,2 C 76 % 1021,7 hPa 0,0 l/m 10,0 km/h (2 Bft) SW 231 2 min 0,000 mm 0,5 UV-I 216 W/m 3,5 C 4,7 C 14,5 km/h (3 Bft) 94,74 %
12.01.2023 10:42 7,5 C 5,0 C 7,2 C 75 % 1021,7 hPa 0,0 l/m 10,9 km/h (2 Bft) W-SW 248 2 min 0,000 mm 0,5 UV-I 244 W/m 3,4 C 4,3 C 17,7 km/h (3 Bft) 94,00 %
12.01.2023 10:44 7,6 C 5,0 C 7,8 C 75 % 1021,7 hPa 0,0 l/m 12,8 km/h (3 Bft) W-SW 248 2 min 0,000 mm 0,5 UV-I 233 W/m 3,5 C 3,3 C 19,3 km/h (3 Bft) 94,34 %
12.01.2023 10:46 7,6 C 5,0 C 7,8 C 74 % 1021,7 hPa 0,0 l/m 10,8 km/h (2 Bft) W-SW 237 2 min 0,000 mm 0,5 UV-I 200 W/m 3,3 C 4,4 C 16,1 km/h (3 Bft) 97,37 %
12.01.2023 10:48 7,7 C 5,0 C 7,8 C 75 % 1021,7 hPa 0,0 l/m 7,7 km/h (2 Bft) W-SW 252 2 min 0,000 mm 0,5 UV-I 199 W/m 3,6 C 6,7 C 11,3 km/h (2 Bft) 96,43 %
12.01.2023 10:50 7,7 C 5,0 C 8,3 C 74 % 1021,6 hPa 0,0 l/m 8,4 km/h (2 Bft) SW 236 2 min 0,000 mm 0,5 UV-I 205 W/m 3,4 C 6,1 C 12,9 km/h (3 Bft) 97,56 %
12.01.2023 10:52 7,7 C 5,0 C 8,3 C 74 % 1021,7 hPa 0,0 l/m 8,4 km/h (2 Bft) W 273 2 min 0,000 mm 0,5 UV-I 220 W/m 3,4 C 6,1 C 14,5 km/h (3 Bft) 93,62 %
12.01.2023 10:54 7,7 C 5,0 C 8,3 C 74 % 1021,7 hPa 0,0 l/m 12,6 km/h (3 Bft) SW 215 2 min 0,000 mm 0,5 UV-I 205 W/m 3,4 C 3,5 C 19,3 km/h (3 Bft) 97,87 %
12.01.2023 10:56 7,8 C 5,0 C 8,3 C 74 % 1021,7 hPa 0,0 l/m 8,8 km/h (2 Bft) SW 215 2 min 0,000 mm 0,5 UV-I 200 W/m 3,5 C 6,0 C 12,9 km/h (3 Bft) 96,00 %
12.01.2023 10:58 7,8 C 5,0 C 8,3 C 74 % 1021,6 hPa 0,0 l/m 13,7 km/h (3 Bft) W-SW 237 2 min 0,000 mm 0,5 UV-I 204 W/m 3,5 C 3,1 C 20,9 km/h (4 Bft) 96,00 %
12.01.2023 11:00 7,8 C 5,0 C 8,9 C 74 % 1021,6 hPa 0,0 l/m 9,3 km/h (2 Bft) SW 232 2 min 0,101 mm 0,5 UV-I 207 W/m 3,5 C 5,6 C 14,5 km/h (3 Bft) 97,37 %
12.01.2023 11:02 7,8 C 5,0 C 8,9 C 74 % 1021,6 hPa 0,0 l/m 10,5 km/h (2 Bft) W-SW 238 2 min 0,000 mm 0,5 UV-I 223 W/m 3,5 C 4,9 C 14,5 km/h (3 Bft) 96,36 %
12.01.2023 11:04 7,8 C 5,0 C 8,9 C 74 % 1021,6 hPa 0,0 l/m 8,4 km/h (2 Bft) SW 221 2 min 0,000 mm 0,5 UV-I 263 W/m 3,5 C 6,2 C 12,9 km/h (3 Bft) 95,74 %
12.01.2023 11:06 7,9 C 5,0 C 8,9 C 74 % 1021,5 hPa 0,0 l/m 7,9 km/h (2 Bft) W-SW 257 2 min 0,000 mm 0,5 UV-I 268 W/m 3,6 C 6,7 C 11,3 km/h (2 Bft) 95,74 %
12.01.2023 11:08 8,1 C 5,0 C 9,4 C 73 % 1021,4 hPa 0,0 l/m 8,6 km/h (2 Bft) SW 225 2 min 0,000 mm 0,5 UV-I 264 W/m 3,6 C 6,4 C 12,9 km/h (3 Bft) 97,56 %
12.01.2023 11:10 8,1 C 5,0 C 9,4 C 73 % 1021,4 hPa 0,0 l/m 10,3 km/h (2 Bft) W 266 2 min 0,000 mm 0,5 UV-I 250 W/m 3,6 C 5,3 C 16,1 km/h (3 Bft) 98,00 %
12.01.2023 11:12 8,1 C 5,0 C 8,9 C 73 % 1021,4 hPa 0,0 l/m 12,4 km/h (3 Bft) W-SW 254 2 min 0,000 mm 0,5 UV-I 244 W/m 3,6 C 4,1 C 20,9 km/h (4 Bft) 100,00 %
12.01.2023 11:14 8,2 C 5,0 C 9,4 C 72 % 1021,4 hPa 0,0 l/m 10,0 km/h (2 Bft) W-SW 245 2 min 0,000 mm 0,6 UV-I 288 W/m 3,5 C 5,6 C 19,3 km/h (3 Bft) 98,21 %
12.01.2023 11:16 8,2 C 5,0 C 9,4 C 73 % 1021,3 hPa 0,0 l/m 7,1 km/h (2 Bft) W-SW 257 2 min 0,000 mm 0,6 UV-I 289 W/m 3,7 C 7,7 C 11,3 km/h (2 Bft) 100,00 %
12.01.2023 11:18 8,3 C 5,0 C 9,4 C 72 % 1021,3 hPa 0,0 l/m 5,7 km/h (1 Bft) W-SW 244 2 min 0,000 mm 0,6 UV-I 294 W/m 3,6 C 8,3 C 11,3 km/h (2 Bft) 100,00 %
12.01.2023 11:20 8,4 C 5,0 C 10,0 C 72 % 1021,2 hPa 0,0 l/m 6,6 km/h (2 Bft) W-SW 237 2 min 0,000 mm 0,6 UV-I 286 W/m 3,7 C 8,3 C 11,3 km/h (2 Bft) 97,37 %
12.01.2023 11:22 8,5 C 5,0 C 10,0 C 71 % 1021,2 hPa 0,0 l/m 7,4 km/h (2 Bft) W-SW 239 2 min 0,000 mm 0,6 UV-I 292 W/m 3,5 C 7,7 C 16,1 km/h (3 Bft) 100,00 %
12.01.2023 11:24 8,6 C 5,0 C 10,0 C 72 % 1021,2 hPa 0,0 l/m 7,8 km/h (2 Bft) SW 224 2 min 0,000 mm 0,6 UV-I 273 W/m 3,8 C 7,5 C 14,5 km/h (3 Bft) 100,00 %
12.01.2023 11:26 8,7 C 5,0 C 10,0 C 71 % 1021,2 hPa 0,0 l/m 7,0 km/h (2 Bft) S-SW 213 2 min 0,000 mm 0,6 UV-I 255 W/m 3,7 C 8,2 C 9,7 km/h (2 Bft) 100,00 %
12.01.2023 11:28 8,7 C 5,0 C 9,4 C 71 % 1021,2 hPa 0,0 l/m 6,9 km/h (2 Bft) SW 223 2 min 0,000 mm 0,6 UV-I 235 W/m 3,7 C 8,3 C 9,7 km/h (2 Bft) 100,00 %
12.01.2023 11:30 8,7 C 5,0 C 9,4 C 70 % 1021,1 hPa 0,0 l/m 8,9 km/h (2 Bft) SW 221 2 min 0,000 mm 0,5 UV-I 200 W/m 3,5 C 6,9 C 14,5 km/h (3 Bft) 100,00 %
12.01.2023 11:32 8,6 C 5,0 C 9,4 C 69 % 1021,1 hPa 0,0 l/m 11,7 km/h (2 Bft) SW 225 0 min 0,000 mm 0,5 UV-I 180 W/m 3,2 C 5,1 C 19,3 km/h (3 Bft) 100,00 %
12.01.2023 11:34 8,5 C 5,0 C 8,9 C 71 % 1021,1 hPa 0,0 l/m 6,5 km/h (2 Bft) W-SW 245 0 min 0,000 mm 0,5 UV-I 172 W/m 3,5 C 8,4 C 11,3 km/h (2 Bft) 100,00 %
12.01.2023 11:36 8,4 C 5,0 C 8,9 C 71 % 1021,1 hPa 0,0 l/m 7,4 km/h (2 Bft) S-SW 200 0 min 0,000 mm 0,5 UV-I 162 W/m 3,5 C 7,6 C 14,5 km/h (3 Bft) 100,00 %
12.01.2023 11:38 8,4 C 5,0 C 8,9 C 70 % 1021,0 hPa 0,0 l/m 9,5 km/h (2 Bft) W-SW 243 0 min 0,000 mm 0,5 UV-I 155 W/m 3,3 C 6,1 C 14,5 km/h (3 Bft) 100,00 %
12.01.2023 11:40 8,3 C 5,0 C 8,9 C 70 % 1020,9 hPa 0,0 l/m 8,5 km/h (2 Bft) S-SW 196 0 min 0,000 mm 0,5 UV-I 154 W/m 3,2 C 6,7 C 14,5 km/h (3 Bft) 96,23 %
12.01.2023 11:42 8,3 C 5,0 C 8,9 C 70 % 1020,9 hPa 0,0 l/m 7,4 km/h (2 Bft) SW 223 0 min 0,000 mm 0,5 UV-I 161 W/m 3,2 C 7,5 C 12,9 km/h (3 Bft) 97,56 %
12.01.2023 11:44 8,3 C 5,0 C 8,9 C 70 % 1020,8 hPa 0,0 l/m 7,3 km/h (2 Bft) SW 219 0 min 0,000 mm 0,5 UV-I 172 W/m 3,2 C 7,6 C 11,3 km/h (2 Bft) 97,87 %
12.01.2023 11:46 8,3 C 5,0 C 8,9 C 72 % 1020,8 hPa 0,0 l/m 8,5 km/h (2 Bft) SW 214 0 min 0,000 mm 0,5 UV-I 177 W/m 3,6 C 6,7 C 12,9 km/h (3 Bft) 98,00 %
12.01.2023 11:48 8,3 C 5,0 C 8,9 C 71 % 1020,8 hPa 0,0 l/m 7,5 km/h (2 Bft) S-SW 202 0 min 0,000 mm 0,5 UV-I 175 W/m 3,4 C 7,4 C 11,3 km/h (2 Bft) 93,62 %
12.01.2023 11:50 8,3 C 5,0 C 8,9 C 71 % 1020,7 hPa 0,0 l/m 8,0 km/h (2 Bft) S-SW 195 0 min 0,000 mm 0,5 UV-I 174 W/m 3,4 C 7,1 C 16,1 km/h (3 Bft) 93,62 %
12.01.2023 11:52 8,3 C 5,0 C 8,9 C 71 % 1020,7 hPa 0,0 l/m 7,4 km/h (2 Bft) S 191 0 min 0,000 mm 0,5 UV-I 178 W/m 3,4 C 7,5 C 11,3 km/h (2 Bft) 97,87 %
12.01.2023 11:54 8,3 C 5,0 C 8,9 C 71 % 1020,7 hPa 0,0 l/m 7,0 km/h (2 Bft) S 188 0 min 0,000 mm 0,5 UV-I 177 W/m 3,4 C 7,8 C 11,3 km/h (2 Bft) 96,00 %
12.01.2023 11:56 8,3 C 5,0 C 8,9 C 71 % 1020,6 hPa 0,0 l/m 5,7 km/h (1 Bft) S 182 0 min 0,000 mm 0,5 UV-I 177 W/m 3,4 C 8,3 C 8,0 km/h (2 Bft) 97,14 %
12.01.2023 11:58 8,3 C 5,0 C 8,9 C 71 % 1020,6 hPa 0,0 l/m 6,8 km/h (2 Bft) S 186 0 min 0,000 mm 0,5 UV-I 178 W/m 3,4 C 8,0 C 11,3 km/h (2 Bft) 98,21 %
12.01.2023 12:00 8,3 C 5,0 C 8,9 C 71 % 1020,6 hPa 0,0 l/m 6,5 km/h (2 Bft) S 170 0 min 0,127 mm 0,5 UV-I 180 W/m 3,4 C 8,2 C 11,3 km/h (2 Bft) 98,00 %
12.01.2023 12:02 8,3 C 5,0 C 8,9 C 72 % 1020,5 hPa 0,0 l/m 7,2 km/h (2 Bft) S 176 0 min 0,000 mm 0,5 UV-I 183 W/m 3,6 C 7,7 C 11,3 km/h (2 Bft) 97,30 %
12.01.2023 12:04 8,4 C 5,0 C 8,9 C 72 % 1020,4 hPa 0,0 l/m 6,6 km/h (2 Bft) S 184 0 min 0,000 mm 0,5 UV-I 182 W/m 3,7 C 8,3 C 9,7 km/h (2 Bft) 100,00 %
12.01.2023 12:06 8,4 C 5,0 C 8,9 C 71 % 1020,4 hPa 0,0 l/m 6,5 km/h (2 Bft) S 177 0 min 0,000 mm 0,5 UV-I 177 W/m 3,5 C 8,3 C 9,7 km/h (2 Bft) 100,00 %
12.01.2023 12:08 8,4 C 5,0 C 8,9 C 71 % 1020,4 hPa 0,0 l/m 6,6 km/h (2 Bft) S 186 0 min 0,000 mm 0,5 UV-I 174 W/m 3,5 C 8,3 C 12,9 km/h (3 Bft) 100,00 %
12.01.2023 12:10 8,4 C 5,0 C 8,9 C 71 % 1020,4 hPa 0,0 l/m 8,6 km/h (2 Bft) S 175 0 min 0,000 mm 0,5 UV-I 171 W/m 3,5 C 6,7 C 17,7 km/h (3 Bft) 97,14 %
12.01.2023 12:12 8,4 C 5,0 C 8,9 C 71 % 1020,4 hPa 0,0 l/m 7,9 km/h (2 Bft) S-SO 168 0 min 0,000 mm 0,5 UV-I 171 W/m 3,5 C 7,2 C 14,5 km/h (3 Bft) 100,00 %
12.01.2023 12:14 8,4 C 5,0 C 8,9 C 71 % 1020,4 hPa 0,0 l/m 8,5 km/h (2 Bft) S 186 0 min 0,000 mm 0,5 UV-I 168 W/m 3,5 C 6,8 C 12,9 km/h (3 Bft) 100,00 %
12.01.2023 12:16 8,4 C 5,0 C 8,9 C 70 % 1020,3 hPa 0,0 l/m 10,4 km/h (2 Bft) S 180 0 min 0,000 mm 0,5 UV-I 166 W/m 3,3 C 5,6 C 19,3 km/h (3 Bft) 100,00 %
12.01.2023 12:18 8,5 C 5,0 C 8,9 C 70 % 1020,2 hPa 0,0 l/m 9,7 km/h (2 Bft) S-SO 166 0 min 0,000 mm 0,5 UV-I 167 W/m 3,3 C 6,1 C 14,5 km/h (3 Bft) 98,11 %
12.01.2023 12:20 8,5 C 5,0 C 8,9 C 70 % 1020,1 hPa 0,0 l/m 10,2 km/h (2 Bft) S-SW 198 0 min 0,000 mm 0,5 UV-I 163 W/m 3,3 C 5,8 C 14,5 km/h (3 Bft) 96,00 %
12.01.2023 12:22 8,5 C 5,0 C 8,9 C 69 % 1020,0 hPa 0,0 l/m 10,4 km/h (2 Bft) S-SO 158 0 min 0,000 mm 0,3 UV-I 158 W/m 3,1 C 5,7 C 14,5 km/h (3 Bft) 97,56 %
12.01.2023 12:24 8,6 C 5,0 C 8,9 C 69 % 1020,0 hPa 0,0 l/m 8,3 km/h (2 Bft) S 188 0 min 0,000 mm 0,0 UV-I 152 W/m 3,2 C 7,2 C 12,9 km/h (3 Bft) 96,23 %
12.01.2023 12:26 8,6 C 5,0 C 8,9 C 68 % 1020,0 hPa 0,0 l/m 12,5 km/h (3 Bft) S 190 0 min 0,000 mm 0,0 UV-I 143 W/m 3,0 C 4,6 C 19,3 km/h (3 Bft) 97,56 %
12.01.2023 12:28 8,6 C 5,0 C 8,9 C 67 % 1020,0 hPa 0,0 l/m 8,9 km/h (2 Bft) S-SW 209 0 min 0,000 mm 0,0 UV-I 132 W/m 2,8 C 6,8 C 12,9 km/h (3 Bft) 97,83 %
12.01.2023 12:30 8,6 C 5,0 C 8,9 C 68 % 1020,1 hPa 0,0 l/m 9,6 km/h (2 Bft) S-SW 207 0 min 0,000 mm 0,0 UV-I 123 W/m 3,0 C 6,3 C 14,5 km/h (3 Bft) 96,00 %
12.01.2023 12:32 8,6 C 5,0 C 8,9 C 69 % 1020,0 hPa 0,0 l/m 5,7 km/h (1 Bft) SW 215 0 min 0,000 mm 0,0 UV-I 114 W/m 3,2 C 8,6 C 9,7 km/h (2 Bft) 98,00 %
12.01.2023 12:34 8,6 C 5,0 C 8,9 C 70 % 1020,0 hPa 0,0 l/m 5,7 km/h (1 Bft) W-SW 238 0 min 0,000 mm 0,0 UV-I 104 W/m 3,4 C 8,6 C 8,0 km/h (2 Bft) 97,87 %
12.01.2023 12:36 8,6 C 5,0 C 8,9 C 70 % 1020,0 hPa 0,0 l/m 4,9 km/h (1 Bft) SW 230 0 min 0,000 mm 0,0 UV-I 97 W/m 3,4 C 8,6 C 8,0 km/h (2 Bft) 94,29 %
12.01.2023 12:38 8,6 C 5,0 C 8,9 C 70 % 1020,0 hPa 0,0 l/m 5,6 km/h (1 Bft) S-SW 210 0 min 0,000 mm 0,0 UV-I 90 W/m 3,4 C 8,6 C 8,0 km/h (2 Bft) 98,11 %
12.01.2023 12:40 8,5 C 5,0 C 8,9 C 70 % 1019,9 hPa 0,0 l/m 6,7 km/h (2 Bft) S-SW 197 0 min 0,000 mm 0,0 UV-I 86 W/m 3,3 C 8,3 C 12,9 km/h (3 Bft) 96,23 %
12.01.2023 12:42 8,5 C 5,0 C 8,9 C 69 % 1019,9 hPa 0,0 l/m 3,5 km/h (1 Bft) S-SW 198 0 min 0,000 mm 0,0 UV-I 90 W/m 3,1 C 8,5 C 4,8 km/h (1 Bft) 100,00 %
12.01.2023 12:44 8,5 C 5,0 C 8,3 C 70 % 1019,8 hPa 0,0 l/m 5,7 km/h (1 Bft) S-SW 213 0 min 0,000 mm 0,0 UV-I 94 W/m 3,3 C 8,5 C 9,7 km/h (2 Bft) 96,23 %
12.01.2023 12:46 8,4 C 5,0 C 8,3 C 70 % 1019,8 hPa 0,0 l/m 5,6 km/h (1 Bft) S-SW 192 0 min 0,000 mm 0,0 UV-I 95 W/m 3,3 C 8,4 C 8,0 km/h (2 Bft) 97,73 %
12.01.2023 12:48 8,4 C 5,0 C 8,3 C 71 % 1019,8 hPa 0,0 l/m 5,6 km/h (1 Bft) S 189 0 min 0,000 mm 0,0 UV-I 94 W/m 3,5 C 8,4 C 9,7 km/h (2 Bft) 98,00 %
12.01.2023 12:50 8,4 C 5,0 C 8,3 C 71 % 1019,7 hPa 0,0 l/m 6,5 km/h (2 Bft) S 172 0 min 0,000 mm 0,0 UV-I 91 W/m 3,5 C 8,3 C 11,3 km/h (2 Bft) 100,00 %
12.01.2023 12:52 8,4 C 5,0 C 8,3 C 71 % 1019,7 hPa 0,0 l/m 6,7 km/h (2 Bft) S 176 0 min 0,000 mm 0,0 UV-I 91 W/m 3,5 C 8,2 C 9,7 km/h (2 Bft) 100,00 %
12.01.2023 12:54 8,4 C 5,0 C 8,3 C 71 % 1019,6 hPa 0,0 l/m 6,8 km/h (2 Bft) S-SW 195 0 min 0,000 mm 0,0 UV-I 91 W/m 3,5 C 8,1 C 9,7 km/h (2 Bft) 97,56 %
12.01.2023 12:56 8,4 C 5,0 C 8,3 C 71 % 1019,6 hPa 0,0 l/m 8,0 km/h (2 Bft) S-SW 204 0 min 0,000 mm 0,0 UV-I 91 W/m 3,5 C 7,2 C 11,3 km/h (2 Bft) 100,00 %
12.01.2023 12:58 8,4 C 5,0 C 8,3 C 72 % 1019,5 hPa 0,0 l/m 3,7 km/h (1 Bft) S-SO 168 0 min 0,000 mm 0,0 UV-I 90 W/m 3,7 C 8,4 C 6,4 km/h (2 Bft) 96,23 %
12.01.2023 13:00 8,3 C 5,0 C 8,3 C 72 % 1019,4 hPa 0,0 l/m 5,7 km/h (1 Bft) S-SW 196 0 min 0,077 mm 0,0 UV-I 88 W/m 3,6 C 8,3 C 8,0 km/h (2 Bft) 97,56 %
12.01.2023 13:02 8,3 C 5,0 C 8,3 C 72 % 1019,4 hPa 0,0 l/m 7,7 km/h (2 Bft) S 175 0 min 0,000 mm 0,0 UV-I 84 W/m 3,6 C 7,3 C 9,7 km/h (2 Bft) 97,67 %
12.01.2023 13:04 8,3 C 5,0 C 8,3 C 72 % 1019,3 hPa 0,0 l/m 6,3 km/h (2 Bft) S 175 0 min 0,000 mm 0,0 UV-I 81 W/m 3,6 C 8,3 C 12,9 km/h (3 Bft) 95,74 %
12.01.2023 13:06 8,3 C 5,0 C 7,8 C 72 % 1019,3 hPa 0,0 l/m 7,9 km/h (2 Bft) S-SO 167 0 min 0,000 mm 0,0 UV-I 78 W/m 3,6 C 7,1 C 12,9 km/h (3 Bft) 98,21 %
12.01.2023 13:08 8,3 C 5,0 C 7,8 C 73 % 1019,2 hPa 0,0 l/m 7,0 km/h (2 Bft) S-SW 196 0 min 0,000 mm 0,0 UV-I 77 W/m 3,8 C 7,8 C 11,3 km/h (2 Bft) 97,87 %
12.01.2023 13:10 8,3 C 5,0 C 7,8 C 72 % 1019,2 hPa 0,0 l/m 7,6 km/h (2 Bft) S-SO 168 0 min 0,000 mm 0,0 UV-I 77 W/m 3,6 C 7,4 C 12,9 km/h (3 Bft) 94,74 %
12.01.2023 13:12 8,3 C 5,0 C 7,8 C 73 % 1019,2 hPa 0,0 l/m 6,8 km/h (2 Bft) S-SW 204 0 min 0,000 mm 0,0 UV-I 77 W/m 3,8 C 8,0 C 9,7 km/h (2 Bft) 98,21 %
12.01.2023 13:14 8,3 C 5,0 C 7,8 C 72 % 1019,2 hPa 0,0 l/m 5,5 km/h (1 Bft) S-SW 201 0 min 0,000 mm 0,0 UV-I 77 W/m 3,6 C 8,3 C 9,7 km/h (2 Bft) 97,37 %
12.01.2023 13:16 8,3 C 5,0 C 7,8 C 72 % 1019,2 hPa 0,0 l/m 6,2 km/h (2 Bft) S-SW 200 0 min 0,000 mm 0,0 UV-I 77 W/m 3,6 C 8,3 C 9,7 km/h (2 Bft) 95,12 %
12.01.2023 13:18 8,3 C 5,0 C 7,8 C 72 % 1019,1 hPa 0,0 l/m 6,0 km/h (2 Bft) S 174 0 min 0,000 mm 0,0 UV-I 76 W/m 3,6 C 8,3 C 8,0 km/h (2 Bft) 96,00 %
12.01.2023 13:20 8,3 C 5,0 C 7,8 C 72 % 1019,1 hPa 0,0 l/m 7,1 km/h (2 Bft) S-SW 196 0 min 0,000 mm 0,0 UV-I 72 W/m 3,6 C 7,8 C 9,7 km/h (2 Bft) 98,00 %
12.01.2023 13:22 8,3 C 5,0 C 7,8 C 72 % 1019,1 hPa 0,0 l/m 6,4 km/h (2 Bft) S 190 0 min 0,000 mm 0,0 UV-I 70 W/m 3,6 C 8,3 C 11,3 km/h (2 Bft) 96,00 %
12.01.2023 13:24 8,3 C 5,0 C 7,8 C 71 % 1019,1 hPa 0,0 l/m 5,7 km/h (1 Bft) S-SW 192 0 min 0,000 mm 0,0 UV-I 70 W/m 3,4 C 8,3 C 9,7 km/h (2 Bft) 100,00 %
12.01.2023 13:26 8,3 C 5,0 C 7,8 C 71 % 1019,2 hPa 0,0 l/m 4,8 km/h (1 Bft) S-SW 194 0 min 0,000 mm 0,0 UV-I 68 W/m 3,4 C 8,3 C 8,0 km/h (2 Bft) 100,00 %
12.01.2023 13:28 8,3 C 5,0 C 7,8 C 71 % 1019,2 hPa 0,0 l/m 2,9 km/h (1 Bft) S-SW 193 0 min 0,000 mm 0,0 UV-I 67 W/m 3,4 C 8,3 C 6,4 km/h (2 Bft) 100,00 %
12.01.2023 13:30 8,3 C 5,0 C 7,8 C 71 % 1019,2 hPa 0,0 l/m 2,3 km/h (1 Bft) S-SW 193 0 min 0,000 mm 0,0 UV-I 66 W/m 3,4 C 8,3 C 4,8 km/h (1 Bft) 97,56 %
12.01.2023 13:32 8,3 C 5,0 C 7,8 C 72 % 1019,2 hPa 0,0 l/m 1,1 km/h (1 Bft) S-SW 193 0 min 0,000 mm 0,0 UV-I 64 W/m 3,6 C 8,3 C 3,2 km/h (1 Bft) 100,00 %
12.01.2023 13:34 8,2 C 5,0 C 7,8 C 72 % 1019,2 hPa 0,0 l/m 0,0 km/h (0 Bft) S-SW 193 0 min 0,000 mm 0,0 UV-I 63 W/m 3,5 C 8,2 C 0,0 km/h (0 Bft) 100,00 %
12.01.2023 13:36 8,2 C 5,0 C 7,8 C 72 % 1019,2 hPa 0,0 l/m 0,0 km/h (0 Bft) S-SW 193 0 min 0,000 mm 0,0 UV-I 63 W/m 3,5 C 8,2 C 0,0 km/h (0 Bft) 100,00 %
12.01.2023 13:38 8,2 C 5,0 C 7,8 C 72 % 1019,2 hPa 0,0 l/m 0,0 km/h (0 Bft) S-SW 193 0 min 0,000 mm 0,0 UV-I 63 W/m 3,5 C 8,2 C 0,0 km/h (0 Bft) 100,00 %
12.01.2023 13:40 8,2 C 5,0 C 7,8 C 72 % 1019,2 hPa 0,0 l/m 0,0 km/h (0 Bft) S-SW 193 0 min 0,000 mm 0,0 UV-I 63 W/m 3,5 C 8,2 C 0,0 km/h (0 Bft) 100,00 %
12.01.2023 13:42 8,2 C 5,0 C 7,8 C 72 % 1019,1 hPa 0,0 l/m 0,0 km/h (0 Bft) S-SW 193 0 min 0,000 mm 0,0 UV-I 62 W/m 3,5 C 8,2 C 0,0 km/h (0 Bft) 100,00 %
12.01.2023 13:44 8,2 C 5,0 C 7,8 C 73 % 1019,1 hPa 0,0 l/m 2,1 km/h (1 Bft) S-SW 193 0 min 0,000 mm 0,0 UV-I 58 W/m 3,7 C 8,2 C 4,8 km/h (1 Bft) 100,00 %
12.01.2023 13:46 8,1 C 5,0 C 7,2 C 76 % 1019,0 hPa 0,0 l/m 4,0 km/h (1 Bft) NO 42 0 min 0,000 mm 0,0 UV-I 55 W/m 4,1 C 8,1 C 6,4 km/h (2 Bft) 97,87 %
12.01.2023 13:48 7,9 C 5,0 C 7,2 C 79 % 1019,0 hPa 0,0 l/m 3,6 km/h (1 Bft) N-NO 30 0 min 0,000 mm 0,0 UV-I 53 W/m 4,5 C 7,9 C 4,8 km/h (1 Bft) 100,00 %
12.01.2023 13:50 7,8 C 5,0 C 7,2 C 79 % 1018,9 hPa 0,0 l/m 2,9 km/h (1 Bft) N-NO 33 0 min 0,000 mm 0,0 UV-I 51 W/m 4,4 C 7,8 C 4,8 km/h (1 Bft) 95,74 %
12.01.2023 13:52 7,7 C 5,0 C 7,2 C 80 % 1019,1 hPa 0,0 l/m 3,1 km/h (1 Bft) N-NO 17 0 min 0,000 mm 0,0 UV-I 49 W/m 4,5 C 7,7 C 4,8 km/h (1 Bft) 100,00 %
12.01.2023 13:54 7,7 C 5,0 C 7,2 C 79 % 1019,1 hPa 0,0 l/m 3,4 km/h (1 Bft) N 11 0 min 0,000 mm 0,0 UV-I 46 W/m 4,3 C 7,7 C 4,8 km/h (1 Bft) 100,00 %
12.01.2023 13:56 7,7 C 5,0 C 7,2 C 79 % 1019,0 hPa 0,0 l/m 0,4 km/h (0 Bft) N 11 0 min 0,000 mm 0,0 UV-I 44 W/m 4,3 C 7,7 C 1,6 km/h (1 Bft) 100,00 %
12.01.2023 13:58 7,7 C 5,0 C 7,2 C 79 % 1019,0 hPa 0,0 l/m 0,0 km/h (0 Bft) N 11 0 min 0,000 mm 0,0 UV-I 42 W/m 4,3 C 7,7 C 0,0 km/h (0 Bft) 100,00 %
12.01.2023 14:00 7,7 C 5,0 C 6,7 C 79 % 1019,0 hPa 0,0 l/m 2,3 km/h (1 Bft) N 11 0 min 0,050 mm 0,0 UV-I 40 W/m 4,3 C 7,7 C 3,2 km/h (1 Bft) 100,00 %
12.01.2023 14:02 7,7 C 5,0 C 6,7 C 78 % 1019,1 hPa 0,0 l/m 3,5 km/h (1 Bft) N-NW 328 0 min 0,000 mm 0,0 UV-I 39 W/m 4,1 C 7,7 C 4,8 km/h (1 Bft) 97,37 %
12.01.2023 14:04 7,6 C 5,0 C 6,7 C 79 % 1018,9 hPa 0,0 l/m 1,0 km/h (0 Bft) N-NW 336 0 min 0,000 mm 0,0 UV-I 39 W/m 4,2 C 7,6 C 3,2 km/h (1 Bft) 97,87 %
12.01.2023 14:06 7,6 C 5,0 C 6,7 C 78 % 1018,7 hPa 0,0 l/m 4,1 km/h (1 Bft) O 97 0 min 0,000 mm 0,0 UV-I 41 W/m 4,0 C 7,6 C 6,4 km/h (2 Bft) 100,00 %
12.01.2023 14:08 7,6 C 5,0 C 6,7 C 77 % 1018,8 hPa 0,0 l/m 2,6 km/h (1 Bft) NW 317 0 min 0,000 mm 0,0 UV-I 43 W/m 3,8 C 7,6 C 4,8 km/h (1 Bft) 96,23 %
12.01.2023 14:10 7,6 C 5,0 C 6,7 C 78 % 1019,0 hPa 0,0 l/m 3,0 km/h (1 Bft) W-NW 293 0 min 0,000 mm 0,0 UV-I 45 W/m 4,0 C 7,6 C 6,4 km/h (2 Bft) 100,00 %
12.01.2023 14:12 7,6 C 5,0 C 6,7 C 78 % 1018,6 hPa 0,0 l/m 2,8 km/h (1 Bft) O 98 0 min 0,000 mm 0,0 UV-I 47 W/m 4,0 C 7,6 C 4,8 km/h (1 Bft) 100,00 %
12.01.2023 14:14 7,6 C 5,0 C 6,7 C 78 % 1018,6 hPa 0,0 l/m 5,3 km/h (1 Bft) O-SO 115 0 min 0,000 mm 0,0 UV-I 49 W/m 4,0 C 7,6 C 6,4 km/h (2 Bft) 100,00 %
12.01.2023 14:16 7,5 C 5,0 C 6,7 C 78 % 1018,8 hPa 0,0 l/m 1,8 km/h (1 Bft) O-SO 115 0 min 0,000 mm 0,0 UV-I 51 W/m 3,9 C 7,5 C 4,8 km/h (1 Bft) 97,37 %
12.01.2023 14:18 7,5 C 5,0 C 6,7 C 79 % 1018,8 hPa 0,0 l/m 3,9 km/h (1 Bft) NW 318 0 min 0,000 mm 0,0 UV-I 54 W/m 4,1 C 7,5 C 6,4 km/h (2 Bft) 97,56 %
12.01.2023 14:20 7,4 C 5,0 C 6,7 C 79 % 1018,7 hPa 0,0 l/m 2,8 km/h (1 Bft) NO 46 0 min 0,000 mm 0,0 UV-I 56 W/m 4,0 C 7,4 C 4,8 km/h (1 Bft) 98,39 %
12.01.2023 14:22 7,4 C 5,0 C 6,7 C 80 % 1018,6 hPa 0,0 l/m 4,0 km/h (1 Bft) O 90 0 min 0,000 mm 0,0 UV-I 59 W/m 4,2 C 7,4 C 6,4 km/h (2 Bft) 94,00 %
12.01.2023 14:24 7,4 C 5,0 C 6,7 C 79 % 1018,7 hPa 0,0 l/m 2,1 km/h (1 Bft) O-NO 63 0 min 0,000 mm 0,0 UV-I 61 W/m 4,0 C 7,4 C 4,8 km/h (1 Bft) 94,00 %
12.01.2023 14:26 7,4 C 5,0 C 6,7 C 79 % 1018,7 hPa 0,0 l/m 3,4 km/h (1 Bft) N-NO 30 0 min 0,000 mm 0,0 UV-I 67 W/m 4,0 C 7,4 C 4,8 km/h (1 Bft) 97,37 %
12.01.2023 14:28 7,3 C 5,0 C 6,7 C 80 % 1018,8 hPa 0,0 l/m 2,9 km/h (1 Bft) N-NO 30 0 min 0,000 mm 0,0 UV-I 70 W/m 4,1 C 7,3 C 4,8 km/h (1 Bft) 94,55 %
12.01.2023 14:30 7,3 C 5,0 C 6,7 C 80 % 1018,6 hPa 0,0 l/m 2,5 km/h (1 Bft) N-NO 30 0 min 0,000 mm 0,0 UV-I 69 W/m 4,1 C 7,3 C 3,2 km/h (1 Bft) 96,00 %
12.01.2023 14:32 7,3 C 5,0 C 6,7 C 81 % 1018,5 hPa 0,0 l/m 2,9 km/h (1 Bft) N-NO 30 0 min 0,000 mm 0,0 UV-I 69 W/m 4,3 C 7,3 C 4,8 km/h (1 Bft) 95,74 %
12.01.2023 14:34 7,2 C 5,0 C 6,7 C 81 % 1018,6 hPa 0,0 l/m 3,8 km/h (1 Bft) N-NO 18 0 min 0,000 mm 0,0 UV-I 68 W/m 4,2 C 7,2 C 6,4 km/h (2 Bft) 95,74 %
12.01.2023 14:36 7,2 C 5,0 C 6,7 C 82 % 1018,5 hPa 0,0 l/m 2,8 km/h (1 Bft) N 10 0 min 0,000 mm 0,0 UV-I 72 W/m 4,3 C 7,2 C 4,8 km/h (1 Bft) 95,12 %
12.01.2023 14:38 7,2 C 5,0 C 7,2 C 82 % 1018,5 hPa 0,0 l/m 2,5 km/h (1 Bft) N 10 0 min 0,000 mm 0,0 UV-I 80 W/m 4,3 C 7,2 C 4,8 km/h (1 Bft) 96,00 %
12.01.2023 14:40 7,2 C 5,0 C 7,2 C 80 % 1018,5 hPa 0,0 l/m 3,8 km/h (1 Bft) N-NO 20 0 min 0,000 mm 0,0 UV-I 85 W/m 4,0 C 7,2 C 6,4 km/h (2 Bft) 95,45 %
12.01.2023 14:42 7,2 C 5,0 C 7,2 C 80 % 1018,6 hPa 0,0 l/m 3,4 km/h (1 Bft) N-NO 15 0 min 0,000 mm 0,0 UV-I 94 W/m 4,0 C 7,2 C 4,8 km/h (1 Bft) 97,37 %
12.01.2023 14:44 7,3 C 5,0 C 7,2 C 79 % 1018,6 hPa 0,0 l/m 2,5 km/h (1 Bft) N-NO 15 0 min 0,000 mm 0,0 UV-I 110 W/m 3,9 C 7,3 C 4,8 km/h (1 Bft) 98,00 %
12.01.2023 14:46 7,3 C 5,0 C 7,2 C 79 % 1018,6 hPa 0,0 l/m 1,9 km/h (1 Bft) N-NO 15 2 min 0,000 mm 0,0 UV-I 125 W/m 3,9 C 7,3 C 3,2 km/h (1 Bft) 96,00 %
12.01.2023 14:48 7,4 C 5,0 C 7,2 C 79 % 1018,6 hPa 0,0 l/m 2,4 km/h (1 Bft) N-NO 15 2 min 0,000 mm 0,0 UV-I 139 W/m 4,0 C 7,4 C 3,2 km/h (1 Bft) 97,37 %
12.01.2023 14:50 7,4 C 5,0 C 7,2 C 79 % 1018,6 hPa 0,0 l/m 2,4 km/h (1 Bft) N-NW 346 0 min 0,000 mm 0,0 UV-I 100 W/m 4,0 C 7,4 C 4,8 km/h (1 Bft) 100,00 %
12.01.2023 14:52 7,4 C 5,0 C 7,2 C 79 % 1018,6 hPa 0,0 l/m 0,3 km/h (0 Bft) N-NW 346 0 min 0,000 mm 0,0 UV-I 96 W/m 4,0 C 7,4 C 3,2 km/h (1 Bft) 100,00 %
12.01.2023 14:54 7,5 C 5,0 C 7,2 C 79 % 1018,6 hPa 0,0 l/m 0,0 km/h (0 Bft) N-NW 346 0 min 0,000 mm 0,0 UV-I 95 W/m 4,1 C 7,5 C 0,0 km/h (0 Bft) 93,62 %
12.01.2023 14:56 7,5 C 5,0 C 7,2 C 78 % 1018,6 hPa 0,0 l/m 1,1 km/h (1 Bft) N-NW 346 0 min 0,000 mm 0,0 UV-I 98 W/m 3,9 C 7,5 C 3,2 km/h (1 Bft) 100,00 %
12.01.2023 14:58 7,5 C 5,0 C 7,8 C 78 % 1018,6 hPa 0,0 l/m 0,6 km/h (0 Bft) N-NW 344 0 min 0,000 mm 0,0 UV-I 101 W/m 3,9 C 7,5 C 3,2 km/h (1 Bft) 100,00 %
12.01.2023 15:00 7,6 C 5,0 C 7,8 C 79 % 1018,5 hPa 0,0 l/m 1,6 km/h (1 Bft) O-NO 59 2 min 0,051 mm 0,0 UV-I 115 W/m 4,2 C 7,6 C 3,2 km/h (1 Bft) 96,00 %
12.01.2023 15:02 7,6 C 5,0 C 7,8 C 79 % 1018,5 hPa 0,0 l/m 4,8 km/h (1 Bft) S-SO 158 2 min 0,000 mm 0,0 UV-I 118 W/m 4,2 C 7,6 C 8,0 km/h (2 Bft) 100,00 %
12.01.2023 15:04 7,7 C 5,0 C 7,8 C 78 % 1018,6 hPa 0,0 l/m 3,0 km/h (1 Bft) S-SO 158 2 min 0,000 mm 0,0 UV-I 143 W/m 4,1 C 7,7 C 4,8 km/h (1 Bft) 94,00 %
12.01.2023 15:06 7,8 C 5,0 C 7,8 C 78 % 1018,6 hPa 0,0 l/m 0,0 km/h (0 Bft) S-SO 158 2 min 0,000 mm 0,0 UV-I 164 W/m 4,2 C 7,8 C 1,6 km/h (1 Bft) 98,00 %
12.01.2023 15:08 7,8 C 5,0 C 7,8 C 78 % 1018,7 hPa 0,0 l/m 2,6 km/h (1 Bft) W 270 2 min 0,000 mm 0,0 UV-I 136 W/m 4,2 C 7,8 C 4,8 km/h (1 Bft) 97,73 %
12.01.2023 15:10 7,8 C 5,0 C 7,8 C 78 % 1018,6 hPa 0,0 l/m 2,9 km/h (1 Bft) W 265 2 min 0,000 mm 0,0 UV-I 137 W/m 4,2 C 7,8 C 4,8 km/h (1 Bft) 97,87 %
12.01.2023 15:12 8,0 C 5,0 C 7,8 C 77 % 1018,6 hPa 0,0 l/m 1,1 km/h (1 Bft) W 262 2 min 0,000 mm 0,0 UV-I 123 W/m 4,2 C 8,0 C 3,2 km/h (1 Bft) 98,11 %
12.01.2023 15:14 8,1 C 5,0 C 7,8 C 76 % 1018,8 hPa 0,0 l/m 4,5 km/h (1 Bft) W 279 2 min 0,000 mm 0,0 UV-I 142 W/m 4,1 C 8,1 C 6,4 km/h (2 Bft) 95,12 %
12.01.2023 15:16 8,1 C 5,0 C 7,8 C 77 % 1018,8 hPa 0,0 l/m 2,4 km/h (1 Bft) W-NW 284 2 min 0,000 mm 0,0 UV-I 136 W/m 4,3 C 8,1 C 4,8 km/h (1 Bft) 95,74 %
12.01.2023 15:18 8,1 C 5,0 C 7,8 C 76 % 1018,7 hPa 0,0 l/m 0,4 km/h (0 Bft) W-NW 284 2 min 0,000 mm 0,0 UV-I 148 W/m 4,1 C 8,1 C 1,6 km/h (1 Bft) 97,87 %
12.01.2023 15:20 8,2 C 5,0 C 7,8 C 77 % 1018,7 hPa 0,0 l/m 0,5 km/h (0 Bft) W-NW 284 2 min 0,000 mm 0,0 UV-I 154 W/m 4,4 C 8,2 C 3,2 km/h (1 Bft) 98,00 %
12.01.2023 15:22 8,3 C 5,0 C 7,8 C 76 % 1018,8 hPa 0,0 l/m 1,1 km/h (1 Bft) W-NW 284 2 min 0,000 mm 0,0 UV-I 148 W/m 4,3 C 8,3 C 3,2 km/h (1 Bft) 97,37 %
12.01.2023 15:24 8,3 C 5,0 C 7,8 C 75 % 1018,8 hPa 0,0 l/m 1,0 km/h (0 Bft) W-NW 284 2 min 0,000 mm 0,0 UV-I 131 W/m 4,1 C 8,3 C 3,2 km/h (1 Bft) 96,23 %
12.01.2023 15:26 8,3 C 5,0 C 7,8 C 76 % 1018,7 hPa 0,0 l/m 2,2 km/h (1 Bft) N-NO 24 2 min 0,000 mm 0,0 UV-I 127 W/m 4,3 C 8,3 C 4,8 km/h (1 Bft) 100,00 %
12.01.2023 15:28 8,3 C 5,0 C 7,8 C 75 % 1018,8 hPa 0,0 l/m 3,1 km/h (1 Bft) W 281 2 min 0,000 mm 0,0 UV-I 135 W/m 4,1 C 8,3 C 4,8 km/h (1 Bft) 94,64 %
12.01.2023 15:30 8,3 C 5,0 C 7,8 C 76 % 1018,6 hPa 0,0 l/m 3,6 km/h (1 Bft) S-SO 150 2 min 0,000 mm 0,0 UV-I 137 W/m 4,3 C 8,3 C 6,4 km/h (2 Bft) 97,37 %
12.01.2023 15:32 8,3 C 5,0 C 7,8 C 76 % 1018,7 hPa 0,0 l/m 4,2 km/h (1 Bft) S 178 2 min 0,000 mm 0,0 UV-I 139 W/m 4,3 C 8,3 C 8,0 km/h (2 Bft) 98,21 %
12.01.2023 15:34 8,4 C 5,0 C 7,8 C 76 % 1018,6 hPa 0,0 l/m 2,4 km/h (1 Bft) S-SO 147 2 min 0,000 mm 0,0 UV-I 138 W/m 4,4 C 8,4 C 4,8 km/h (1 Bft) 97,87 %
12.01.2023 15:36 8,4 C 5,0 C 7,8 C 75 % 1018,7 hPa 0,0 l/m 3,8 km/h (1 Bft) S-SW 200 2 min 0,000 mm 0,0 UV-I 141 W/m 4,2 C 8,4 C 6,4 km/h (2 Bft) 98,00 %
12.01.2023 15:38 8,4 C 5,0 C 7,8 C 75 % 1018,7 hPa 0,0 l/m 3,9 km/h (1 Bft) W-SW 245 2 min 0,000 mm 0,0 UV-I 135 W/m 4,2 C 8,4 C 6,4 km/h (2 Bft) 92,68 %
12.01.2023 15:40 8,4 C 5,0 C 7,8 C 73 % 1018,7 hPa 0,0 l/m 3,7 km/h (1 Bft) W-SW 244 2 min 0,000 mm 0,0 UV-I 100 W/m 3,8 C 8,4 C 4,8 km/h (1 Bft) 95,74 %
12.01.2023 15:42 8,4 C 5,0 C 7,8 C 73 % 1018,6 hPa 0,0 l/m 4,2 km/h (1 Bft) S 177 2 min 0,000 mm 0,0 UV-I 79 W/m 3,8 C 8,4 C 8,0 km/h (2 Bft) 92,86 %
12.01.2023 15:44 8,4 C 5,0 C 7,8 C 75 % 1018,7 hPa 0,0 l/m 4,0 km/h (1 Bft) S-SW 192 2 min 0,000 mm 0,0 UV-I 78 W/m 4,2 C 8,4 C 6,4 km/h (2 Bft) 92,68 %
12.01.2023 15:46 8,4 C 5,0 C 7,8 C 74 % 1018,6 hPa 0,0 l/m 4,1 km/h (1 Bft) S-SW 205 2 min 0,000 mm 0,0 UV-I 65 W/m 4,0 C 8,4 C 6,4 km/h (2 Bft) 94,00 %
12.01.2023 15:48 8,3 C 5,0 C 7,2 C 74 % 1018,6 hPa 0,0 l/m 5,1 km/h (1 Bft) W-SW 242 2 min 0,000 mm 0,0 UV-I 59 W/m 3,9 C 8,3 C 8,0 km/h (2 Bft) 95,12 %
12.01.2023 15:50 8,3 C 5,0 C 7,2 C 73 % 1018,6 hPa 0,0 l/m 4,9 km/h (1 Bft) S-SW 207 2 min 0,000 mm 0,0 UV-I 55 W/m 3,8 C 8,3 C 6,4 km/h (2 Bft) 96,23 %
12.01.2023 15:52 8,2 C 5,0 C 7,2 C 72 % 1018,6 hPa 0,0 l/m 6,3 km/h (2 Bft) S-SW 195 2 min 0,000 mm 0,0 UV-I 51 W/m 3,5 C 8,2 C 11,3 km/h (2 Bft) 95,45 %
12.01.2023 15:54 8,2 C 5,0 C 6,7 C 72 % 1018,5 hPa 0,0 l/m 8,8 km/h (2 Bft) S 180 2 min 0,000 mm 0,0 UV-I 46 W/m 3,5 C 6,4 C 12,9 km/h (3 Bft) 95,12 %
12.01.2023 15:56 8,2 C 5,0 C 6,7 C 73 % 1018,5 hPa 0,0 l/m 5,9 km/h (2 Bft) SW 222 2 min 0,000 mm 0,0 UV-I 43 W/m 3,7 C 8,2 C 9,7 km/h (2 Bft) 92,00 %
12.01.2023 15:58 8,2 C 5,0 C 6,7 C 72 % 1018,5 hPa 0,0 l/m 7,9 km/h (2 Bft) SW 218 2 min 0,000 mm 0,0 UV-I 40 W/m 3,5 C 7,0 C 11,3 km/h (2 Bft) 96,23 %
12.01.2023 16:00 8,1 C 5,0 C 6,7 C 72 % 1018,5 hPa 0,0 l/m 8,6 km/h (2 Bft) S-SW 213 2 min 0,051 mm 0,0 UV-I 39 W/m 3,4 C 6,4 C 12,9 km/h (3 Bft) 97,37 %
12.01.2023 16:02 8,1 C 5,0 C 6,7 C 72 % 1018,5 hPa 0,0 l/m 8,3 km/h (2 Bft) S-SW 209 2 min 0,000 mm 0,0 UV-I 37 W/m 3,4 C 6,6 C 11,3 km/h (2 Bft) 98,00 %
12.01.2023 16:04 8,0 C 5,0 C 6,7 C 73 % 1018,5 hPa 0,0 l/m 6,9 km/h (2 Bft) S-SW 193 2 min 0,000 mm 0,0 UV-I 38 W/m 3,5 C 7,6 C 11,3 km/h (2 Bft) 98,00 %
12.01.2023 16:06 7,9 C 5,0 C 6,1 C 73 % 1018,5 hPa 0,0 l/m 8,9 km/h (2 Bft) S-SW 212 2 min 0,000 mm 0,0 UV-I 46 W/m 3,4 C 6,0 C 12,9 km/h (3 Bft) 97,56 %
12.01.2023 16:08 7,9 C 5,0 C 6,1 C 73 % 1018,4 hPa 0,0 l/m 11,3 km/h (2 Bft) S 185 2 min 0,000 mm 0,0 UV-I 44 W/m 3,4 C 4,5 C 16,1 km/h (3 Bft) 97,87 %
12.01.2023 16:10 7,9 C 5,0 C 6,1 C 73 % 1018,4 hPa 0,0 l/m 10,1 km/h (2 Bft) S-SW 207 2 min 0,000 mm 0,0 UV-I 39 W/m 3,4 C 5,2 C 16,1 km/h (3 Bft) 98,00 %
12.01.2023 16:12 7,8 C 5,0 C 6,1 C 73 % 1018,4 hPa 0,0 l/m 10,5 km/h (2 Bft) S 174 2 min 0,000 mm 0,0 UV-I 37 W/m 3,3 C 4,9 C 14,5 km/h (3 Bft) 98,11 %
12.01.2023 16:14 7,8 C 5,0 C 6,1 C 74 % 1018,5 hPa 0,0 l/m 8,4 km/h (2 Bft) S 190 2 min 0,000 mm 0,0 UV-I 37 W/m 3,5 C 6,2 C 12,9 km/h (3 Bft) 97,37 %
12.01.2023 16:16 7,8 C 5,0 C 6,1 C 74 % 1018,4 hPa 0,0 l/m 8,2 km/h (2 Bft) S-SW 194 2 min 0,000 mm 0,0 UV-I 35 W/m 3,5 C 6,4 C 11,3 km/h (2 Bft) 97,87 %
12.01.2023 16:18 7,8 C 5,0 C 6,1 C 74 % 1018,4 hPa 0,0 l/m 8,5 km/h (2 Bft) S-SW 209 2 min 0,000 mm 0,0 UV-I 22 W/m 3,5 C 6,2 C 14,5 km/h (3 Bft) 91,49 %
12.01.2023 16:20 7,7 C 5,0 C 6,1 C 74 % 1018,4 hPa 0,0 l/m 8,3 km/h (2 Bft) S-SW 208 2 min 0,000 mm 0,0 UV-I 17 W/m 3,4 C 6,2 C 12,9 km/h (3 Bft) 96,00 %
12.01.2023 16:22 7,7 C 5,0 C 6,1 C 75 % 1018,4 hPa 0,0 l/m 7,6 km/h (2 Bft) S-SW 198 0 min 0,000 mm 0,0 UV-I 12 W/m 3,6 C 6,7 C 11,3 km/h (2 Bft) 94,00 %
12.01.2023 16:24 7,6 C 5,0 C 6,1 C 75 % 1018,4 hPa 0,0 l/m 7,1 km/h (2 Bft) S 178 0 min 0,000 mm 0,0 UV-I 7 W/m 3,5 C 7,0 C 9,7 km/h (2 Bft) 97,37 %
12.01.2023 16:26 7,6 C 5,0 C 5,6 C 76 % 1018,3 hPa 0,0 l/m 8,4 km/h (2 Bft) S-SW 199 0 min 0,000 mm 0,0 UV-I 2 W/m 3,6 C 6,0 C 14,5 km/h (3 Bft) 96,23 %
12.01.2023 16:28 7,4 C 5,0 C 5,6 C 76 % 1018,3 hPa 0,0 l/m 7,4 km/h (2 Bft) S-SW 200 0 min 0,000 mm 0,0 UV-I 17 W/m 3,5 C 6,6 C 9,7 km/h (2 Bft) 96,00 %
12.01.2023 16:31 7,3 C 5,0 C 5,6 C 77 % 1018,2 hPa 0,0 l/m 7,9 km/h (2 Bft) S-SW 207 0 min 0,000 mm 0,0 UV-I 14 W/m 3,5 C 6,1 C 12,9 km/h (3 Bft) 95,95 %
12.01.2023 16:32 7,3 C 5,0 C 5,6 C 77 % 1018,2 hPa 0,0 l/m 8,5 km/h (2 Bft) S-SW 192 0 min 0,000 mm 0,0 UV-I 12 W/m 3,5 C 5,6 C 12,9 km/h (3 Bft) 81,82 %
12.01.2023 16:34 7,3 C 5,0 C 5,6 C 78 % 1018,2 hPa 0,0 l/m 8,1 km/h (2 Bft) S-SW 207 0 min 0,000 mm 0,0 UV-I 10 W/m 3,7 C 5,9 C 12,9 km/h (3 Bft) 91,49 %
12.01.2023 16:36 7,2 C 5,0 C 5,6 C 78 % 1018,3 hPa 0,0 l/m 7,7 km/h (2 Bft) S-SW 213 0 min 0,000 mm 0,0 UV-I 9 W/m 3,6 C 6,1 C 11,3 km/h (2 Bft) 94,44 %
12.01.2023 16:38 7,1 C 5,0 C 5,0 C 79 % 1018,3 hPa 0,0 l/m 8,4 km/h (2 Bft) S-SW 203 0 min 0,000 mm 0,0 UV-I 7 W/m 3,7 C 5,5 C 12,9 km/h (3 Bft) 96,88 %
12.01.2023 16:40 7,1 C 5,0 C 5,0 C 79 % 1018,3 hPa 0,0 l/m 7,0 km/h (2 Bft) S 186 0 min 0,000 mm 0,0 UV-I 5 W/m 3,7 C 6,6 C 9,7 km/h (2 Bft) 97,87 %
12.01.2023 16:42 7,0 C 5,0 C 5,0 C 79 % 1018,3 hPa 0,0 l/m 6,8 km/h (2 Bft) S-SW 198 0 min 0,000 mm 0,0 UV-I 5 W/m 3,6 C 6,7 C 9,7 km/h (2 Bft) 97,73 %
12.01.2023 16:44 6,9 C 5,0 C 5,0 C 79 % 1018,3 hPa 0,0 l/m 7,2 km/h (2 Bft) S-SW 213 0 min 0,000 mm 0,0 UV-I 5 W/m 3,5 C 6,2 C 11,3 km/h (2 Bft) 94,00 %
12.01.2023 16:46 6,9 C 5,0 C 5,0 C 79 % 1018,3 hPa 0,0 l/m 9,9 km/h (2 Bft) S-SW 213 0 min 0,000 mm 0,0 UV-I 5 W/m 3,5 C 4,2 C 14,5 km/h (3 Bft) 96,00 %
12.01.2023 16:48 6,8 C 5,0 C 5,0 C 79 % 1018,3 hPa 0,0 l/m 11,1 km/h (2 Bft) S-SW 213 0 min 0,000 mm 0,0 UV-I 2 W/m 3,4 C 3,4 C 16,1 km/h (3 Bft) 97,73 %
12.01.2023 16:50 6,9 C 5,0 C 5,0 C 78 % 1018,3 hPa 0,0 l/m 10,0 km/h (2 Bft) SW 217 0 min 0,000 mm 0,0 UV-I 0 W/m 3,3 C 4,2 C 16,1 km/h (3 Bft) 97,62 %
12.01.2023 16:52 6,9 C 5,0 C 5,0 C 77 % 1018,3 hPa 0,0 l/m 10,8 km/h (2 Bft) SW 236 0 min 0,000 mm 0,0 UV-I 0 W/m 3,2 C 3,7 C 17,7 km/h (3 Bft) 98,18 %
12.01.2023 16:54 6,9 C 5,0 C 5,0 C 76 % 1018,3 hPa 0,0 l/m 8,3 km/h (2 Bft) SW 225 0 min 0,000 mm 0,0 UV-I 0 W/m 3,0 C 5,4 C 14,5 km/h (3 Bft) 97,62 %
12.01.2023 16:56 7,0 C 5,0 C 5,0 C 76 % 1018,3 hPa 0,0 l/m 9,6 km/h (2 Bft) S-SW 204 0 min 0,000 mm 0,0 UV-I 0 W/m 3,1 C 4,5 C 12,9 km/h (3 Bft) 95,45 %
12.01.2023 16:58 6,9 C 5,0 C 5,0 C 76 % 1018,3 hPa 0,0 l/m 9,5 km/h (2 Bft) S-SW 204 0 min 0,000 mm 0,0 UV-I 0 W/m 3,0 C 4,5 C 11,3 km/h (2 Bft) 95,74 %
12.01.2023 17:00 6,8 C 5,0 C 4,4 C 76 % 1018,3 hPa 0,0 l/m 7,8 km/h (2 Bft) S-SW 201 0 min 0,025 mm 0,0 UV-I 0 W/m 2,9 C 5,6 C 9,7 km/h (2 Bft) 93,18 %
12.01.2023 17:02 6,8 C 5,0 C 4,4 C 77 % 1018,4 hPa 0,0 l/m 8,3 km/h (2 Bft) SW 225 0 min 0,000 mm 0,0 UV-I 0 W/m 3,1 C 5,3 C 11,3 km/h (2 Bft) 95,74 %
12.01.2023 17:04 6,7 C 5,0 C 4,4 C 77 % 1018,3 hPa 0,0 l/m 8,5 km/h (2 Bft) SW 217 0 min 0,000 mm 0,0 UV-I 0 W/m 3,0 C 5,0 C 12,9 km/h (3 Bft) 96,23 %
12.01.2023 17:06 6,6 C 5,0 C 4,4 C 78 % 1018,3 hPa 0,0 l/m 7,2 km/h (2 Bft) SW 228 0 min 0,000 mm 0,0 UV-I 0 W/m 3,0 C 5,9 C 9,7 km/h (2 Bft) 96,55 %
12.01.2023 17:08 6,6 C 5,0 C 4,4 C 78 % 1018,3 hPa 0,0 l/m 8,6 km/h (2 Bft) SW 221 0 min 0,000 mm 0,0 UV-I 0 W/m 3,0 C 4,8 C 12,9 km/h (3 Bft) 94,34 %
12.01.2023 17:10 6,6 C 5,0 C 4,4 C 78 % 1018,3 hPa 0,0 l/m 10,1 km/h (2 Bft) S-SW 208 0 min 0,000 mm 0,0 UV-I 0 W/m 3,0 C 3,8 C 12,9 km/h (3 Bft) 96,43 %
12.01.2023 17:12 6,6 C 5,0 C 4,4 C 78 % 1018,4 hPa 0,0 l/m 8,3 km/h (2 Bft) SW 217 0 min 0,000 mm 0,0 UV-I 0 W/m 3,0 C 5,1 C 12,9 km/h (3 Bft) 95,74 %
12.01.2023 17:14 6,6 C 5,0 C 4,4 C 78 % 1018,4 hPa 0,0 l/m 8,1 km/h (2 Bft) S-SW 212 0 min 0,000 mm 0,0 UV-I 0 W/m 3,0 C 5,2 C 11,3 km/h (2 Bft) 94,00 %
12.01.2023 17:16 6,6 C 5,0 C 4,4 C 77 % 1018,4 hPa 0,0 l/m 9,1 km/h (2 Bft) SW 217 0 min 0,000 mm 0,0 UV-I 0 W/m 2,9 C 4,5 C 12,9 km/h (3 Bft) 97,56 %
12.01.2023 17:18 6,7 C 5,0 C 4,4 C 76 % 1018,4 hPa 0,0 l/m 9,2 km/h (2 Bft) SW 230 0 min 0,000 mm 0,0 UV-I 0 W/m 2,8 C 4,5 C 12,9 km/h (3 Bft) 100,00 %
12.01.2023 17:20 6,7 C 5,0 C 4,4 C 76 % 1018,3 hPa 0,0 l/m 9,1 km/h (2 Bft) S-SW 205 0 min 0,000 mm 0,0 UV-I 0 W/m 2,8 C 4,6 C 12,9 km/h (3 Bft) 100,00 %
12.01.2023 17:22 6,7 C 5,0 C 4,4 C 76 % 1018,4 hPa 0,0 l/m 7,5 km/h (2 Bft) SW 228 0 min 0,000 mm 0,0 UV-I 0 W/m 2,8 C 5,8 C 11,3 km/h (2 Bft) 100,00 %
12.01.2023 17:24 6,6 C 5,0 C 3,9 C 76 % 1018,3 hPa 0,0 l/m 10,4 km/h (2 Bft) S-SW 200 0 min 0,000 mm 0,0 UV-I 0 W/m 2,7 C 3,6 C 14,5 km/h (3 Bft) 95,45 %
12.01.2023 17:26 6,6 C 5,0 C 4,4 C 76 % 1018,3 hPa 0,0 l/m 11,7 km/h (2 Bft) S-SW 198 0 min 0,000 mm 0,0 UV-I 0 W/m 2,7 C 2,8 C 14,5 km/h (3 Bft) 100,00 %
12.01.2023 17:28 6,7 C 5,0 C 4,4 C 75 % 1018,4 hPa 0,0 l/m 9,3 km/h (2 Bft) S-SW 204 0 min 0,000 mm 0,0 UV-I 0 W/m 2,6 C 4,4 C 12,9 km/h (3 Bft) 100,00 %
12.01.2023 17:30 6,7 C 5,0 C 4,4 C 75 % 1018,4 hPa 0,0 l/m 8,6 km/h (2 Bft) SW 218 0 min 0,000 mm 0,0 UV-I 0 W/m 2,6 C 4,9 C 12,9 km/h (3 Bft) 100,00 %
12.01.2023 17:32 6,8 C 5,0 C 4,4 C 75 % 1018,4 hPa 0,0 l/m 7,9 km/h (2 Bft) SW 219 0 min 0,000 mm 0,0 UV-I 0 W/m 2,7 C 5,6 C 12,9 km/h (3 Bft) 100,00 %
12.01.2023 17:34 6,7 C 5,0 C 4,4 C 74 % 1018,4 hPa 0,0 l/m 6,8 km/h (2 Bft) SW 224 0 min 0,000 mm 0,0 UV-I 0 W/m 2,4 C 6,4 C 9,7 km/h (2 Bft) 98,00 %
12.01.2023 17:36 6,7 C 5,0 C 4,4 C 74 % 1018,4 hPa 0,0 l/m 10,2 km/h (2 Bft) SW 230 0 min 0,000 mm 0,0 UV-I 0 W/m 2,4 C 3,8 C 12,9 km/h (3 Bft) 100,00 %
12.01.2023 17:38 6,7 C 5,0 C 4,4 C 74 % 1018,4 hPa 0,0 l/m 9,9 km/h (2 Bft) S-SW 211 0 min 0,000 mm 0,0 UV-I 0 W/m 2,4 C 4,0 C 14,5 km/h (3 Bft) 100,00 %
12.01.2023 17:40 6,7 C 5,0 C 4,4 C 74 % 1018,4 hPa 0,0 l/m 9,2 km/h (2 Bft) SW 214 0 min 0,000 mm 0,0 UV-I 0 W/m 2,4 C 4,5 C 12,9 km/h (3 Bft) 98,11 %
12.01.2023 17:42 6,7 C 5,0 C 4,4 C 74 % 1018,4 hPa 0,0 l/m 9,5 km/h (2 Bft) SW 229 0 min 0,000 mm 0,0 UV-I 0 W/m 2,4 C 4,3 C 16,1 km/h (3 Bft) 100,00 %
12.01.2023 17:44 6,7 C 5,0 C 4,4 C 74 % 1018,4 hPa 0,0 l/m 10,6 km/h (2 Bft) SW 216 0 min 0,000 mm 0,0 UV-I 0 W/m 2,4 C 3,6 C 16,1 km/h (3 Bft) 98,25 %
12.01.2023 17:46 6,7 C 5,0 C 4,4 C 74 % 1018,4 hPa 0,0 l/m 10,6 km/h (2 Bft) SW 217 0 min 0,000 mm 0,0 UV-I 0 W/m 2,4 C 3,6 C 14,5 km/h (3 Bft) 100,00 %
12.01.2023 17:48 6,7 C 5,0 C 4,4 C 74 % 1018,4 hPa 0,0 l/m 9,0 km/h (2 Bft) SW 215 0 min 0,000 mm 0,0 UV-I 0 W/m 2,4 C 4,6 C 11,3 km/h (2 Bft) 100,00 %
12.01.2023 17:50 6,7 C 5,0 C 4,4 C 74 % 1018,4 hPa 0,0 l/m 9,9 km/h (2 Bft) S-SW 211 0 min 0,000 mm 0,0 UV-I 0 W/m 2,4 C 4,0 C 17,7 km/h (3 Bft) 100,00 %
12.01.2023 17:52 6,6 C 5,0 C 4,4 C 74 % 1018,4 hPa 0,0 l/m 8,9 km/h (2 Bft) SW 219 0 min 0,000 mm 0,0 UV-I 0 W/m 2,3 C 4,6 C 12,9 km/h (3 Bft) 100,00 %
12.01.2023 17:54 6,5 C 5,0 C 4,4 C 74 % 1018,4 hPa 0,0 l/m 9,9 km/h (2 Bft) SW 221 0 min 0,000 mm 0,0 UV-I 0 W/m 2,2 C 3,8 C 16,1 km/h (3 Bft) 97,87 %
12.01.2023 17:56 6,6 C 5,0 C 4,4 C 74 % 1018,4 hPa 0,0 l/m 9,0 km/h (2 Bft) SW 216 0 min 0,000 mm 0,0 UV-I 0 W/m 2,3 C 4,5 C 12,9 km/h (3 Bft) 100,00 %
12.01.2023 17:58 6,6 C 5,0 C 4,4 C 74 % 1018,4 hPa 0,0 l/m 7,9 km/h (2 Bft) S-SW 207 0 min 0,000 mm 0,0 UV-I 0 W/m 2,3 C 5,4 C 11,3 km/h (2 Bft) 100,00 %
12.01.2023 18:00 6,6 C 5,0 C 4,4 C 75 % 1018,4 hPa 0,0 l/m 7,9 km/h (2 Bft) SW 215 0 min 0,026 mm 0,0 UV-I 0 W/m 2,5 C 5,4 C 12,9 km/h (3 Bft) 100,00 %
12.01.2023 18:02 6,6 C 5,0 C 4,4 C 74 % 1018,4 hPa 0,0 l/m 8,8 km/h (2 Bft) SW 223 0 min 0,000 mm 0,0 UV-I 0 W/m 2,3 C 4,7 C 11,3 km/h (2 Bft) 100,00 %
12.01.2023 18:04 6,6 C 5,0 C 4,4 C 74 % 1018,4 hPa 0,0 l/m 8,8 km/h (2 Bft) S-SW 192 0 min 0,000 mm 0,0 UV-I 0 W/m 2,3 C 4,7 C 12,9 km/h (3 Bft) 100,00 %
12.01.2023 18:06 6,6 C 5,0 C 4,4 C 74 % 1018,4 hPa 0,0 l/m 7,6 km/h (2 Bft) S-SW 199 0 min 0,000 mm 0,0 UV-I 0 W/m 2,3 C 5,6 C 11,3 km/h (2 Bft) 100,00 %
12.01.2023 18:08 6,6 C 5,0 C 4,4 C 74 % 1018,4 hPa 0,0 l/m 8,2 km/h (2 Bft) S-SW 203 0 min 0,000 mm 0,0 UV-I 0 W/m 2,3 C 5,1 C 12,9 km/h (3 Bft) 100,00 %
12.01.2023 18:10 6,6 C 5,0 C 4,4 C 74 % 1018,4 hPa 0,0 l/m 7,9 km/h (2 Bft) S-SW 196 0 min 0,000 mm 0,0 UV-I 0 W/m 2,3 C 5,4 C 11,3 km/h (2 Bft) 97,87 %
12.01.2023 18:13 6,7 C 5,0 C 4,4 C 73 % 1018,4 hPa 0,0 l/m 9,1 km/h (2 Bft) S 190 0 min 0,000 mm 0,0 UV-I 0 W/m 2,2 C 4,6 C 14,5 km/h (3 Bft) 98,46 %
12.01.2023 18:14 6,7 C 5,0 C 4,4 C 73 % 1018,4 hPa 0,0 l/m 7,7 km/h (2 Bft) S-SW 207 0 min 0,000 mm 0,0 UV-I 0 W/m 2,2 C 5,6 C 12,9 km/h (3 Bft) 96,55 %
12.01.2023 18:16 6,7 C 5,0 C 4,4 C 73 % 1018,4 hPa 0,0 l/m 8,9 km/h (2 Bft) S-SO 161 0 min 0,000 mm 0,0 UV-I 0 W/m 2,2 C 4,7 C 14,5 km/h (3 Bft) 95,74 %
12.01.2023 18:18 6,7 C 5,0 C 5,0 C 72 % 1018,4 hPa 0,0 l/m 9,6 km/h (2 Bft) S 190 0 min 0,000 mm 0,0 UV-I 0 W/m 2,0 C 4,2 C 14,5 km/h (3 Bft) 97,87 %
12.01.2023 18:20 6,8 C 5,0 C 5,0 C 72 % 1018,3 hPa 0,0 l/m 10,6 km/h (2 Bft) S-SW 207 0 min 0,000 mm 0,0 UV-I 0 W/m 2,1 C 3,7 C 14,5 km/h (3 Bft) 97,37 %
12.01.2023 18:22 6,8 C 5,0 C 5,0 C 72 % 1018,4 hPa 0,0 l/m 10,3 km/h (2 Bft) S-SW 196 0 min 0,000 mm 0,0 UV-I 0 W/m 2,1 C 3,9 C 16,1 km/h (3 Bft) 98,11 %
12.01.2023 18:24 6,8 C 5,0 C 5,0 C 72 % 1018,4 hPa 0,0 l/m 11,4 km/h (2 Bft) S-SW 208 0 min 0,000 mm 0,0 UV-I 0 W/m 2,1 C 3,2 C 16,1 km/h (3 Bft) 97,14 %
12.01.2023 18:26 6,8 C 5,0 C 5,0 C 72 % 1018,3 hPa 0,0 l/m 11,0 km/h (2 Bft) S 184 0 min 0,000 mm 0,0 UV-I 0 W/m 2,1 C 3,4 C 14,5 km/h (3 Bft) 98,31 %
12.01.2023 18:28 6,6 C 5,0 C 4,4 C 73 % 1018,3 hPa 0,0 l/m 9,5 km/h (2 Bft) S 189 0 min 0,000 mm 0,0 UV-I 0 W/m 2,1 C 4,2 C 14,5 km/h (3 Bft) 97,14 %
12.01.2023 18:30 6,6 C 5,0 C 4,4 C 73 % 1018,3 hPa 0,0 l/m 10,6 km/h (2 Bft) SW 215 0 min 0,000 mm 0,0 UV-I 0 W/m 2,1 C 3,4 C 14,5 km/h (3 Bft) 98,11 %
12.01.2023 18:32 6,4 C 5,0 C 4,4 C 73 % 1018,3 hPa 0,0 l/m 10,8 km/h (2 Bft) S 190 0 min 0,000 mm 0,0 UV-I 0 W/m 1,9 C 3,1 C 14,5 km/h (3 Bft) 95,74 %
12.01.2023 18:34 6,3 C 5,0 C 4,4 C 74 % 1018,3 hPa 0,0 l/m 10,8 km/h (2 Bft) S-SW 209 0 min 0,000 mm 0,0 UV-I 0 W/m 2,0 C 3,0 C 16,1 km/h (3 Bft) 100,00 %
12.01.2023 18:36 6,2 C 5,0 C 4,4 C 75 % 1018,3 hPa 0,0 l/m 10,0 km/h (2 Bft) S-SW 203 0 min 0,000 mm 0,0 UV-I 0 W/m 2,1 C 3,4 C 16,1 km/h (3 Bft) 100,00 %
12.01.2023 18:38 6,2 C 5,0 C 4,4 C 75 % 1018,3 hPa 0,0 l/m 9,7 km/h (2 Bft) SW 224 0 min 0,000 mm 0,0 UV-I 0 W/m 2,1 C 3,6 C 16,1 km/h (3 Bft) 100,00 %
12.01.2023 18:40 6,1 C 5,0 C 4,4 C 75 % 1018,3 hPa 0,0 l/m 11,7 km/h (2 Bft) SW 215 0 min 0,000 mm 0,0 UV-I 0 W/m 2,0 C 2,2 C 20,9 km/h (4 Bft) 100,00 %
12.01.2023 18:42 6,1 C 5,0 C 4,4 C 75 % 1018,3 hPa 0,0 l/m 13,5 km/h (3 Bft) S-SW 212 0 min 0,000 mm 0,0 UV-I 0 W/m 2,0 C 1,2 C 19,3 km/h (3 Bft) 97,56 %
12.01.2023 18:44 6,2 C 5,0 C 4,4 C 75 % 1018,2 hPa 0,0 l/m 10,6 km/h (2 Bft) SW 225 0 min 0,000 mm 0,0 UV-I 0 W/m 2,1 C 3,0 C 20,9 km/h (4 Bft) 98,11 %
12.01.2023 18:46 6,2 C 5,0 C 4,4 C 75 % 1018,2 hPa 0,0 l/m 10,9 km/h (2 Bft) SW 223 0 min 0,000 mm 0,0 UV-I 0 W/m 2,1 C 2,8 C 17,7 km/h (3 Bft) 96,00 %
12.01.2023 18:48 6,1 C 5,0 C 4,4 C 75 % 1018,2 hPa 0,0 l/m 13,1 km/h (3 Bft) SW 228 0 min 0,000 mm 0,0 UV-I 0 W/m 2,0 C 1,4 C 17,7 km/h (3 Bft) 97,87 %
12.01.2023 18:50 6,2 C 5,0 C 4,4 C 75 % 1018,1 hPa 0,0 l/m 12,3 km/h (3 Bft) SW 236 0 min 0,000 mm 0,0 UV-I 0 W/m 2,1 C 2,0 C 16,1 km/h (3 Bft) 97,56 %
12.01.2023 18:52 6,2 C 5,0 C 4,4 C 75 % 1018,1 hPa 0,0 l/m 11,5 km/h (2 Bft) SW 218 0 min 0,000 mm 0,0 UV-I 0 W/m 2,1 C 2,4 C 16,1 km/h (3 Bft) 98,00 %
12.01.2023 18:54 6,2 C 5,0 C 4,4 C 75 % 1018,1 hPa 0,0 l/m 11,1 km/h (2 Bft) S-SW 204 0 min 0,000 mm 0,0 UV-I 0 W/m 2,1 C 2,7 C 20,9 km/h (4 Bft) 94,87 %
12.01.2023 18:56 6,2 C 5,0 C 4,4 C 75 % 1018,2 hPa 0,0 l/m 12,8 km/h (3 Bft) S-SW 211 0 min 0,000 mm 0,0 UV-I 0 W/m 2,1 C 1,7 C 20,9 km/h (4 Bft) 97,37 %
12.01.2023 18:58 6,3 C 5,0 C 4,4 C 75 % 1018,2 hPa 0,0 l/m 15,4 km/h (3 Bft) S-SW 210 0 min 0,000 mm 0,0 UV-I 0 W/m 2,2 C 0,5 C 20,9 km/h (4 Bft) 98,21 %
12.01.2023 19:00 6,6 C 5,0 C 5,0 C 74 % 1018,2 hPa 0,0 l/m 17,1 km/h (3 Bft) SW 215 0 min 0,000 mm 0,0 UV-I 0 W/m 2,3 C 0,1 C 27,4 km/h (4 Bft) 95,92 %
12.01.2023 19:02 6,7 C 5,0 C 5,0 C 73 % 1018,2 hPa 0,0 l/m 13,0 km/h (3 Bft) S-SW 207 0 min 0,025 mm 0,0 UV-I 0 W/m 2,2 C 2,2 C 17,7 km/h (3 Bft) 97,78 %
12.01.2023 19:04 6,8 C 5,0 C 5,0 C 73 % 1018,2 hPa 0,0 l/m 12,9 km/h (3 Bft) S-SO 162 0 min 0,000 mm 0,0 UV-I 0 W/m 2,3 C 2,3 C 20,9 km/h (4 Bft) 96,15 %
12.01.2023 19:06 6,8 C 5,0 C 5,0 C 72 % 1018,2 hPa 0,0 l/m 13,9 km/h (3 Bft) S-SW 209 0 min 0,000 mm 0,0 UV-I 0 W/m 2,1 C 1,8 C 22,5 km/h (4 Bft) 97,62 %
12.01.2023 19:08 6,8 C 5,0 C 5,0 C 73 % 1018,2 hPa 0,0 l/m 15,2 km/h (3 Bft) S-SW 210 0 min 0,000 mm 0,0 UV-I 0 W/m 2,3 C 1,2 C 27,4 km/h (4 Bft) 98,00 %
12.01.2023 19:10 6,8 C 5,0 C 5,0 C 72 % 1018,2 hPa 0,0 l/m 13,9 km/h (3 Bft) S-SW 195 0 min 0,000 mm 0,0 UV-I 0 W/m 2,1 C 1,8 C 19,3 km/h (3 Bft) 97,73 %
12.01.2023 19:12 6,8 C 5,0 C 5,0 C 72 % 1018,2 hPa 0,0 l/m 17,0 km/h (3 Bft) S-SW 196 0 min 0,000 mm 0,0 UV-I 0 W/m 2,1 C 0,3 C 24,1 km/h (4 Bft) 98,11 %
12.01.2023 19:14 6,8 C 5,0 C 5,0 C 72 % 1018,1 hPa 0,0 l/m 12,6 km/h (3 Bft) S-SW 213 0 min 0,000 mm 0,0 UV-I 0 W/m 2,1 C 2,5 C 22,5 km/h (4 Bft) 97,73 %
12.01.2023 19:16 6,8 C 5,0 C 5,0 C 72 % 1018,1 hPa 0,0 l/m 14,7 km/h (3 Bft) SW 217 0 min 0,000 mm 0,0 UV-I 0 W/m 2,1 C 1,4 C 19,3 km/h (3 Bft) 98,11 %
12.01.2023 19:18 6,8 C 5,0 C 5,0 C 72 % 1018,1 hPa 0,0 l/m 15,7 km/h (3 Bft) SW 229 0 min 0,000 mm 0,0 UV-I 0 W/m 2,1 C 0,9 C 20,9 km/h (4 Bft) 97,37 %
12.01.2023 19:20 6,8 C 5,0 C 5,0 C 72 % 1018,1 hPa 0,0 l/m 14,0 km/h (3 Bft) SW 215 0 min 0,000 mm 0,0 UV-I 0 W/m 2,1 C 1,8 C 20,9 km/h (4 Bft) 100,00 %
12.01.2023 19:22 6,8 C 5,0 C 5,0 C 72 % 1018,2 hPa 0,0 l/m 13,8 km/h (3 Bft) SW 226 0 min 0,000 mm 0,0 UV-I 0 W/m 2,1 C 1,9 C 22,5 km/h (4 Bft) 96,00 %
12.01.2023 19:24 6,8 C 5,0 C 5,0 C 72 % 1018,1 hPa 0,0 l/m 14,4 km/h (3 Bft) SW 227 0 min 0,000 mm 0,0 UV-I 0 W/m 2,1 C 1,5 C 27,4 km/h (4 Bft) 100,00 %
12.01.2023 19:26 6,8 C 5,0 C 5,0 C 72 % 1018,2 hPa 0,0 l/m 12,5 km/h (3 Bft) SW 231 0 min 0,000 mm 0,0 UV-I 0 W/m 2,1 C 2,5 C 19,3 km/h (3 Bft) 98,00 %
12.01.2023 19:28 6,8 C 5,0 C 5,0 C 72 % 1018,0 hPa 0,0 l/m 14,9 km/h (3 Bft) S-SW 212 0 min 0,000 mm 0,0 UV-I 0 W/m 2,1 C 1,3 C 22,5 km/h (4 Bft) 98,11 %
12.01.2023 19:30 6,8 C 5,0 C 5,0 C 72 % 1018,0 hPa 0,0 l/m 14,1 km/h (3 Bft) W-SW 244 0 min 0,000 mm 0,0 UV-I 0 W/m 2,1 C 1,7 C 24,1 km/h (4 Bft) 95,45 %
12.01.2023 19:32 6,8 C 5,0 C 5,0 C 72 % 1018,0 hPa 0,0 l/m 13,9 km/h (3 Bft) SW 223 0 min 0,000 mm 0,0 UV-I 0 W/m 2,1 C 1,8 C 20,9 km/h (4 Bft) 95,74 %
12.01.2023 19:34 6,8 C 5,0 C 5,0 C 72 % 1018,0 hPa 0,0 l/m 10,9 km/h (2 Bft) S-SW 192 0 min 0,000 mm 0,0 UV-I 0 W/m 2,1 C 3,5 C 16,1 km/h (3 Bft) 97,56 %
12.01.2023 19:36 6,9 C 5,0 C 5,0 C 72 % 1017,9 hPa 0,0 l/m 12,6 km/h (3 Bft) SW 227 0 min 0,000 mm 0,0 UV-I 0 W/m 2,2 C 2,6 C 22,5 km/h (4 Bft) 95,74 %
12.01.2023 19:38 6,8 C 5,0 C 5,0 C 72 % 1017,9 hPa 0,0 l/m 11,2 km/h (2 Bft) SW 217 0 min 0,000 mm 0,0 UV-I 0 W/m 2,1 C 3,3 C 16,1 km/h (3 Bft) 96,00 %
12.01.2023 19:40 6,8 C 5,0 C 5,0 C 72 % 1017,9 hPa 0,0 l/m 13,4 km/h (3 Bft) SW 218 0 min 0,000 mm 0,0 UV-I 0 W/m 2,1 C 2,1 C 20,9 km/h (4 Bft) 98,00 %
12.01.2023 19:42 6,8 C 5,0 C 5,0 C 72 % 1017,8 hPa 0,0 l/m 13,0 km/h (3 Bft) S-SW 209 0 min 0,000 mm 0,0 UV-I 0 W/m 2,1 C 2,3 C 19,3 km/h (3 Bft) 97,56 %
12.01.2023 19:44 6,8 C 5,0 C 5,0 C 72 % 1017,8 hPa 0,0 l/m 11,8 km/h (2 Bft) W-SW 246 0 min 0,000 mm 0,0 UV-I 0 W/m 2,1 C 2,9 C 17,7 km/h (3 Bft) 96,43 %
12.01.2023 19:46 6,8 C 5,0 C 5,0 C 72 % 1017,8 hPa 0,0 l/m 11,6 km/h (2 Bft) S-SW 211 0 min 0,000 mm 0,0 UV-I 0 W/m 2,1 C 3,1 C 17,7 km/h (3 Bft) 97,73 %
12.01.2023 19:48 6,8 C 5,0 C 5,0 C 72 % 1017,8 hPa 0,0 l/m 10,1 km/h (2 Bft) S-SW 211 0 min 0,000 mm 0,0 UV-I 0 W/m 2,1 C 4,0 C 19,3 km/h (3 Bft) 100,00 %
12.01.2023 19:50 6,8 C 5,0 C 5,0 C 72 % 1017,8 hPa 0,0 l/m 12,6 km/h (3 Bft) SW 216 0 min 0,000 mm 0,0 UV-I 0 W/m 2,1 C 2,5 C 16,1 km/h (3 Bft) 100,00 %
12.01.2023 19:52 6,7 C 5,0 C 4,4 C 72 % 1017,8 hPa 0,0 l/m 10,7 km/h (2 Bft) SW 229 0 min 0,000 mm 0,0 UV-I 0 W/m 2,0 C 3,5 C 19,3 km/h (3 Bft) 100,00 %
12.01.2023 19:54 6,7 C 5,0 C 4,4 C 72 % 1017,8 hPa 0,0 l/m 10,9 km/h (2 Bft) SW 215 0 min 0,000 mm 0,0 UV-I 0 W/m 2,0 C 3,4 C 16,1 km/h (3 Bft) 98,11 %
12.01.2023 19:56 6,7 C 5,0 C 4,4 C 72 % 1017,8 hPa 0,0 l/m 13,8 km/h (3 Bft) SW 227 0 min 0,000 mm 0,0 UV-I 0 W/m 2,0 C 1,7 C 19,3 km/h (3 Bft) 100,00 %
12.01.2023 19:58 6,7 C 5,0 C 4,4 C 72 % 1017,7 hPa 0,0 l/m 10,2 km/h (2 Bft) SW 217 0 min 0,000 mm 0,0 UV-I 0 W/m 2,0 C 3,8 C 16,1 km/h (3 Bft) 98,00 %
12.01.2023 20:00 6,7 C 5,0 C 4,4 C 72 % 1017,7 hPa 0,0 l/m 10,2 km/h (2 Bft) S-SW 209 0 min 0,026 mm 0,0 UV-I 0 W/m 2,0 C 3,8 C 14,5 km/h (3 Bft) 100,00 %
12.01.2023 20:02 6,7 C 5,0 C 4,4 C 72 % 1017,7 hPa 0,0 l/m 10,4 km/h (2 Bft) SW 222 0 min 0,000 mm 0,0 UV-I 0 W/m 2,0 C 3,7 C 16,1 km/h (3 Bft) 97,37 %
12.01.2023 20:04 6,7 C 5,0 C 4,4 C 72 % 1017,7 hPa 0,0 l/m 9,6 km/h (2 Bft) SW 236 0 min 0,000 mm 0,0 UV-I 0 W/m 2,0 C 4,2 C 16,1 km/h (3 Bft) 95,74 %
12.01.2023 20:06 6,7 C 5,0 C 4,4 C 72 % 1017,7 hPa 0,0 l/m 8,0 km/h (2 Bft) W-SW 244 0 min 0,000 mm 0,0 UV-I 0 W/m 2,0 C 5,4 C 11,3 km/h (2 Bft) 96,00 %
12.01.2023 20:08 6,6 C 5,0 C 4,4 C 73 % 1017,6 hPa 0,0 l/m 8,1 km/h (2 Bft) S-SW 213 0 min 0,000 mm 0,0 UV-I 0 W/m 2,1 C 5,2 C 12,9 km/h (3 Bft) 97,87 %
12.01.2023 20:10 6,5 C 5,0 C 4,4 C 73 % 1017,6 hPa 0,0 l/m 10,6 km/h (2 Bft) S-SW 200 0 min 0,000 mm 0,0 UV-I 0 W/m 2,0 C 3,3 C 17,7 km/h (3 Bft) 95,74 %
12.01.2023 20:12 6,4 C 5,0 C 3,9 C 73 % 1017,6 hPa 0,0 l/m 9,2 km/h (2 Bft) S-SW 203 0 min 0,000 mm 0,0 UV-I 0 W/m 1,9 C 4,2 C 12,9 km/h (3 Bft) 97,73 %
12.01.2023 20:14 6,4 C 5,0 C 3,9 C 74 % 1017,5 hPa 0,0 l/m 9,9 km/h (2 Bft) S-SW 209 0 min 0,000 mm 0,0 UV-I 0 W/m 2,1 C 3,7 C 12,9 km/h (3 Bft) 96,23 %
12.01.2023 20:16 6,4 C 5,0 C 4,4 C 74 % 1017,5 hPa 0,0 l/m 11,1 km/h (2 Bft) SW 220 0 min 0,000 mm 0,0 UV-I 0 W/m 2,1 C 2,9 C 19,3 km/h (3 Bft) 95,74 %
12.01.2023 20:18 6,4 C 5,0 C 4,4 C 74 % 1017,5 hPa 0,0 l/m 10,3 km/h (2 Bft) S-SW 210 0 min 0,000 mm 0,0 UV-I 0 W/m 2,1 C 3,4 C 16,1 km/h (3 Bft) 96,00 %
12.01.2023 20:20 6,5 C 5,0 C 4,4 C 73 % 1017,5 hPa 0,0 l/m 12,4 km/h (3 Bft) S-SW 202 0 min 0,000 mm 0,0 UV-I 0 W/m 2,0 C 2,3 C 19,3 km/h (3 Bft) 97,37 %
12.01.2023 20:22 6,6 C 5,0 C 4,4 C 73 % 1017,6 hPa 0,0 l/m 14,1 km/h (3 Bft) S-SW 212 0 min 0,000 mm 0,0 UV-I 0 W/m 2,1 C 1,5 C 20,9 km/h (4 Bft) 98,00 %
12.01.2023 20:24 6,6 C 5,0 C 4,4 C 73 % 1017,5 hPa 0,0 l/m 13,4 km/h (3 Bft) SW 227 0 min 0,000 mm 0,0 UV-I 0 W/m 2,1 C 1,8 C 22,5 km/h (4 Bft) 97,73 %
12.01.2023 20:26 6,6 C 5,0 C 4,4 C 73 % 1017,5 hPa 0,0 l/m 13,6 km/h (3 Bft) S-SW 209 0 min 0,000 mm 0,0 UV-I 0 W/m 2,1 C 1,7 C 19,3 km/h (3 Bft) 97,87 %
12.01.2023 20:28 6,6 C 5,0 C 4,4 C 73 % 1017,6 hPa 0,0 l/m 15,3 km/h (3 Bft) S-SW 202 0 min 0,000 mm 0,0 UV-I 0 W/m 2,1 C 0,9 C 20,9 km/h (4 Bft) 96,00 %
12.01.2023 20:30 6,7 C 5,0 C 4,4 C 72 % 1017,5 hPa 0,0 l/m 12,5 km/h (3 Bft) S-SW 211 0 min 0,000 mm 0,0 UV-I 0 W/m 2,0 C 2,4 C 25,7 km/h (4 Bft) 96,00 %
12.01.2023 20:32 6,7 C 5,0 C 4,4 C 72 % 1017,5 hPa 0,0 l/m 12,9 km/h (3 Bft) SW 229 0 min 0,000 mm 0,0 UV-I 0 W/m 2,0 C 2,2 C 22,5 km/h (4 Bft) 97,87 %
12.01.2023 20:34 6,7 C 5,0 C 5,0 C 72 % 1017,5 hPa 0,0 l/m 14,7 km/h (3 Bft) S-SW 212 0 min 0,000 mm 0,0 UV-I 0 W/m 2,0 C 1,3 C 24,1 km/h (4 Bft) 92,11 %
12.01.2023 20:36 6,8 C 5,0 C 4,4 C 72 % 1017,5 hPa 0,0 l/m 12,5 km/h (3 Bft) W-SW 242 0 min 0,000 mm 0,0 UV-I 0 W/m 2,1 C 2,5 C 17,7 km/h (3 Bft) 97,87 %
12.01.2023 20:38 6,8 C 5,0 C 5,0 C 72 % 1017,5 hPa 0,0 l/m 13,0 km/h (3 Bft) SW 225 0 min 0,000 mm 0,0 UV-I 0 W/m 2,1 C 2,3 C 20,9 km/h (4 Bft) 98,11 %
12.01.2023 20:40 6,8 C 5,0 C 5,0 C 72 % 1017,4 hPa 0,0 l/m 12,7 km/h (3 Bft) SW 218 0 min 0,000 mm 0,0 UV-I 0 W/m 2,1 C 2,4 C 19,3 km/h (3 Bft) 97,37 %
12.01.2023 20:42 6,8 C 5,0 C 5,0 C 72 % 1017,5 hPa 0,0 l/m 15,7 km/h (3 Bft) S-SW 192 0 min 0,000 mm 0,0 UV-I 0 W/m 2,1 C 0,9 C 30,6 km/h (5 Bft) 94,00 %
12.01.2023 20:44 6,8 C 5,0 C 5,0 C 72 % 1017,4 hPa 0,0 l/m 17,0 km/h (3 Bft) SW 229 0 min 0,000 mm 0,0 UV-I 0 W/m 2,1 C 0,3 C 25,7 km/h (4 Bft) 91,67 %
12.01.2023 20:46 6,8 C 5,0 C 5,0 C 72 % 1017,4 hPa 0,0 l/m 15,8 km/h (3 Bft) W-SW 246 0 min 0,000 mm 0,0 UV-I 0 W/m 2,1 C 0,9 C 20,9 km/h (4 Bft) 96,55 %
12.01.2023 20:48 6,9 C 5,0 C 5,0 C 71 % 1017,3 hPa 0,0 l/m 15,9 km/h (3 Bft) W-SW 243 0 min 0,000 mm 0,0 UV-I 0 W/m 2,0 C 1,0 C 22,5 km/h (4 Bft) 93,62 %
12.01.2023 20:50 6,9 C 5,0 C 5,0 C 71 % 1017,4 hPa 0,0 l/m 13,8 km/h (3 Bft) SW 221 0 min 0,000 mm 0,0 UV-I 0 W/m 2,0 C 2,0 C 19,3 km/h (3 Bft) 96,00 %
12.01.2023 20:52 6,9 C 5,0 C 5,0 C 71 % 1017,3 hPa 0,0 l/m 14,4 km/h (3 Bft) S-SW 210 0 min 0,000 mm 0,0 UV-I 0 W/m 2,0 C 1,7 C 19,3 km/h (3 Bft) 94,34 %
12.01.2023 20:54 6,9 C 5,0 C 5,0 C 71 % 1017,2 hPa 0,0 l/m 16,9 km/h (3 Bft) SW 221 0 min 0,000 mm 0,0 UV-I 0 W/m 2,0 C 0,5 C 25,7 km/h (4 Bft) 93,18 %
12.01.2023 20:56 6,9 C 5,0 C 5,0 C 71 % 1017,1 hPa 0,0 l/m 15,4 km/h (3 Bft) SW 215 0 min 0,000 mm 0,0 UV-I 0 W/m 2,0 C 1,2 C 22,5 km/h (4 Bft) 93,62 %
12.01.2023 20:58 6,9 C 5,0 C 5,0 C 71 % 1017,2 hPa 0,0 l/m 16,4 km/h (3 Bft) SW 214 0 min 0,000 mm 0,0 UV-I 0 W/m 2,0 C 0,7 C 25,7 km/h (4 Bft) 90,24 %
12.01.2023 21:00 6,9 C 5,0 C 5,0 C 71 % 1017,2 hPa 0,0 l/m 17,3 km/h (3 Bft) W-SW 244 0 min 0,000 mm 0,0 UV-I 0 W/m 2,0 C 0,3 C 22,5 km/h (4 Bft) 92,86 %
12.01.2023 21:02 6,9 C 5,0 C 5,0 C 71 % 1017,1 hPa 0,0 l/m 14,5 km/h (3 Bft) W-SW 243 0 min 0,025 mm 0,0 UV-I 0 W/m 2,0 C 1,6 C 24,1 km/h (4 Bft) 94,23 %
12.01.2023 21:04 6,9 C 5,0 C 5,0 C 71 % 1017,1 hPa 0,0 l/m 12,4 km/h (3 Bft) S 178 0 min 0,000 mm 0,0 UV-I 0 W/m 2,0 C 2,7 C 19,3 km/h (3 Bft) 94,00 %
12.01.2023 21:06 7,0 C 5,0 C 5,0 C 71 % 1017,1 hPa 0,0 l/m 13,1 km/h (3 Bft) W-SW 238 0 min 0,000 mm 0,0 UV-I 0 W/m 2,1 C 2,5 C 22,5 km/h (4 Bft) 94,00 %
12.01.2023 21:08 7,0 C 5,0 C 5,0 C 71 % 1017,1 hPa 0,0 l/m 16,6 km/h (3 Bft) S-SW 198 0 min 0,000 mm 0,0 UV-I 0 W/m 2,1 C 0,8 C 25,7 km/h (4 Bft) 94,44 %
12.01.2023 21:10 7,0 C 5,0 C 5,0 C 71 % 1017,1 hPa 0,0 l/m 13,1 km/h (3 Bft) S-SW 203 0 min 0,000 mm 0,0 UV-I 0 W/m 2,1 C 2,5 C 20,9 km/h (4 Bft) 95,74 %
12.01.2023 21:12 7,0 C 5,0 C 5,0 C 71 % 1017,1 hPa 0,0 l/m 13,0 km/h (3 Bft) S-SW 209 0 min 0,000 mm 0,0 UV-I 0 W/m 2,1 C 2,5 C 20,9 km/h (4 Bft) 94,74 %
12.01.2023 21:14 6,9 C 5,0 C 5,0 C 72 % 1017,1 hPa 0,0 l/m 12,5 km/h (3 Bft) S-SW 206 0 min 0,000 mm 0,0 UV-I 0 W/m 2,2 C 2,7 C 22,5 km/h (4 Bft) 95,31 %
12.01.2023 21:16 6,8 C 5,0 C 5,0 C 72 % 1017,0 hPa 0,0 l/m 10,7 km/h (2 Bft) SW 214 0 min 0,000 mm 0,0 UV-I 0 W/m 2,1 C 3,6 C 16,1 km/h (3 Bft) 94,87 %
12.01.2023 21:18 6,8 C 5,0 C 5,0 C 72 % 1017,0 hPa 0,0 l/m 12,2 km/h (2 Bft) S-SW 204 0 min 0,000 mm 0,0 UV-I 0 W/m 2,1 C 2,7 C 17,7 km/h (3 Bft) 94,55 %
12.01.2023 21:20 6,8 C 5,0 C 5,0 C 72 % 1017,0 hPa 0,0 l/m 13,5 km/h (3 Bft) SW 227 0 min 0,000 mm 0,0 UV-I 0 W/m 2,1 C 2,0 C 24,1 km/h (4 Bft) 97,87 %
12.01.2023 21:22 6,8 C 5,0 C 5,0 C 72 % 1017,0 hPa 0,0 l/m 14,2 km/h (3 Bft) SW 215 0 min 0,000 mm 0,0 UV-I 0 W/m 2,1 C 1,6 C 20,9 km/h (4 Bft) 96,00 %
12.01.2023 21:24 7,1 C 5,0 C 5,0 C 71 % 1017,0 hPa 0,0 l/m 14,3 km/h (3 Bft) S-SW 199 0 min 0,000 mm 0,0 UV-I 0 W/m 2,2 C 2,0 C 22,5 km/h (4 Bft) 97,87 %
12.01.2023 21:26 7,1 C 5,0 C 5,0 C 71 % 1017,0 hPa 0,0 l/m 14,7 km/h (3 Bft) S-SW 198 0 min 0,000 mm 0,0 UV-I 0 W/m 2,2 C 1,8 C 20,9 km/h (4 Bft) 97,44 %
12.01.2023 21:28 7,2 C 5,0 C 5,6 C 71 % 1016,9 hPa 0,0 l/m 15,9 km/h (3 Bft) SW 218 0 min 0,000 mm 0,0 UV-I 0 W/m 2,3 C 1,3 C 22,5 km/h (4 Bft) 98,18 %
12.01.2023 21:30 7,2 C 5,0 C 5,6 C 71 % 1017,0 hPa 0,0 l/m 13,8 km/h (3 Bft) S-SW 207 0 min 0,000 mm 0,0 UV-I 0 W/m 2,3 C 2,3 C 20,9 km/h (4 Bft) 97,78 %
12.01.2023 21:32 7,3 C 5,0 C 5,6 C 70 % 1017,0 hPa 0,0 l/m 15,1 km/h (3 Bft) SW 221 0 min 0,000 mm 0,0 UV-I 0 W/m 2,2 C 1,8 C 24,1 km/h (4 Bft) 97,56 %
12.01.2023 21:34 7,3 C 5,0 C 5,6 C 70 % 1017,0 hPa 0,0 l/m 16,5 km/h (3 Bft) SW 229 0 min 0,000 mm 0,0 UV-I 0 W/m 2,2 C 1,2 C 24,1 km/h (4 Bft) 95,74 %
12.01.2023 21:36 7,4 C 5,0 C 5,6 C 70 % 1017,1 hPa 0,0 l/m 15,2 km/h (3 Bft) SW 219 0 min 0,000 mm 0,0 UV-I 0 W/m 2,3 C 1,9 C 20,9 km/h (4 Bft) 100,00 %
12.01.2023 21:38 7,4 C 5,0 C 5,6 C 70 % 1017,1 hPa 0,0 l/m 15,0 km/h (3 Bft) S-SW 207 0 min 0,000 mm 0,0 UV-I 0 W/m 2,3 C 2,0 C 24,1 km/h (4 Bft) 98,00 %
12.01.2023 21:40 7,5 C 5,0 C 5,6 C 70 % 1017,0 hPa 0,0 l/m 14,1 km/h (3 Bft) S-SW 196 0 min 0,000 mm 0,0 UV-I 0 W/m 2,4 C 2,5 C 29,0 km/h (5 Bft) 100,00 %
12.01.2023 21:42 7,5 C 5,0 C 5,6 C 70 % 1017,1 hPa 0,0 l/m 16,1 km/h (3 Bft) SW 221 0 min 0,000 mm 0,0 UV-I 0 W/m 2,4 C 1,6 C 20,9 km/h (4 Bft) 100,00 %
12.01.2023 21:44 7,5 C 5,0 C 5,6 C 70 % 1017,1 hPa 0,0 l/m 13,0 km/h (3 Bft) S-SW 204 0 min 0,000 mm 0,0 UV-I 0 W/m 2,4 C 3,1 C 17,7 km/h (3 Bft) 97,37 %
12.01.2023 21:46 7,4 C 5,0 C 5,6 C 70 % 1017,0 hPa 0,0 l/m 12,5 km/h (3 Bft) S-SW 202 0 min 0,000 mm 0,0 UV-I 0 W/m 2,3 C 3,2 C 17,7 km/h (3 Bft) 98,11 %
12.01.2023 21:48 7,3 C 5,0 C 5,0 C 71 % 1017,0 hPa 0,0 l/m 9,9 km/h (2 Bft) S-SW 209 0 min 0,000 mm 0,0 UV-I 0 W/m 2,4 C 4,7 C 14,5 km/h (3 Bft) 100,00 %
12.01.2023 21:50 7,2 C 5,0 C 5,0 C 71 % 1017,0 hPa 0,0 l/m 8,6 km/h (2 Bft) SW 235 0 min 0,000 mm 0,0 UV-I 0 W/m 2,3 C 5,5 C 14,5 km/h (3 Bft) 98,21 %
12.01.2023 21:52 7,2 C 5,0 C 5,0 C 71 % 1017,0 hPa 0,0 l/m 13,1 km/h (3 Bft) S-SW 205 0 min 0,000 mm 0,0 UV-I 0 W/m 2,3 C 2,7 C 25,7 km/h (4 Bft) 100,00 %
12.01.2023 21:54 7,2 C 5,0 C 5,0 C 71 % 1016,9 hPa 0,0 l/m 10,7 km/h (2 Bft) S-SW 192 0 min 0,000 mm 0,0 UV-I 0 W/m 2,3 C 4,1 C 16,1 km/h (3 Bft) 100,00 %
12.01.2023 21:56 7,2 C 5,0 C 5,0 C 72 % 1017,0 hPa 0,0 l/m 11,6 km/h (2 Bft) S-SW 203 0 min 0,000 mm 0,0 UV-I 0 W/m 2,5 C 3,5 C 17,7 km/h (3 Bft) 98,00 %
12.01.2023 21:58 7,1 C 5,0 C 5,0 C 72 % 1017,0 hPa 0,0 l/m 12,2 km/h (2 Bft) SW 227 0 min 0,000 mm 0,0 UV-I 0 W/m 2,4 C 3,1 C 17,7 km/h (3 Bft) 97,56 %
12.01.2023 22:00 7,2 C 5,0 C 5,0 C 72 % 1016,9 hPa 0,0 l/m 12,2 km/h (2 Bft) SW 234 0 min 0,051 mm 0,0 UV-I 0 W/m 2,5 C 3,2 C 19,3 km/h (3 Bft) 97,56 %
12.01.2023 22:02 7,2 C 5,0 C 5,6 C 72 % 1016,9 hPa 0,0 l/m 13,9 km/h (3 Bft) S 186 0 min 0,000 mm 0,0 UV-I 0 W/m 2,5 C 2,3 C 22,5 km/h (4 Bft) 98,11 %
12.01.2023 22:04 7,2 C 5,0 C 5,6 C 72 % 1016,9 hPa 0,0 l/m 15,5 km/h (3 Bft) SW 219 0 min 0,000 mm 0,0 UV-I 0 W/m 2,5 C 1,5 C 25,7 km/h (4 Bft) 94,00 %
12.01.2023 22:06 7,2 C 5,0 C 5,0 C 72 % 1016,9 hPa 0,0 l/m 14,1 km/h (3 Bft) S-SW 205 0 min 0,000 mm 0,0 UV-I 0 W/m 2,5 C 2,2 C 25,7 km/h (4 Bft) 97,87 %
12.01.2023 22:08 7,2 C 5,0 C 5,6 C 72 % 1016,9 hPa 0,0 l/m 16,3 km/h (3 Bft) SW 214 0 min 0,000 mm 0,0 UV-I 0 W/m 2,5 C 1,2 C 25,7 km/h (4 Bft) 95,12 %
12.01.2023 22:10 7,3 C 5,0 C 5,6 C 72 % 1016,9 hPa 0,0 l/m 13,6 km/h (3 Bft) SW 229 0 min 0,000 mm 0,0 UV-I 0 W/m 2,6 C 2,5 C 17,7 km/h (3 Bft) 97,73 %
12.01.2023 22:12 7,2 C 5,0 C 5,6 C 72 % 1016,9 hPa 0,0 l/m 12,9 km/h (3 Bft) SW 230 0 min 0,000 mm 0,0 UV-I 0 W/m 2,5 C 2,8 C 22,5 km/h (4 Bft) 98,21 %
12.01.2023 22:14 7,2 C 5,0 C 5,6 C 72 % 1016,9 hPa 0,0 l/m 13,1 km/h (3 Bft) S 171 0 min 0,000 mm 0,0 UV-I 0 W/m 2,5 C 2,7 C 19,3 km/h (3 Bft) 97,37 %
12.01.2023 22:16 7,2 C 5,0 C 5,6 C 72 % 1017,0 hPa 0,0 l/m 15,3 km/h (3 Bft) SW 218 0 min 0,000 mm 0,0 UV-I 0 W/m 2,5 C 1,6 C 22,5 km/h (4 Bft) 95,74 %
12.01.2023 22:18 7,2 C 5,0 C 5,6 C 72 % 1016,9 hPa 0,0 l/m 12,9 km/h (3 Bft) S 185 0 min 0,000 mm 0,0 UV-I 0 W/m 2,5 C 2,8 C 17,7 km/h (3 Bft) 100,00 %
12.01.2023 22:20 7,2 C 5,0 C 5,6 C 72 % 1016,9 hPa 0,0 l/m 14,7 km/h (3 Bft) S-SW 200 0 min 0,000 mm 0,0 UV-I 0 W/m 2,5 C 1,9 C 27,4 km/h (4 Bft) 100,00 %
12.01.2023 22:22 7,2 C 5,0 C 5,6 C 72 % 1016,9 hPa 0,0 l/m 13,7 km/h (3 Bft) S-SW 205 0 min 0,000 mm 0,0 UV-I 0 W/m 2,5 C 2,4 C 20,9 km/h (4 Bft) 97,87 %
12.01.2023 22:24 7,3 C 5,0 C 5,6 C 72 % 1016,9 hPa 0,0 l/m 16,3 km/h (3 Bft) SW 221 0 min 0,000 mm 0,0 UV-I 0 W/m 2,6 C 1,3 C 22,5 km/h (4 Bft) 100,00 %
12.01.2023 22:26 7,3 C 5,0 C 5,6 C 72 % 1017,0 hPa 0,0 l/m 15,6 km/h (3 Bft) SW 221 0 min 0,000 mm 0,0 UV-I 0 W/m 2,6 C 1,6 C 22,5 km/h (4 Bft) 100,00 %
12.01.2023 22:28 7,4 C 5,0 C 5,6 C 72 % 1016,9 hPa 0,0 l/m 13,9 km/h (3 Bft) S-SW 200 0 min 0,000 mm 0,0 UV-I 0 W/m 2,7 C 2,5 C 24,1 km/h (4 Bft) 100,00 %
12.01.2023 22:30 7,4 C 5,0 C 5,6 C 72 % 1016,9 hPa 0,0 l/m 14,0 km/h (3 Bft) S 181 0 min 0,000 mm 0,0 UV-I 0 W/m 2,7 C 2,5 C 20,9 km/h (4 Bft) 100,00 %
12.01.2023 22:32 7,4 C 5,0 C 5,6 C 72 % 1016,9 hPa 0,0 l/m 14,7 km/h (3 Bft) SW 217 0 min 0,000 mm 0,0 UV-I 0 W/m 2,7 C 2,1 C 24,1 km/h (4 Bft) 98,59 %
12.01.2023 22:34 7,4 C 5,0 C 5,6 C 72 % 1016,8 hPa 0,0 l/m 16,1 km/h (3 Bft) S-SW 196 0 min 0,000 mm 0,0 UV-I 0 W/m 2,7 C 1,5 C 25,7 km/h (4 Bft) 100,00 %
12.01.2023 22:36 7,6 C 5,0 C 6,1 C 71 % 1016,8 hPa 0,0 l/m 15,5 km/h (3 Bft) SW 217 0 min 0,000 mm 0,0 UV-I 0 W/m 2,7 C 2,0 C 24,1 km/h (4 Bft) 100,00 %
12.01.2023 22:38 7,6 C 5,0 C 5,6 C 72 % 1016,9 hPa 0,0 l/m 13,3 km/h (3 Bft) S-SW 208 0 min 0,000 mm 0,0 UV-I 0 W/m 2,9 C 3,1 C 22,5 km/h (4 Bft) 100,00 %
12.01.2023 22:40 7,6 C 5,0 C 6,1 C 71 % 1016,8 hPa 0,0 l/m 15,0 km/h (3 Bft) S-SW 198 0 min 0,000 mm 0,0 UV-I 0 W/m 2,7 C 2,2 C 27,4 km/h (4 Bft) 100,00 %
12.01.2023 22:42 7,6 C 5,0 C 6,1 C 71 % 1016,8 hPa 0,0 l/m 14,4 km/h (3 Bft) W-SW 238 0 min 0,000 mm 0,0 UV-I 0 W/m 2,7 C 2,5 C 22,5 km/h (4 Bft) 100,00 %
12.01.2023 22:44 7,7 C 5,0 C 6,1 C 71 % 1016,8 hPa 0,0 l/m 16,1 km/h (3 Bft) S-SW 205 0 min 0,000 mm 0,0 UV-I 0 W/m 2,8 C 1,9 C 24,1 km/h (4 Bft) 100,00 %
12.01.2023 22:46 7,6 C 5,0 C 6,1 C 72 % 1016,8 hPa 0,0 l/m 17,2 km/h (3 Bft) SW 218 0 min 0,000 mm 0,0 UV-I 0 W/m 2,9 C 1,3 C 30,6 km/h (5 Bft) 100,00 %
12.01.2023 22:48 7,6 C 5,0 C 6,1 C 71 % 1016,8 hPa 0,0 l/m 14,7 km/h (3 Bft) SW 221 0 min 0,000 mm 0,0 UV-I 0 W/m 2,7 C 2,4 C 20,9 km/h (4 Bft) 100,00 %
12.01.2023 22:50 7,7 C 5,0 C 6,1 C 71 % 1016,8 hPa 0,0 l/m 17,7 km/h (3 Bft) SW 224 0 min 0,000 mm 0,0 UV-I 0 W/m 2,8 C 1,2 C 29,0 km/h (5 Bft) 100,00 %
12.01.2023 22:52 7,6 C 5,0 C 6,1 C 72 % 1016,8 hPa 0,0 l/m 12,4 km/h (3 Bft) S 187 0 min 0,000 mm 0,0 UV-I 0 W/m 2,9 C 3,5 C 16,1 km/h (3 Bft) 100,00 %
12.01.2023 22:54 7,6 C 5,0 C 6,1 C 71 % 1016,7 hPa 0,0 l/m 15,5 km/h (3 Bft) SW 229 0 min 0,000 mm 0,0 UV-I 0 W/m 2,7 C 2,0 C 22,5 km/h (4 Bft) 100,00 %
12.01.2023 22:56 7,6 C 5,0 C 6,1 C 72 % 1016,8 hPa 0,0 l/m 15,6 km/h (3 Bft) S-SW 211 0 min 0,000 mm 0,0 UV-I 0 W/m 2,9 C 2,0 C 22,5 km/h (4 Bft) 100,00 %
12.01.2023 22:58 7,6 C 5,0 C 6,1 C 72 % 1016,8 hPa 0,0 l/m 10,5 km/h (2 Bft) SW 226 0 min 0,000 mm 0,0 UV-I 0 W/m 2,9 C 4,6 C 20,9 km/h (4 Bft) 100,00 %
12.01.2023 23:00 7,5 C 5,0 C 6,1 C 72 % 1016,8 hPa 0,0 l/m 13,6 km/h (3 Bft) S 189 0 min 0,051 mm 0,0 UV-I 0 W/m 2,8 C 2,8 C 22,5 km/h (4 Bft) 100,00 %
12.01.2023 23:02 7,5 C 5,0 C 6,1 C 72 % 1016,8 hPa 0,0 l/m 13,4 km/h (3 Bft) SW 225 0 min 0,000 mm 0,0 UV-I 0 W/m 2,8 C 2,9 C 22,5 km/h (4 Bft) 100,00 %
12.01.2023 23:04 7,5 C 5,0 C 6,1 C 72 % 1016,9 hPa 0,0 l/m 13,0 km/h (3 Bft) S-SW 199 0 min 0,000 mm 0,0 UV-I 0 W/m 2,8 C 3,1 C 20,9 km/h (4 Bft) 100,00 %
12.01.2023 23:06 7,4 C 5,0 C 6,1 C 72 % 1016,9 hPa 0,0 l/m 11,4 km/h (2 Bft) S-SW 207 0 min 0,000 mm 0,0 UV-I 0 W/m 2,7 C 3,9 C 17,7 km/h (3 Bft) 96,23 %
12.01.2023 23:08 7,4 C 5,0 C 6,1 C 73 % 1016,8 hPa 0,0 l/m 14,0 km/h (3 Bft) S-SW 204 0 min 0,000 mm 0,0 UV-I 0 W/m 2,9 C 2,5 C 19,3 km/h (3 Bft) 97,73 %
12.01.2023 23:10 7,4 C 5,0 C 6,1 C 73 % 1016,8 hPa 0,0 l/m 14,4 km/h (3 Bft) S-SW 205 0 min 0,000 mm 0,0 UV-I 0 W/m 2,9 C 2,3 C 20,9 km/h (4 Bft) 97,56 %
12.01.2023 23:12 7,4 C 5,0 C 5,6 C 73 % 1016,8 hPa 0,0 l/m 13,4 km/h (3 Bft) S 185 0 min 0,000 mm 0,0 UV-I 0 W/m 2,9 C 2,8 C 17,7 km/h (3 Bft) 96,00 %
12.01.2023 23:14 7,4 C 5,0 C 6,1 C 73 % 1016,7 hPa 0,0 l/m 13,0 km/h (3 Bft) S-SW 209 0 min 0,000 mm 0,0 UV-I 0 W/m 2,9 C 3,0 C 24,1 km/h (4 Bft) 96,23 %
12.01.2023 23:16 7,4 C 5,0 C 6,1 C 73 % 1016,6 hPa 0,0 l/m 11,9 km/h (2 Bft) S-SW 210 0 min 0,000 mm 0,0 UV-I 0 W/m 2,9 C 3,6 C 17,7 km/h (3 Bft) 97,37 %
12.01.2023 23:18 7,4 C 5,0 C 6,1 C 73 % 1016,7 hPa 0,0 l/m 13,0 km/h (3 Bft) S-SW 199 0 min 0,000 mm 0,0 UV-I 0 W/m 2,9 C 3,0 C 24,1 km/h (4 Bft) 96,23 %
12.01.2023 23:20 7,4 C 5,0 C 6,1 C 73 % 1016,6 hPa 0,0 l/m 13,9 km/h (3 Bft) SW 217 0 min 0,000 mm 0,0 UV-I 0 W/m 2,9 C 2,5 C 19,3 km/h (3 Bft) 94,74 %
12.01.2023 23:22 7,4 C 5,0 C 6,1 C 73 % 1016,6 hPa 0,0 l/m 13,9 km/h (3 Bft) SW 214 0 min 0,000 mm 0,0 UV-I 0 W/m 2,9 C 2,5 C 17,7 km/h (3 Bft) 96,23 %
12.01.2023 23:24 7,4 C 5,0 C 6,1 C 73 % 1016,6 hPa 0,0 l/m 14,8 km/h (3 Bft) SW 222 0 min 0,000 mm 0,0 UV-I 0 W/m 2,9 C 2,1 C 20,9 km/h (4 Bft) 91,49 %
12.01.2023 23:26 7,4 C 5,0 C 6,1 C 73 % 1016,6 hPa 0,0 l/m 13,8 km/h (3 Bft) SW 230 0 min 0,000 mm 0,0 UV-I 0 W/m 2,9 C 2,6 C 27,4 km/h (4 Bft) 95,74 %
12.01.2023 23:28 7,5 C 5,0 C 6,1 C 73 % 1016,6 hPa 0,0 l/m 12,9 km/h (3 Bft) S-SW 198 0 min 0,000 mm 0,0 UV-I 0 W/m 3,0 C 3,1 C 20,9 km/h (4 Bft) 94,34 %
12.01.2023 23:30 7,6 C 5,0 C 6,1 C 73 % 1016,5 hPa 0,0 l/m 13,7 km/h (3 Bft) SW 226 0 min 0,000 mm 0,0 UV-I 0 W/m 3,1 C 2,9 C 20,9 km/h (4 Bft) 93,62 %
12.01.2023 23:32 7,5 C 5,0 C 6,1 C 73 % 1016,5 hPa 0,0 l/m 12,1 km/h (2 Bft) S-SW 211 0 min 0,000 mm 0,0 UV-I 0 W/m 3,0 C 3,6 C 20,9 km/h (4 Bft) 95,74 %
12.01.2023 23:34 7,4 C 5,0 C 6,1 C 73 % 1016,5 hPa 0,0 l/m 14,0 km/h (3 Bft) S-SW 207 0 min 0,000 mm 0,0 UV-I 0 W/m 2,9 C 2,5 C 25,7 km/h (4 Bft) 97,37 %
12.01.2023 23:36 7,4 C 5,0 C 6,1 C 73 % 1016,5 hPa 0,0 l/m 10,8 km/h (2 Bft) SW 229 0 min 0,000 mm 0,0 UV-I 0 W/m 2,9 C 4,2 C 16,1 km/h (3 Bft) 95,74 %
12.01.2023 23:38 7,5 C 5,0 C 6,1 C 73 % 1016,5 hPa 0,0 l/m 13,4 km/h (3 Bft) W-SW 247 0 min 0,000 mm 0,0 UV-I 0 W/m 3,0 C 2,9 C 17,7 km/h (3 Bft) 98,11 %
12.01.2023 23:40 7,6 C 5,0 C 6,1 C 73 % 1016,5 hPa 0,0 l/m 14,6 km/h (3 Bft) W-SW 242 0 min 0,000 mm 0,0 UV-I 0 W/m 3,1 C 2,4 C 22,5 km/h (4 Bft) 96,00 %
12.01.2023 23:42 7,6 C 5,0 C 6,1 C 73 % 1016,5 hPa 0,0 l/m 13,2 km/h (3 Bft) W-SW 249 0 min 0,000 mm 0,0 UV-I 0 W/m 3,1 C 3,1 C 20,9 km/h (4 Bft) 95,12 %
12.01.2023 23:44 7,6 C 5,0 C 6,1 C 73 % 1016,5 hPa 0,0 l/m 15,5 km/h (3 Bft) SW 220 0 min 0,000 mm 0,0 UV-I 0 W/m 3,1 C 2,0 C 27,4 km/h (4 Bft) 98,00 %
12.01.2023 23:46 7,6 C 5,0 C 6,1 C 73 % 1016,5 hPa 0,0 l/m 12,7 km/h (3 Bft) W-SW 245 0 min 0,000 mm 0,0 UV-I 0 W/m 3,1 C 3,4 C 20,9 km/h (4 Bft) 100,00 %
12.01.2023 23:48 7,7 C 5,0 C 6,1 C 73 % 1016,5 hPa 0,0 l/m 15,7 km/h (3 Bft) SW 225 0 min 0,000 mm 0,0 UV-I 0 W/m 3,2 C 2,0 C 22,5 km/h (4 Bft) 98,00 %
12.01.2023 23:50 7,7 C 5,0 C 6,1 C 73 % 1016,5 hPa 0,0 l/m 16,2 km/h (3 Bft) SW 225 0 min 0,000 mm 0,0 UV-I 0 W/m 3,2 C 1,8 C 22,5 km/h (4 Bft) 100,00 %
12.01.2023 23:52 7,7 C 5,0 C 6,1 C 72 % 1016,5 hPa 0,0 l/m 15,8 km/h (3 Bft) W-SW 252 0 min 0,000 mm 0,0 UV-I 0 W/m 3,0 C 2,0 C 24,1 km/h (4 Bft) 98,18 %
12.01.2023 23:54 7,7 C 5,0 C 6,1 C 72 % 1016,5 hPa 0,0 l/m 16,8 km/h (3 Bft) SW 223 0 min 0,000 mm 0,0 UV-I 0 W/m 3,0 C 1,6 C 25,7 km/h (4 Bft) 100,00 %
12.01.2023 23:56 7,8 C 5,0 C 6,7 C 72 % 1016,6 hPa 0,0 l/m 16,3 km/h (3 Bft) S-SW 208 0 min 0,000 mm 0,0 UV-I 0 W/m 3,1 C 1,9 C 22,5 km/h (4 Bft) 98,08 %
12.01.2023 23:58 7,9 C 5,0 C 6,7 C 72 % 1016,6 hPa 0,0 l/m 16,2 km/h (3 Bft) W-SW 237 0 min 0,000 mm 0,0 UV-I 0 W/m 3,2 C 2,1 C 24,1 km/h (4 Bft) 100,00 %
_ Min-Zeit 06:38 00:00 05:44 12:28 23:30 - 13:34 - - - - - - 18:32 04:26 13:34 16:32
Minimum _ 4,4 C 5,0 C 2,2 C 67 % 1016,5 hPa - 0,0 km/h (0 Bft) - - - - - - 1,9 C -3,1 C 0,0 km/h (0 Bft) 81,82 %
_ Max-Zeit 11:26 00:00 11:20 00:00 07:46 02:24 03:20 - - 08:04 12:00 11:14 11:18 00:00 12:32 03:32 00:38
Maximum _ 8,7 C 5,0 C 10,0 C 93 % 1022,0 hPa 0,2 l/m 21,4 km/h
W-SW (4 Bft)
- - 2 min 0,127 mm 0,6 UV-I 294 W/m 6,0 C 8,6 C 35,4 km/h
W (5 Bft)
100,00 %
Durchschnitt _ 6,7 C 5,0 C 5,5 C 80 % 1019,8 hPa #0,4 l/m 10,7 km/h (2 Bft) SW - #3:40 h #0,864 mm 0,5 UV-I 107 W/m 3,5 C 3,5 C 16,4 km/h (3 Bft) 97,40 %